[[{"header":{"parameterUnit":"m.s-1","parameterCategory":1,"la1":30.6,"la2":28.766,"lo1":-90.7593,"lo2":-88.6598,"dy":0.0162,"dx":0.0183,"nx":116,"ny":114,"refTime":"2023-07-21T12:00:00:Z","depth":0,"parameterNumber":2,"parameterNumberName":"U-component_of_WINDS"},"data":[0.0,0.0,0.0,0.0,0.0,0.0,0.0,0.0,0.0,0.0,0.0,0.0,0.0,0.0,0.0,0.0,0.0,0.0,0.0,0.0,0.0,0.0,0.0,0.0,0.0,0.0,0.0,0.0,0.0,0.0,0.0,0.0,0.0,0.0,0.0,0.0,0.0,0.0,0.0,0.0,0.0,0.0,0.0,0.0,0.0,0.0,0.0,0.0,0.0,0.0,0.0,0.0,0.0,0.0,0.0,0.0,0.0,0.0,0.0,0.0,0.0,0.0,0.0,0.0,0.0,0.0,0.0,0.0,0.0,0.0,0.0,0.0,0.0,0.0,0.0,0.0,0.0,0.0,0.0,0.0,0.0,0.0,0.0,0.0,0.0,0.0,0.0,0.0,0.0,0.0,0.0,0.0,0.0,0.0,0.0,0.0,0.0,0.0,0.0,0.0,0.0,0.0,0.0,0.0,0.0,0.0,0.0,0.0,0.0,0.0,0.0,0.0,0.0,0.0,0.0,0.0,0.0,0.0,0.0,0.0,0.0,0.0,0.0,0.0,0.0,0.0,0.0,0.0,0.0,0.0,0.0,0.0,0.0,0.0,0.0,0.0,0.0,0.0,0.0,0.0,0.0,0.0,0.0,0.0,0.0,0.0,0.0,0.0,0.0,0.0,0.0,0.0,0.0,0.0,0.0,0.0,0.0,0.0,0.0,0.0,0.0,0.0,0.0,0.0,0.0,0.0,0.0,0.0,0.0,0.0,0.0,0.0,0.0,0.0,0.0,0.0,0.0,0.0,0.0,0.0,0.0,0.0,0.0,0.0,0.0,0.0,0.0,0.0,0.0,0.0,0.0,0.0,0.0,0.0,0.0,0.0,0.0,0.0,0.0,0.0,0.0,0.0,0.0,0.0,0.0,0.0,0.0,0.0,0.0,0.0,0.0,0.0,0.0,0.0,0.0,0.0,0.0,0.0,0.0,0.0,0.0,0.0,0.0,0.0,0.0,0.0,0.0,0.0,0.0,0.0,0.0,0.0,0.0,0.0,0.0,0.0,0.0,0.0,0.0,0.0,0.0,0.0,0.0,0.0,0.0,0.0,0.0,0.0,0.0,0.0,0.0,0.0,0.0,0.0,0.0,0.0,0.0,0.0,0.0,0.0,0.0,0.0,0.0,0.0,0.0,0.0,0.0,0.0,0.0,0.0,0.0,0.0,0.0,0.0,0.0,0.0,0.0,0.0,0.0,0.0,0.0,0.0,0.0,0.0,0.0,0.0,0.0,0.0,0.0,0.0,0.0,0.0,0.0,0.0,0.0,0.0,0.0,0.0,0.0,0.0,0.0,0.0,0.0,0.0,0.0,0.0,0.0,0.0,0.0,0.0,0.0,0.0,0.0,0.0,0.0,0.0,0.0,0.0,0.0,0.0,0.0,0.0,0.0,0.0,0.0,0.0,0.0,0.0,0.0,0.0,0.0,0.0,0.0,0.0,0.0,0.0,0.0,0.0,0.0,0.0,0.0,0.0,0.0,0.0,0.0,0.0,0.0,0.0,0.0,0.0,0.0,0.0,0.0,0.0,0.0,0.0,0.0,0.0,0.0,0.0,0.0,0.0,0.0,0.0,0.0,0.0,0.0,0.0,0.0,0.0,0.0,0.0,0.0,0.0,0.0,0.0,0.0,0.0,0.0,0.0,0.0,0.0,0.0,0.0,0.0,0.0,0.0,0.0,0.0,0.0,0.0,0.0,0.0,0.0,0.0,0.0,0.0,0.0,0.0,0.0,0.0,0.0,0.0,0.0,0.0,0.0,0.0,0.0,0.0,0.0,0.0,0.0,0.0,0.0,0.0,0.0,0.0,0.0,0.0,0.0,0.0,0.0,0.0,0.0,0.0,0.0,0.0,0.0,0.0,0.0,0.0,0.0,0.0,0.0,0.0,0.0,0.0,0.0,0.0,0.0,0.0,0.0,0.0,0.0,0.0,0.0,0.0,0.0,0.0,0.0,0.0,0.0,0.0,0.0,0.0,0.0,0.0,0.0,0.0,0.0,0.0,0.0,0.0,0.0,0.0,0.0,0.0,0.0,0.0,0.0,0.0,0.0,0.0,0.0,0.0,0.0,0.0,0.0,0.0,0.0,0.0,0.0,0.0,0.0,0.0,0.0,0.0,0.0,0.0,0.0,0.0,0.0,0.0,0.0,0.0,0.0,0.0,0.0,0.0,0.0,0.0,0.0,0.0,0.0,0.0,0.0,0.0,0.0,0.0,0.0,0.0,0.0,0.0,0.0,0.0,0.0,0.0,0.0,0.0,0.0,0.0,0.0,0.0,0.0,0.0,0.0,0.0,0.0,0.0,0.0,0.0,0.0,0.0,0.0,0.0,0.0,0.0,0.0,0.0,0.0,0.0,0.0,0.0,0.0,0.0,0.0,0.0,0.0,0.0,0.0,0.0,0.0,0.0,0.0,0.0,0.0,0.0,0.0,0.0,0.0,0.0,0.0,0.0,0.0,0.0,0.0,0.0,0.0,0.0,0.0,0.0,0.0,0.0,0.0,0.0,0.0,0.0,0.0,0.0,0.0,0.0,0.0,0.0,0.0,0.0,0.0,0.0,0.0,0.0,0.0,0.0,0.0,0.0,0.0,0.0,0.0,0.0,0.0,0.0,0.0,0.0,0.0,0.0,0.0,0.0,0.0,0.0,0.0,0.0,0.0,0.0,0.0,0.0,0.0,0.0,0.0,0.0,0.0,0.0,0.0,0.0,0.0,0.0,0.0,0.0,0.0,0.0,0.0,0.0,0.0,0.0,0.0,0.0,0.0,0.0,0.0,0.0,0.0,0.0,0.0,0.0,0.0,0.0,0.0,0.0,0.0,0.0,0.0,0.0,0.0,0.0,0.0,0.0,0.0,0.0,0.0,0.0,0.0,0.0,0.0,0.0,0.0,0.0,0.0,0.0,0.0,0.0,0.0,0.0,0.0,0.0,0.0,0.0,0.0,0.0,0.0,0.0,0.0,0.0,0.0,0.0,0.0,0.0,0.0,0.0,0.0,0.0,0.0,0.0,0.0,0.0,0.0,0.0,0.0,0.0,0.0,0.0,0.0,0.0,0.0,0.0,0.0,0.0,0.0,0.0,0.0,0.0,0.0,0.0,0.0,0.0,0.0,0.0,0.0,0.0,0.0,0.0,0.0,0.0,0.0,0.0,0.0,0.0,0.0,0.0,0.0,0.0,0.0,0.0,0.0,0.0,0.0,0.0,0.0,0.0,0.0,0.0,0.0,0.0,0.0,0.0,0.0,0.0,0.0,0.0,0.0,0.0,0.0,0.0,0.0,0.0,0.0,0.0,0.0,0.0,0.0,0.0,0.0,0.0,0.0,0.0,0.0,0.0,0.0,0.0,0.0,0.0,0.0,0.0,0.0,0.0,0.0,0.0,0.0,0.0,0.0,0.0,0.0,0.0,0.0,0.0,0.0,0.0,0.0,0.0,0.0,0.0,0.0,0.0,0.0,0.0,0.0,0.0,0.0,0.0,0.0,0.0,0.0,0.0,0.0,0.0,0.0,0.0,0.0,0.0,0.0,0.0,0.0,0.0,0.0,0.0,0.0,0.0,0.0,0.0,0.0,0.0,0.0,0.0,0.0,0.0,0.0,0.0,0.0,0.0,0.0,0.0,0.0,0.0,0.0,0.0,0.0,0.0,0.0,0.0,0.0,0.0,0.0,0.0,0.0,0.0,0.0,0.0,0.0,0.0,0.0,0.0,0.0,0.0,0.0,0.0,0.0,0.0,0.0,0.0,0.0,0.0,0.0,0.0,0.0,0.0,0.0,0.0,0.0,0.0,0.0,0.0,0.0,0.0,0.0,0.0,0.0,0.0,0.0,0.0,0.0,0.0,0.0,0.0,0.0,0.0,0.0,0.0,0.0,0.0,0.0,0.0,0.0,0.0,0.0,0.0,0.0,0.0,0.0,0.0,0.0,0.0,0.0,0.0,0.0,0.0,0.0,0.0,0.0,0.0,0.0,0.0,0.0,0.0,0.0,0.0,0.0,0.0,0.0,0.0,0.0,0.0,0.0,0.0,0.0,0.0,0.0,0.0,0.0,0.0,0.0,0.0,0.0,0.0,0.0,0.0,0.0,0.0,0.0,0.0,0.0,0.0,0.0,0.0,0.0,0.0,0.0,0.0,0.0,0.0,0.0,0.0,0.0,0.0,0.0,0.0,0.0,0.0,0.0,0.0,0.0,0.0,0.0,0.0,0.0,0.0,0.0,0.0,0.0,0.0,0.0,0.0,0.0,0.0,0.0,0.0,0.0,0.0,0.0,0.0,0.0,0.0,0.0,0.0,0.0,0.0,0.0,0.0,0.0,0.0,0.0,0.0,0.0,0.0,0.0,0.0,0.0,0.0,0.0,0.0,0.0,0.0,0.0,0.0,0.0,0.0,0.0,0.0,0.0,0.0,0.0,0.0,0.0,0.0,0.0,0.0,0.0,0.0,0.0,0.0,0.0,0.0,0.0,0.0,0.0,0.0,0.0,0.0,0.0,0.0,0.0,0.0,0.0,0.0,0.0,0.0,0.0,0.0,0.0,0.0,0.0,0.0,0.0,0.0,0.0,0.0,0.0,0.0,0.0,0.0,0.0,0.0,0.0,0.0,0.0,0.0,0.0,0.0,0.0,0.0,0.0,0.0,0.0,0.0,0.0,0.0,0.0,0.0,0.0,0.0,0.0,0.0,0.0,0.0,0.0,0.0,0.0,0.0,0.0,0.0,0.0,0.0,0.0,0.0,0.0,0.0,0.0,0.0,0.0,0.0,0.0,0.0,0.0,0.0,0.0,0.0,0.0,0.0,0.0,0.0,0.0,0.0,0.0,0.0,0.0,0.0,0.0,0.0,0.0,0.0,0.0,0.0,0.0,0.0,0.0,0.0,0.0,0.0,0.0,0.0,0.0,0.0,0.0,0.0,0.0,0.0,0.0,0.0,0.0,0.0,0.0,0.0,0.0,0.0,0.0,0.0,0.0,0.0,0.0,0.0,0.0,0.0,0.0,0.0,0.0,0.0,0.0,0.0,0.0,0.0,0.0,0.0,0.0,0.0,0.0,0.0,0.0,0.0,0.0,0.0,0.0,0.0,0.0,0.0,0.0,0.0,0.0,0.0,0.0,0.0,0.0,0.0,0.0,0.0,0.0,0.0,0.0,0.0,0.0,0.0,0.0,0.0,0.0,0.0,0.0,0.0,0.0,0.0,0.0,0.0,0.0,0.0,0.0,0.0,0.0,0.0,0.0,0.0,0.0,0.0,0.0,0.0,0.0,0.0,0.0,0.0,0.0,0.0,0.0,0.0,0.0,0.0,0.0,0.0,0.0,0.0,0.0,0.0,0.0,0.0,0.0,0.0,0.0,0.0,0.0,0.0,0.0,0.0,0.0,0.0,0.0,0.0,0.0,0.0,0.0,0.0,0.0,0.0,0.0,0.0,0.0,0.0,0.0,0.0,0.0,0.0,0.0,0.0,0.0,0.0,0.0,0.0,0.0,0.0,0.0,0.0,0.0,0.0,0.0,0.0,0.0,0.0,0.0,0.0,0.0,0.0,0.0,0.0,0.0,0.0,0.0,0.0,0.0,0.0,0.0,0.0,0.0,0.0,0.0,0.0,0.0,0.0,0.0,0.0,0.0,0.0,0.0,0.0,0.0,0.0,0.0,0.0,0.0,0.0,0.0,0.0,0.0,0.0,0.0,0.0,0.0,0.0,0.0,0.0,0.0,0.0,0.0,0.0,0.0,0.0,0.0,0.0,0.0,0.0,0.0,0.0,0.0,0.0,0.0,0.0,0.0,0.0,0.0,0.0,0.0,0.0,0.0,0.0,0.0,0.0,0.0,0.0,0.0,0.0,0.0,0.0,0.0,0.0,0.0,0.0,0.0,0.0,0.0,0.0,0.0,0.0,0.0,0.0,0.0,0.0,0.0,0.0,0.0,0.0,0.0,0.0,0.0,0.0,0.0,0.0,0.0,0.0,0.0,0.0,0.0,0.0,0.0,0.0,0.0,0.0,0.0,0.0,0.0,0.0,0.0,0.0,0.0,0.0,0.0,0.0,0.0,0.0,0.0,0.0,0.0,-2.9285,0.0,0.0,0.0,0.0,0.0,0.0,0.0,0.0,0.0,0.0,0.0,0.0,0.0,0.0,0.0,0.0,0.0,0.0,0.0,0.0,0.0,0.0,0.0,0.0,0.0,0.0,0.0,0.0,0.0,0.0,0.0,0.0,0.0,0.0,0.0,0.0,0.0,0.0,0.0,0.0,0.0,0.0,0.0,0.0,0.0,0.0,0.0,0.0,0.0,0.0,0.0,0.0,0.0,0.0,0.0,0.0,0.0,0.0,0.0,0.0,0.0,0.0,0.0,0.0,0.0,0.0,0.0,0.0,0.0,0.0,0.0,0.0,0.0,0.0,0.0,0.0,0.0,0.0,0.0,0.0,0.0,0.0,0.0,0.0,0.0,0.0,0.0,0.0,0.0,0.0,0.0,0.0,0.0,0.0,0.0,0.0,0.0,0.0,0.0,0.0,0.0,0.0,0.0,0.0,0.0,0.0,0.0,0.0,0.0,0.0,0.0,0.0,0.0,0.0,0.0,0.0,-3.0631,0.0,0.0,0.0,0.0,0.0,0.0,0.0,0.0,0.0,0.0,0.0,0.0,0.0,0.0,0.0,0.0,0.0,0.0,0.0,0.0,0.0,0.0,0.0,0.0,0.0,0.0,0.0,0.0,0.0,0.0,0.0,0.0,0.0,0.0,0.0,0.0,0.0,0.0,0.0,0.0,0.0,0.0,0.0,0.0,0.0,0.0,0.0,0.0,0.0,0.0,0.0,0.0,0.0,0.0,0.0,0.0,0.0,0.0,0.0,0.0,0.0,0.0,0.0,0.0,0.0,0.0,0.0,0.0,0.0,0.0,0.0,0.0,0.0,0.0,0.0,0.0,0.0,0.0,0.0,0.0,0.0,0.0,0.0,0.0,0.0,0.0,0.0,0.0,0.0,0.0,0.0,0.0,0.0,0.0,0.0,0.0,0.0,0.0,0.0,0.0,0.0,0.0,0.0,0.0,0.0,0.0,0.0,0.0,-3.3995,-3.5271,-3.583,-3.5968,-3.5791,-3.5472,-3.3995,-3.3136,-3.264,-3.2049,0.0,0.0,0.0,0.0,0.0,0.0,0.0,0.0,0.0,0.0,0.0,0.0,0.0,0.0,0.0,0.0,0.0,0.0,0.0,0.0,0.0,0.0,0.0,0.0,0.0,0.0,0.0,0.0,0.0,0.0,0.0,0.0,0.0,0.0,0.0,0.0,0.0,0.0,0.0,0.0,0.0,0.0,0.0,0.0,0.0,0.0,0.0,0.0,0.0,0.0,0.0,0.0,0.0,0.0,0.0,0.0,0.0,0.0,0.0,0.0,0.0,0.0,0.0,0.0,0.0,0.0,0.0,0.0,0.0,0.0,0.0,0.0,0.0,0.0,0.0,0.0,0.0,0.0,0.0,0.0,0.0,0.0,0.0,0.0,0.0,0.0,-2.1068,-2.3381,0.0,0.0,0.0,0.0,0.0,0.0,0.0,0.0,0.0,0.0,0.0,0.0,0.0,-3.1262,-3.0588,-3.2782,-3.3593,-3.3202,-3.5792,-3.7086,-3.7246,-3.7732,-3.7776,-3.7555,-3.6597,0.0,-3.3369,-3.3283,0.0,0.0,0.0,0.0,0.0,0.0,0.0,0.0,0.0,0.0,0.0,0.0,0.0,0.0,0.0,0.0,0.0,0.0,0.0,0.0,0.0,0.0,0.0,0.0,0.0,0.0,0.0,0.0,0.0,0.0,0.0,0.0,0.0,0.0,0.0,0.0,0.0,0.0,0.0,0.0,0.0,0.0,0.0,0.0,0.0,0.0,0.0,0.0,0.0,0.0,0.0,0.0,0.0,0.0,0.0,0.0,0.0,0.0,0.0,0.0,0.0,0.0,0.0,0.0,0.0,0.0,0.0,0.0,0.0,0.0,0.0,0.0,0.0,0.0,0.0,0.0,0.0,0.0,0.0,0.0,0.0,0.0,0.0,0.0,0.0,-2.117,-2.391,-2.4198,-2.609,-2.7187,0.0,0.0,0.0,0.0,0.0,0.0,0.0,0.0,0.0,-3.2231,-3.2506,-3.2707,-3.2835,-3.4522,-3.5554,-3.6084,-3.7797,-3.8757,-3.8999,-3.884,-3.8956,-3.91,-3.8182,-3.6985,-3.56,-3.4494,-3.3632,-3.2928,0.0,0.0,0.0,0.0,-3.1113,-3.0387,0.0,0.0,0.0,0.0,0.0,0.0,0.0,0.0,0.0,0.0,0.0,0.0,0.0,0.0,0.0,0.0,0.0,0.0,0.0,0.0,0.0,0.0,0.0,0.0,0.0,0.0,0.0,0.0,0.0,0.0,0.0,0.0,0.0,0.0,0.0,0.0,0.0,0.0,0.0,0.0,0.0,0.0,0.0,0.0,0.0,0.0,0.0,0.0,0.0,0.0,0.0,0.0,0.0,0.0,0.0,0.0,0.0,0.0,0.0,0.0,0.0,0.0,0.0,0.0,0.0,0.0,0.0,0.0,0.0,0.0,0.0,0.0,0.0,0.0,0.0,0.0,0.0,-2.3447,-2.5877,-2.5178,-2.7738,-2.9013,0.0,0.0,0.0,0.0,0.0,0.0,-3.2486,-3.2342,-3.2779,-3.3851,-3.4205,-3.4455,-3.4678,-3.5983,-3.7099,-3.8045,-3.9137,-3.9772,-4.0106,-3.9657,-3.9473,-3.9637,-3.8801,-3.7916,-3.6977,-3.5594,-3.4707,-3.4129,-3.3476,-3.2989,-3.2674,-3.2674,-3.2486,-3.2022,0.0,0.0,0.0,0.0,0.0,0.0,0.0,0.0,0.0,0.0,0.0,0.0,0.0,0.0,0.0,0.0,0.0,0.0,0.0,0.0,0.0,0.0,0.0,0.0,0.0,0.0,0.0,0.0,0.0,0.0,0.0,0.0,0.0,0.0,0.0,0.0,0.0,0.0,0.0,0.0,0.0,0.0,0.0,0.0,0.0,0.0,0.0,0.0,0.0,0.0,0.0,0.0,0.0,0.0,0.0,0.0,0.0,0.0,0.0,0.0,0.0,0.0,0.0,0.0,0.0,0.0,0.0,0.0,0.0,0.0,0.0,0.0,0.0,0.0,0.0,0.0,0.0,0.0,0.0,-2.6871,-2.9512,0.0,0.0,0.0,0.0,-3.1156,-3.1459,-3.2441,-3.4209,-3.5482,-3.5921,-3.5573,-3.7048,-3.7139,-3.5654,-3.707,-3.7875,-3.7919,-3.9334,-3.998,-3.9996,-3.9965,-3.9546,-3.8717,-3.8054,-3.7173,-3.6305,-3.635,-3.5559,-3.4129,-3.3476,-3.2989,-3.2674,-3.2674,-3.2241,-3.1419,0.0,0.0,0.0,0.0,0.0,0.0,0.0,0.0,0.0,0.0,0.0,0.0,0.0,0.0,0.0,0.0,0.0,0.0,0.0,0.0,0.0,0.0,0.0,0.0,0.0,0.0,0.0,0.0,0.0,0.0,0.0,0.0,0.0,0.0,0.0,0.0,0.0,0.0,0.0,0.0,0.0,0.0,0.0,0.0,0.0,0.0,0.0,0.0,0.0,0.0,0.0,0.0,0.0,0.0,0.0,0.0,0.0,0.0,0.0,0.0,0.0,0.0,0.0,0.0,0.0,0.0,0.0,0.0,0.0,0.0,0.0,0.0,0.0,0.0,0.0,0.0,0.0,0.0,0.0,-2.8375,-3.088,0.0,-3.0671,-3.1548,-3.2414,-3.2896,-3.3096,-3.3922,-3.5707,-3.6267,-3.6684,-3.7049,-3.7437,-3.7751,-3.7886,-3.8261,-3.8844,-3.9713,-3.9892,-4.0152,-4.0474,-4.0035,-3.9405,-3.8687,-3.8292,-3.7449,-3.6193,-3.6261,-3.5607,-3.4515,-3.428,-3.3995,-3.3783,-3.3783,-3.3912,-3.3782,0.0,0.0,0.0,0.0,0.0,0.0,0.0,0.0,0.0,0.0,0.0,0.0,0.0,0.0,0.0,0.0,0.0,0.0,0.0,0.0,0.0,0.0,0.0,0.0,0.0,0.0,0.0,0.0,0.0,0.0,0.0,0.0,0.0,0.0,0.0,0.0,0.0,0.0,0.0,0.0,0.0,0.0,-1.0821,0.0,0.0,0.0,0.0,0.0,0.0,0.0,0.0,0.0,0.0,0.0,0.0,0.0,0.0,0.0,0.0,0.0,0.0,0.0,0.0,0.0,0.0,0.0,0.0,0.0,0.0,0.0,0.0,0.0,0.0,0.0,0.0,0.0,0.0,0.0,-2.963,-2.9217,-3.199,-3.3506,-3.2278,-3.3252,-3.4216,-3.4787,-3.4841,-3.5533,-3.7121,-3.7523,-3.7841,-3.8319,-3.8158,-3.8459,-3.9159,-3.8693,-3.9102,-4.0293,-3.9956,-3.9817,-3.9911,-3.9474,-3.8797,-3.797,-3.7749,-3.6915,-3.5785,-3.5718,-3.528,-3.4631,-3.4698,-3.4563,-3.4346,-3.4113,-3.4235,-3.4285,0.0,0.0,0.0,0.0,0.0,0.0,0.0,0.0,0.0,0.0,0.0,0.0,0.0,0.0,0.0,0.0,0.0,0.0,0.0,0.0,0.0,0.0,0.0,0.0,0.0,0.0,0.0,0.0,0.0,0.0,0.0,0.0,0.0,0.0,0.0,0.0,0.0,0.0,0.0,0.0,0.0,0.0,-1.1977,0.0,0.0,0.0,0.0,0.0,0.0,0.0,0.0,0.0,0.0,0.0,0.0,0.0,0.0,0.0,0.0,0.0,0.0,0.0,0.0,0.0,0.0,0.0,0.0,0.0,0.0,0.0,0.0,0.0,0.0,0.0,0.0,0.0,-2.4641,-2.7822,-2.9985,-2.9419,-3.2933,-3.4986,-3.3865,-3.5519,-3.6619,-3.6659,-3.6659,-3.7175,-3.8383,-3.9227,-3.9522,-3.927,-3.9326,-3.9367,-3.9344,-3.8479,-3.8496,-3.9361,-3.9416,-3.9065,-3.8422,-3.8407,-3.7704,-3.6507,-3.6276,-3.5674,-3.4868,-3.475,-3.4563,-3.4414,-3.4631,-3.4563,-3.4264,-3.352,-3.3003,-3.2577,0.0,0.0,0.0,0.0,0.0,0.0,0.0,0.0,0.0,0.0,0.0,0.0,0.0,0.0,0.0,0.0,0.0,0.0,0.0,0.0,0.0,0.0,0.0,0.0,0.0,0.0,0.0,0.0,0.0,0.0,0.0,0.0,0.0,0.0,0.0,0.0,0.0,0.0,0.0,0.0,0.0,0.0,-1.1877,0.0,0.0,0.0,0.0,0.0,0.0,0.0,0.0,0.0,0.0,0.0,0.0,0.0,0.0,0.0,0.0,0.0,0.0,0.0,0.0,0.0,0.0,0.0,0.0,0.0,0.0,0.0,0.0,0.0,0.0,0.0,0.0,-2.5602,-2.6438,-2.8952,-3.0772,-3.104,-3.3195,-3.4763,-3.496,-3.5978,-3.6958,-3.7853,-3.7921,-3.8247,-3.902,-3.8888,-3.8679,-3.863,-3.8071,-3.78,-3.782,-3.8025,-3.8267,-3.8539,-3.912,-3.932,-3.9125,-3.8616,-3.7874,-3.6945,-3.6469,-3.5621,-3.475,-3.4698,-3.4563,-3.4414,-3.4481,-3.4481,-3.4264,-3.352,-3.2277,-3.0895,0.0,0.0,0.0,0.0,0.0,0.0,0.0,0.0,0.0,0.0,0.0,0.0,0.0,0.0,0.0,0.0,0.0,0.0,0.0,0.0,0.0,0.0,0.0,0.0,0.0,0.0,0.0,0.0,0.0,0.0,0.0,0.0,0.0,0.0,0.0,0.0,0.0,0.0,0.0,0.0,0.0,0.0,-1.2095,-1.135,-1.0948,-1.0683,-1.0423,-1.0429,-1.0484,-0.9964,0.0,0.0,0.0,0.0,0.0,0.0,0.0,0.0,0.0,0.0,0.0,0.0,0.0,0.0,0.0,0.0,0.0,0.0,0.0,0.0,0.0,0.0,0.0,0.0,-2.4984,-2.6421,-2.7572,-2.9773,-3.1312,-3.1625,-3.3083,-3.4439,-3.5223,-3.6337,-3.7316,-3.8269,-3.8614,-3.883,-3.8925,-3.86,-3.8259,-3.7937,-3.7121,-3.6811,-3.7049,-3.7116,-3.7444,-3.8202,-3.837,-3.854,-3.8571,-3.8153,-3.7411,0.0,-3.617,-3.5554,-3.4698,-3.4631,-3.4481,0.0,0.0,0.0,0.0,0.0,-3.1315,-2.9639,0.0,0.0,0.0,0.0,0.0,0.0,0.0,0.0,0.0,0.0,0.0,0.0,0.0,0.0,0.0,0.0,0.0,0.0,0.0,0.0,0.0,0.0,0.0,0.0,0.0,0.0,0.0,0.0,0.0,0.0,0.0,0.0,0.0,0.0,0.0,0.0,0.0,0.0,0.0,0.0,0.0,0.0,-1.2305,-1.152,-1.1039,-1.0779,-1.0514,-1.0435,-1.0447,-1.0357,0.0,0.0,0.0,0.0,0.0,0.0,0.0,0.0,0.0,0.0,0.0,0.0,0.0,0.0,0.0,0.0,0.0,0.0,0.0,0.0,0.0,0.0,0.0,0.0,-2.5145,-2.6997,-2.8285,-3.0322,-3.1632,-3.1584,-3.2742,-3.4018,-3.5052,-3.6483,-3.758,-3.816,-3.8792,-3.8979,-3.845,0.0,0.0,0.0,0.0,-3.6143,-3.6582,-3.6042,-3.6452,-3.7872,-3.7445,-3.7186,-3.7218,-3.7228,-3.6461,-3.5149,-3.5569,-3.5263,-3.4549,-3.4414,-3.4346,-3.4346,-3.4264,-3.4128,-3.3825,-3.1974,-3.0279,-2.8803,0.0,0.0,0.0,0.0,0.0,0.0,0.0,0.0,0.0,0.0,0.0,0.0,0.0,0.0,0.0,0.0,0.0,0.0,0.0,0.0,0.0,0.0,0.0,0.0,0.0,0.0,0.0,0.0,0.0,0.0,0.0,0.0,0.0,0.0,0.0,0.0,0.0,0.0,0.0,0.0,0.0,0.0,-1.1994,-1.1787,-1.1606,-1.1335,-1.1057,-1.1105,-1.1202,-1.055,-1.0761,-1.1178,-1.0478,0.0,0.0,0.0,0.0,0.0,0.0,0.0,0.0,0.0,0.0,0.0,0.0,0.0,0.0,0.0,0.0,0.0,0.0,0.0,0.0,-2.4773,-2.6544,-2.8127,-2.9625,-3.0594,-3.1134,-3.1085,-3.2475,-3.3779,-3.4516,-3.6071,-3.7297,-3.816,-3.8327,-3.8371,-3.8423,-3.7317,-3.6599,-3.6286,-3.5415,-3.5014,-3.4868,-3.5426,-3.583,-3.6215,0.0,0.0,-3.6113,-3.6187,-3.561,-3.4665,-3.4816,-3.4365,-3.352,-3.4113,-3.4196,-3.3839,-3.3381,-3.2662,-3.1723,-3.0657,-2.9691,-2.8803,0.0,0.0,0.0,0.0,0.0,0.0,0.0,0.0,0.0,0.0,0.0,0.0,0.0,0.0,0.0,0.0,0.0,0.0,0.0,0.0,0.0,0.0,0.0,0.0,0.0,0.0,0.0,0.0,0.0,0.0,0.0,0.0,0.0,0.0,0.0,0.0,0.0,0.0,0.0,0.0,0.0,0.0,-1.1516,-1.1516,-1.1437,-1.1304,-1.1166,-1.1202,-1.1262,-1.0858,-1.1081,-1.1437,-1.0894,-1.0955,-1.131,0.0,0.0,0.0,0.0,0.0,0.0,0.0,0.0,0.0,0.0,0.0,0.0,0.0,0.0,-1.9568,0.0,0.0,-2.2803,-2.4392,-2.6053,-2.7514,-2.8204,-2.9491,-3.0411,-3.0883,-3.1938,-3.2829,-3.3361,-3.4798,-3.5881,-3.6252,-3.6365,-3.6582,-3.6844,-3.5976,-3.531,-3.4934,-3.4839,-3.4541,-3.3992,-3.4735,-3.5264,-3.5655,-3.5347,-3.5203,-3.5292,-3.4944,-3.4239,-3.3435,-3.3818,-3.3508,-3.272,-3.3325,-3.303,-3.229,-3.1988,-3.1563,-3.0983,-3.0291,-2.9394,-2.8657,0.0,0.0,0.0,0.0,0.0,0.0,0.0,0.0,0.0,0.0,0.0,0.0,0.0,0.0,0.0,0.0,0.0,0.0,0.0,0.0,0.0,0.0,0.0,0.0,0.0,0.0,0.0,0.0,0.0,0.0,0.0,0.0,0.0,0.0,0.0,0.0,0.0,0.0,0.0,0.0,0.0,0.0,-1.0657,-1.0599,-1.0804,-1.1033,-1.0979,-1.096,-1.096,-1.096,-1.1141,-1.1335,-1.1105,-1.1069,-1.1156,-1.152,-1.1628,0.0,0.0,0.0,0.0,0.0,0.0,0.0,0.0,0.0,-1.7324,-1.9149,-2.0173,-2.1006,-2.1813,-2.2758,-2.3523,-2.3841,-2.5283,-2.6516,-2.6707,-2.8025,-2.9386,-3.0209,-3.119,-3.1798,-3.2207,-3.3445,-3.4135,-3.412,-3.4255,-3.4495,-3.4762,-3.4422,-3.3992,-3.3511,-3.4094,-3.412,-3.3417,-3.3849,-3.4455,-3.5076,-3.3978,-3.3675,-3.4114,-3.3641,-3.2932,-3.206,-3.2608,-3.2554,-3.2087,-3.2101,-3.1649,-3.0895,-3.067,-3.0594,-3.0519,-2.9909,-2.9172,-2.851,0.0,0.0,0.0,0.0,0.0,0.0,0.0,0.0,0.0,0.0,0.0,0.0,0.0,0.0,0.0,0.0,0.0,0.0,0.0,0.0,0.0,0.0,0.0,0.0,0.0,0.0,0.0,0.0,0.0,0.0,0.0,0.0,0.0,0.0,0.0,0.0,0.0,0.0,0.0,0.0,0.0,0.0,-0.8983,-0.9,-0.9728,-1.0731,-1.0496,-1.0417,-1.0417,-1.0417,-1.0592,-1.0803,-1.0773,-1.0924,-1.1156,-1.152,0.0,-1.1425,-1.1728,-1.1823,-1.2424,-1.4608,-1.4213,-1.4434,0.0,0.0,-1.8549,-2.0501,-2.1209,-2.1575,-2.1713,-2.2941,-2.4258,-2.4953,-2.5601,-2.6444,-2.7656,-2.7554,-2.7575,-2.833,-3.0342,-3.1585,-3.1182,-3.2582,-3.3327,-3.3086,-3.3077,-3.2913,-3.2723,-3.2701,-3.2504,-3.2043,-3.259,-3.2855,-3.279,-3.2855,-3.2961,-3.304,-3.3193,-3.2668,-3.1604,-3.2567,-3.2312,-3.1044,-3.111,-3.1394,-3.1723,-3.0696,-3.0545,-3.082,-2.9935,-2.9561,-2.9484,-2.8882,-2.859,-2.851,0.0,0.0,0.0,0.0,0.0,0.0,0.0,0.0,0.0,0.0,0.0,0.0,0.0,0.0,0.0,0.0,0.0,0.0,0.0,0.0,0.0,0.0,0.0,0.0,0.0,0.0,0.0,0.0,0.0,0.0,0.0,0.0,0.0,0.0,0.0,0.0,0.0,0.0,0.0,0.0,0.0,0.0,-0.8827,-0.8684,-0.8964,-0.9553,-0.9869,-1.0113,0.0,0.0,-1.0572,-1.0719,-1.0719,-1.0652,-1.0597,-1.0785,-1.0942,0.0,-1.1945,-1.2362,-1.2926,0.0,-1.4508,-1.5341,-1.8051,-1.8438,-1.8829,-2.1002,-2.1527,-2.1798,-2.2309,-2.2908,-2.3505,0.0,-2.4477,-2.506,-2.5614,-2.6246,-2.6716,-2.706,-2.8804,-2.9933,-2.9704,-3.057,-3.0962,-3.0514,-3.0181,-3.0183,-3.0699,-3.0458,-3.0349,-3.0331,-3.0941,-3.1291,-3.1481,-3.1775,-3.2182,-3.2685,-3.2277,-3.1742,-3.1201,-3.1111,-3.0804,-3.0279,-3.0088,-3.0075,-3.0241,-2.9947,-2.9716,-2.9484,-2.9419,-2.9197,-2.8816,-2.859,-2.851,-2.851,0.0,0.0,0.0,0.0,0.0,0.0,0.0,0.0,0.0,0.0,0.0,0.0,0.0,0.0,0.0,0.0,0.0,0.0,0.0,0.0,0.0,0.0,0.0,0.0,0.0,0.0,0.0,0.0,0.0,0.0,0.0,0.0,0.0,0.0,0.0,0.0,0.0,0.0,0.0,0.0,0.0,0.0,-0.8294,-0.8152,-0.8154,-0.8339,-0.9028,-0.9417,0.0,0.0,-0.9949,-1.0119,-1.019,-1.0078,-0.9978,-1.0134,-1.0517,-1.1093,-1.1817,0.0,0.0,-1.3789,-1.4561,-1.5712,-1.7312,-1.7953,-1.883,-2.0753,-2.1304,-2.1587,-2.2254,-2.2308,-2.2496,-2.2777,-2.315,-2.3604,-2.4147,-2.5128,-2.5847,-2.6036,-2.75,-2.8382,-2.8255,-2.8889,-2.9068,-2.8444,-2.803,-2.8066,-2.8688,-2.8556,-2.8568,-2.8726,-2.9388,-2.9821,-3.0002,-3.0363,-3.0884,-3.1468,-3.1067,-3.0719,-3.0555,-3.0045,-2.9792,-2.9702,-2.9509,-2.9188,-2.8831,-2.9105,-2.8885,-2.8282,-2.8582,-2.8541,-2.827,-2.8126,-2.8258,-2.8486,0.0,0.0,0.0,0.0,0.0,0.0,0.0,0.0,0.0,0.0,0.0,0.0,0.0,0.0,0.0,0.0,0.0,0.0,0.0,0.0,0.0,0.0,0.0,0.0,0.0,0.0,0.0,0.0,0.0,0.0,0.0,0.0,0.0,0.0,0.0,0.0,0.0,0.0,0.0,0.0,0.0,0.0,-0.6708,-0.6845,-0.7064,-0.7346,-0.7885,0.0,0.0,0.0,-0.8122,-0.8625,-0.8853,-0.9198,0.0,-0.9795,-1.0438,0.0,0.0,0.0,-1.3543,-1.4605,-1.4727,-1.5088,-1.7272,-1.8055,-1.8504,-1.9617,-2.0458,-2.0941,-2.095,-2.095,-2.1415,-2.2602,-2.2162,-2.2337,-2.4217,-2.4484,-2.4849,-2.5585,-2.6614,-2.7173,0.0,-2.7938,-2.8455,-2.7403,-2.7337,-2.714,-2.6671,-2.7471,-2.7736,-2.7301,-2.8075,-2.8462,-2.845,-2.8462,-2.8383,-2.8223,-2.9394,-2.9542,-2.8907,-2.9546,-2.9689,-2.9419,-2.9419,-2.8889,-2.8025,-2.8025,-2.796,-2.7693,-2.7176,-2.7296,-2.7681,-2.7176,-2.7633,-2.8438,0.0,0.0,0.0,0.0,0.0,0.0,0.0,0.0,0.0,0.0,0.0,0.0,0.0,0.0,0.0,0.0,0.0,0.0,0.0,0.0,0.0,0.0,0.0,0.0,0.0,0.0,0.0,0.0,0.0,0.0,0.0,0.0,0.0,0.0,0.0,0.0,0.0,0.0,0.0,0.0,0.0,0.0,-0.7064,-0.6807,-0.6754,-0.6869,0.0,0.0,0.0,0.0,0.0,0.0,-0.779,0.0,0.0,-0.8991,-0.9787,-1.0571,-1.1215,0.0,-1.3851,-1.4496,-1.4744,-1.5281,-1.6863,-1.6858,-1.7095,-1.8629,-1.897,-1.9104,-1.9739,-2.0,-2.0351,-2.07,-2.1042,-2.1464,-2.2085,-2.3127,-2.393,-2.4334,-2.5947,0.0,0.0,0.0,0.0,-2.642,-2.6376,-2.631,-2.6147,-2.6389,-2.6468,-2.6302,-2.661,-2.701,-2.7568,-2.7568,-2.7799,-2.8096,-2.879,-2.8631,-2.7718,-2.9131,-2.9378,-2.8542,-2.9028,-2.8733,-2.8001,-2.7859,-2.7589,-2.7176,-2.7007,-2.7043,-2.7176,-2.6995,-2.7164,-2.744,0.0,0.0,0.0,0.0,0.0,0.0,0.0,0.0,0.0,0.0,0.0,0.0,0.0,0.0,0.0,0.0,0.0,0.0,0.0,0.0,0.0,0.0,0.0,0.0,0.0,0.0,0.0,0.0,0.0,0.0,0.0,0.0,0.0,0.0,0.0,0.0,0.0,0.0,0.0,0.0,0.0,0.0,-0.6346,-0.6085,-0.5888,0.0,0.0,0.0,0.0,0.0,0.0,0.0,0.0,-0.7181,-0.7625,-0.8342,-0.9119,-1.0074,-1.1415,-1.2688,-1.3873,-1.4635,-1.5008,-1.5371,-1.6006,-1.5846,-1.591,-1.681,-1.7011,-1.7204,-1.7954,-1.8356,-1.8829,-1.9478,-2.0,-2.0642,-2.1329,-2.2485,-2.3435,-2.4048,-2.5594,-2.6691,0.0,0.0,0.0,-2.6452,-2.6256,-2.6157,-2.6157,-2.5994,-2.5895,-2.5895,-2.5895,-2.6135,-2.661,-2.6622,-2.6928,-2.7452,-2.7637,-2.7476,-2.7151,-2.8303,-2.8383,-2.7545,-2.81,-2.7897,-2.715,-2.7136,-2.6947,-2.661,-2.6418,-2.6232,-2.6139,-2.595,-2.5624,-2.5359,0.0,0.0,0.0,0.0,0.0,0.0,0.0,0.0,0.0,0.0,0.0,0.0,0.0,0.0,0.0,0.0,0.0,0.0,0.0,0.0,0.0,0.0,0.0,-0.3063,-0.3118,-0.2956,-0.2961,0.0,0.0,0.0,0.0,0.0,0.0,0.0,0.0,0.0,0.0,0.0,0.0,0.0,0.0,0.0,-0.4543,-0.4686,0.0,0.0,0.0,0.0,0.0,0.0,0.0,0.0,0.0,-0.6959,-0.7588,-0.8008,-0.8627,-0.9577,-1.1294,-1.2502,-1.3662,-1.4989,-1.5424,-1.5272,-1.4801,-1.4989,-1.5086,-1.4327,-1.4795,-1.5369,0.0,0.0,-1.6978,-1.876,-1.9179,-1.9887,-2.1889,-2.2485,-2.3242,0.0,0.0,0.0,0.0,0.0,0.0,-2.7268,0.0,-2.666,-2.6627,-2.619,-2.5928,-2.5906,-2.5895,-2.5812,-2.5559,-2.5559,-2.5801,-2.6113,-2.5913,-2.6235,-2.6987,-2.7069,-2.6812,-2.6449,-2.6771,-2.6364,-2.5558,-2.5867,-2.6008,-2.5925,-2.5433,-2.5073,-2.4728,-2.4185,-2.325,-2.2468,0.0,0.0,0.0,0.0,0.0,0.0,0.0,0.0,0.0,0.0,0.0,0.0,0.0,0.0,0.0,0.0,0.0,0.0,0.0,0.0,0.0,0.0,0.0,0.0,-0.3063,-0.3065,0.0,0.0,0.0,0.0,0.0,0.0,0.0,0.0,0.0,0.0,0.0,0.0,0.0,0.0,0.0,0.0,-0.4884,0.0,0.0,0.0,0.0,0.0,0.0,0.0,0.0,0.0,0.0,-0.7308,-0.7883,-0.8379,-0.917,-0.995,-1.0435,-1.1903,-1.3336,-1.3839,-1.4483,-1.481,-1.444,-1.4216,-1.3994,-1.3873,-1.3904,-1.4062,0.0,0.0,0.0,-1.7052,-1.8707,0.0,-2.0611,-2.1527,0.0,-2.3429,0.0,-2.5208,-2.5936,-2.6479,0.0,0.0,-2.6971,-2.6988,-2.6649,-2.6507,-2.6193,-2.5654,-2.5654,-2.5559,-2.5285,-2.5126,-2.5115,-2.5285,-2.5589,-2.5589,-2.5189,-2.6329,-2.6412,-2.5568,-2.5795,-2.5464,-2.477,-2.5096,-2.4659,-2.3864,-2.425,-2.3815,-2.2939,-2.2817,-2.2391,-2.1815,0.0,0.0,0.0,0.0,0.0,0.0,0.0,0.0,0.0,0.0,0.0,0.0,0.0,0.0,0.0,0.0,0.0,0.0,0.0,0.0,0.0,0.0,0.0,0.0,0.0,0.0,0.0,0.0,0.0,0.0,0.0,0.0,0.0,0.0,0.0,0.0,0.0,0.0,0.0,0.0,0.0,0.0,0.0,0.0,0.0,0.0,0.0,0.0,0.0,0.0,0.0,-0.6328,-0.7141,-0.7626,-0.7919,-0.872,0.0,-0.9675,-1.0281,-1.1436,-1.2564,-1.3193,-1.3839,-1.4235,-1.3839,-1.3358,-1.2887,-1.2632,-1.2472,0.0,-1.285,0.0,0.0,0.0,0.0,0.0,-2.0531,-2.1264,-2.195,0.0,-2.3485,0.0,-2.4765,-2.5509,-2.5791,0.0,-2.6054,-2.6199,-2.5946,-2.5371,-2.5123,-2.5126,-2.4946,-2.485,-2.5031,-2.4413,-2.4337,-2.47,-2.5105,-2.4925,-2.426,-2.5262,-2.5039,-2.4075,0.0,-2.4212,-2.3513,-2.3938,-2.3635,-2.301,-2.3218,-2.2672,-2.1771,-2.1568,-2.0981,-2.0271,0.0,0.0,0.0,0.0,0.0,0.0,0.0,0.0,0.0,0.0,0.0,0.0,0.0,0.0,0.0,0.0,0.0,0.0,0.0,0.0,0.0,0.0,0.0,0.0,0.0,0.0,0.0,0.0,0.0,0.0,0.0,0.0,0.0,0.0,0.0,0.0,0.0,0.0,0.0,0.0,0.0,0.0,0.0,0.0,0.0,0.0,0.0,0.0,0.0,0.0,-0.6123,-0.6469,-0.7652,-0.7955,-0.7998,-0.9,-0.9195,-0.9158,-1.0149,-1.0875,-1.1641,-1.2604,-1.3411,-1.3733,-1.3132,-1.2624,-1.2041,-1.1268,0.0,-1.115,-1.1461,-1.2756,-1.4396,-1.6106,0.0,-1.8986,-2.0923,-2.1202,-2.1489,-2.2349,-2.2707,-2.3073,-2.3529,-2.4281,-2.4452,-2.4068,-2.4355,-2.4653,-2.4836,-2.3762,-2.3503,-2.4145,-2.3714,-2.38,-2.4509,-2.3454,-2.328,-2.41,-2.41,-2.3951,-2.3627,-2.3907,-2.3483,-2.2613,-2.3022,0.0,-2.2364,-2.2735,-2.2809,-2.2616,-2.2342,-2.1668,-2.0792,-2.0483,-1.9596,-1.8613,0.0,0.0,0.0,0.0,0.0,0.0,0.0,0.0,0.0,0.0,0.0,0.0,0.0,0.0,0.0,0.0,0.0,0.0,0.0,0.0,0.0,0.0,0.0,0.0,0.0,0.0,0.0,0.0,0.0,0.0,0.0,0.0,0.0,0.0,0.0,0.0,0.0,0.0,0.0,0.0,0.0,0.0,0.0,0.0,0.0,0.0,0.0,0.0,0.0,0.0,-0.6742,-0.7172,-0.7962,-0.8508,-0.8935,-0.9446,-0.942,-0.917,-0.8947,-0.9984,-1.1105,-1.1227,-1.2398,-1.341,-1.2638,-1.218,0.0,0.0,-1.0936,-1.084,-1.1163,-1.2293,-1.3707,-1.5051,0.0,0.0,0.0,0.0,-2.118,0.0,0.0,0.0,0.0,0.0,0.0,0.0,0.0,-2.2208,-2.3367,-2.3611,-2.3289,-2.2482,-2.2217,-2.2138,-2.2217,-2.205,-2.205,-2.2227,-2.2227,-2.2273,-2.2395,-2.265,-2.2765,-2.2814,-2.2363,0.0,-2.2026,-2.1963,-2.1614,-2.1088,-2.1673,-2.0964,-1.9604,-1.9525,-1.8931,-1.8135,0.0,0.0,0.0,0.0,0.0,0.0,0.0,0.0,0.0,0.0,-0.3892,-0.4156,0.0,0.0,0.0,0.0,0.0,0.0,0.0,0.0,0.0,0.0,0.0,0.0,0.0,0.0,0.0,0.0,0.0,0.0,0.0,0.0,0.0,0.0,0.0,0.0,0.0,0.0,0.0,0.0,0.0,0.0,0.0,0.0,0.0,0.0,0.0,0.0,0.0,0.0,-0.6799,-0.7208,-0.8325,-0.8976,-0.9304,-0.9569,-0.9566,-0.9335,-0.8619,-0.928,-1.013,-1.0605,-1.1573,-1.2273,-1.1927,0.0,0.0,0.0,-1.0462,-1.0527,-1.0572,0.0,0.0,0.0,0.0,0.0,0.0,0.0,0.0,0.0,0.0,0.0,0.0,0.0,0.0,0.0,0.0,-2.1203,-2.1915,-2.218,-2.1977,-2.115,-2.106,-2.1248,-2.1695,-2.1248,-2.1248,-2.1695,-2.1587,-2.1346,-2.1042,-2.1839,-2.1826,-2.1178,-2.1685,0.0,-2.1242,-2.1191,-2.0944,-2.0615,-2.0761,-2.0198,-1.9258,-1.9033,-1.8555,-1.794,0.0,0.0,0.0,0.0,0.0,0.0,0.0,-0.3556,-0.3692,-0.3758,-0.409,-0.422,-0.3956,-0.4228,0.0,0.0,0.0,0.0,0.0,0.0,0.0,0.0,0.0,0.0,0.0,0.0,0.0,0.0,0.0,0.0,0.0,0.0,0.0,0.0,0.0,0.0,0.0,0.0,0.0,0.0,0.0,0.0,0.0,0.0,0.0,0.0,0.0,0.0,0.0,0.0,-0.6539,-0.6997,-0.8356,-0.903,-0.9304,-0.9383,-0.9535,-0.94,-0.854,-0.8771,-0.9367,-1.0187,-1.088,-1.1297,-1.1402,-1.1241,0.0,0.0,-0.9956,-1.0143,-1.0036,0.0,-1.2229,0.0,0.0,0.0,0.0,0.0,0.0,0.0,0.0,0.0,0.0,0.0,0.0,0.0,0.0,0.0,-2.0627,-2.052,-2.0357,-1.9985,-1.9985,-2.0348,-2.1069,-2.0257,-2.0257,-2.0979,-2.0694,-2.0193,-1.9648,-2.07,-2.0516,-1.9448,-2.0847,0.0,0.0,-2.0528,-2.0566,-2.0527,-2.0185,-1.9795,-1.9365,-1.8936,-1.8564,-1.8133,0.0,0.0,0.0,0.0,0.0,0.0,0.0,-0.3226,-0.336,-0.3758,-0.409,-0.4287,-0.4287,-0.4688,0.0,0.0,0.0,0.0,0.0,0.0,0.0,0.0,0.0,0.0,0.0,0.0,0.0,0.0,0.0,0.0,0.0,0.0,0.0,0.0,0.0,0.0,0.0,0.0,0.0,0.0,0.0,0.0,0.0,0.0,0.0,0.0,0.0,0.0,0.0,0.0,0.0,-0.6449,-0.735,-0.8243,-0.8832,-0.8983,0.0,0.0,-0.8332,-0.8682,-0.9367,-1.0103,-1.0793,-1.1253,-1.1177,0.0,0.0,-0.9854,-0.9603,-0.961,-0.9841,-1.0374,-1.093,0.0,0.0,-1.4416,0.0,0.0,0.0,0.0,0.0,0.0,0.0,0.0,0.0,0.0,0.0,0.0,-1.9696,-1.9296,-1.9012,-1.892,-1.892,-1.9012,-1.9096,-1.8835,-1.8751,-1.8751,-1.8222,-1.8039,-1.8197,-1.8436,-1.8633,-1.875,-1.9661,0.0,0.0,-2.0399,-2.0566,-2.0634,-2.0518,-2.0244,-1.9805,-1.9385,-1.9209,-1.9039,0.0,0.0,0.0,0.0,0.0,0.0,0.0,-0.4161,-0.4295,-0.4556,-0.4688,-0.4885,-0.5084,-0.5355,-0.5488,0.0,0.0,0.0,0.0,0.0,0.0,0.0,0.0,0.0,0.0,0.0,0.0,0.0,0.0,0.0,0.0,0.0,0.0,0.0,0.0,0.0,0.0,0.0,0.0,0.0,0.0,0.0,0.0,0.0,0.0,0.0,0.0,0.0,0.0,0.0,0.0,0.0,-0.6773,-0.7576,0.0,0.0,-0.8765,-0.8691,-0.8303,-0.8321,-0.8613,-0.9258,-0.9995,-1.0429,-1.0152,0.0,0.0,-0.9462,-0.9357,-0.9495,-0.9508,-0.9846,-1.0279,0.0,0.0,0.0,0.0,0.0,0.0,0.0,0.0,0.0,0.0,0.0,0.0,0.0,0.0,0.0,-1.9104,-1.892,-1.8827,-1.8827,-1.8651,-1.8658,-1.8658,-1.8373,-1.828,-1.8272,-1.7652,-1.7318,-1.7255,-1.7755,-1.7778,-1.7483,-1.8616,0.0,0.0,-1.9762,-2.0167,-2.0566,-2.0566,-2.0303,-1.9817,-1.9118,-1.8751,-1.835,0.0,0.0,0.0,0.0,0.0,0.0,-0.4694,-0.4761,-0.4827,-0.5087,-0.5087,-0.5219,-0.5484,-0.5686,-0.5686,-0.5286,0.0,0.0,0.0,0.0,0.0,0.0,0.0,0.0,0.0,0.0,0.0,0.0,0.0,0.0,0.0,0.0,0.0,0.0,0.0,0.0,0.0,0.0,0.0,0.0,0.0,0.0,0.0,0.0,0.0,0.0,0.0,0.0,0.0,0.0,0.0,0.0,0.0,0.0,0.0,0.0,-0.8545,-0.866,-0.8583,-0.8563,-0.8802,-0.9379,-0.9835,-1.0023,0.0,0.0,0.0,-0.9153,-0.9102,-0.9204,-0.914,-0.9468,-0.9695,0.0,0.0,-1.1543,-1.249,0.0,0.0,0.0,0.0,0.0,0.0,0.0,0.0,0.0,0.0,0.0,-1.8485,-1.8485,-1.8485,-1.8585,-1.8417,-1.8279,-1.8078,-1.7797,-1.7705,-1.7697,-1.7094,-1.6728,-1.6513,-1.6898,-1.6838,-1.6394,-1.7532,0.0,0.0,-1.8816,-1.9292,-1.9835,-1.9835,-1.9665,-1.9228,-1.8502,-1.8118,-1.7778,0.0,0.0,0.0,0.0,0.0,0.0,0.0,-0.4625,-0.4691,-0.5087,-0.5087,-0.5156,-0.5362,-0.5554,-0.5617,-0.5617,0.0,0.0,0.0,0.0,0.0,0.0,0.0,0.0,0.0,0.0,0.0,0.0,0.0,0.0,0.0,0.0,0.0,0.0,0.0,0.0,0.0,0.0,0.0,0.0,0.0,0.0,0.0,0.0,0.0,0.0,0.0,0.0,0.0,0.0,0.0,0.0,0.0,0.0,0.0,0.0,-0.8531,-0.9339,-0.9238,-0.9689,-1.0348,-1.0746,-1.072,-1.0544,0.0,0.0,-0.9776,-0.9035,-0.8777,-0.8699,-0.8703,-0.9013,-0.917,-0.878,-0.9653,-1.0121,-0.9676,-1.1596,0.0,0.0,0.0,0.0,0.0,0.0,0.0,0.0,0.0,0.0,-1.7583,-1.7583,-1.7771,-1.7967,-1.7967,-1.7706,-1.7087,-1.6919,-1.6838,-1.6838,-1.6161,-1.5921,-1.5906,-1.5584,-1.5438,0.0,0.0,0.0,0.0,-1.7674,-1.7997,-1.7997,-1.7997,-1.7997,-1.7946,-1.7586,-1.768,-1.7797,0.0,0.0,0.0,0.0,0.0,0.0,0.0,-0.4364,-0.4498,-0.4827,-0.4894,-0.5027,-0.5362,-0.5488,-0.5617,-0.5617,0.0,0.0,0.0,0.0,0.0,0.0,0.0,0.0,0.0,0.0,0.0,0.0,0.0,0.0,0.0,0.0,0.0,0.0,0.0,0.0,0.0,0.0,0.0,0.0,0.0,0.0,0.0,0.0,0.0,0.0,0.0,0.0,0.0,0.0,0.0,0.0,0.0,0.0,0.0,0.0,0.0,0.0,-0.9077,-0.9579,-0.9976,-0.9986,-1.0274,-1.0328,-0.9337,0.0,0.0,-0.8932,-0.8732,-0.8703,-0.8703,-0.878,-0.8904,-0.8897,-0.9329,-0.973,-1.0026,0.0,0.0,0.0,0.0,0.0,0.0,0.0,0.0,0.0,0.0,0.0,-1.5626,-1.6623,-1.732,-1.7416,-1.7468,-1.7251,-1.6911,-1.6639,-1.6551,-1.6551,-1.606,-1.5913,-1.5906,-1.5577,-1.5431,0.0,0.0,0.0,0.0,-1.7025,-1.7432,-1.7997,-1.7997,-1.7997,-1.7908,-1.7227,-1.7009,-1.6993,0.0,0.0,0.0,0.0,0.0,0.0,0.0,-0.3897,-0.3961,-0.4292,-0.4292,-0.4492,-0.5027,-0.5156,-0.5286,-0.5488,0.0,0.0,0.0,0.0,0.0,0.0,0.0,0.0,0.0,0.0,0.0,0.0,0.0,0.0,0.0,0.0,0.0,0.0,0.0,0.0,0.0,0.0,0.0,0.0,0.0,0.0,-0.9439,0.0,0.0,0.0,0.0,0.0,0.0,0.0,0.0,0.0,0.0,0.0,0.0,0.0,-0.8793,0.0,0.0,-1.005,-1.034,-1.0106,-1.0265,0.0,0.0,0.0,0.0,0.0,-0.8703,-0.8703,-0.8703,-0.8703,-0.8746,-0.8878,-0.9077,-0.9366,-0.9742,0.0,0.0,0.0,0.0,0.0,0.0,0.0,0.0,0.0,0.0,0.0,-1.4276,-1.5089,-1.5581,-1.546,-1.6037,-1.6147,-1.5756,-1.5655,-1.5561,-1.5561,-1.5647,-1.5731,-1.5723,-1.5526,-1.5431,0.0,0.0,0.0,0.0,-1.6221,-1.655,-1.7033,-1.7033,-1.7033,-1.6935,-1.6238,-1.6106,-1.6108,0.0,0.0,0.0,0.0,0.0,0.0,0.0,0.0,0.0,0.0,-0.3487,-0.3754,-0.4492,-0.4558,-0.4824,0.0,0.0,0.0,0.0,0.0,0.0,0.0,0.0,0.0,0.0,0.0,0.0,-0.9893,-0.9899,-0.9753,-0.9402,0.0,0.0,0.0,0.0,0.0,0.0,0.0,0.0,0.0,0.0,0.0,0.0,0.0,0.0,0.0,0.0,0.0,0.0,0.0,0.0,0.0,0.0,0.0,0.0,0.0,0.0,0.0,0.0,0.0,0.0,0.0,0.0,0.0,0.0,0.0,0.0,0.0,0.0,0.0,-0.8646,-0.8637,-0.8641,-0.8684,-0.8847,-0.8964,-0.9014,-0.9637,0.0,0.0,0.0,0.0,0.0,0.0,0.0,0.0,0.0,0.0,-1.3278,-1.3194,-1.3021,-1.2601,-1.3952,-1.4401,-1.3971,-1.3971,-1.4055,-1.4139,-1.4915,-1.5347,-1.5431,-1.5431,-1.5431,0.0,0.0,0.0,0.0,-1.5431,-1.5431,-1.5423,-1.5401,-1.5394,-1.5357,-1.5028,-1.5101,-1.5277,0.0,0.0,0.0,0.0,0.0,0.0,0.0,0.0,0.0,0.0,0.0,-0.3754,-0.4289,-0.4356,0.0,0.0,0.0,0.0,0.0,0.0,0.0,0.0,0.0,0.0,0.0,0.0,0.0,-1.0588,-1.0953,-1.1291,-1.1396,-1.149,0.0,0.0,0.0,0.0,0.0,0.0,0.0,0.0,0.0,0.0,0.0,0.0,0.0,0.0,-1.0238,-0.9907,0.0,0.0,0.0,0.0,0.0,0.0,0.0,0.0,-0.9914,-1.0645,-1.0351,0.0,-1.1092,-1.059,-1.0396,0.0,0.0,0.0,0.0,0.0,0.0,0.0,0.0,-0.8353,-0.8398,-0.8759,-0.8837,-0.8899,-0.9158,0.0,0.0,0.0,0.0,0.0,0.0,0.0,0.0,0.0,0.0,-1.1957,-1.1066,-1.2139,-1.2484,-1.1666,-1.1974,-1.2398,-1.3021,-1.3021,-1.3366,-1.4139,-1.4314,-1.4741,-1.5431,-1.5431,-1.5431,0.0,0.0,0.0,-1.5431,-1.5431,-1.5431,-1.5401,-1.5153,-1.5057,-1.5013,-1.4699,-1.4626,-1.467,0.0,0.0,0.0,0.0,0.0,0.0,0.0,0.0,0.0,0.0,0.0,0.0,0.0,0.0,0.0,0.0,0.0,0.0,0.0,0.0,0.0,0.0,0.0,0.0,0.0,0.0,0.0,0.0,0.0,-1.1733,0.0,0.0,0.0,0.0,0.0,0.0,0.0,0.0,0.0,0.0,-1.2696,0.0,0.0,0.0,0.0,0.0,-1.1115,-1.0604,0.0,-0.9646,-0.9128,-0.8674,0.0,0.0,0.0,0.0,-0.9965,-1.033,-0.9917,-1.0127,-1.0466,-1.0315,-1.0065,-0.9784,0.0,0.0,0.0,0.0,0.0,0.0,0.0,0.0,0.0,-0.8642,-0.8756,-0.8891,0.0,0.0,0.0,0.0,0.0,0.0,0.0,0.0,0.0,0.0,0.0,-1.1029,-1.0376,-1.102,-1.1235,-1.0722,-1.0722,-1.1149,-1.2083,-1.2083,-1.2281,-1.2667,-1.3092,-1.3533,-1.3913,-1.4385,-1.4543,0.0,0.0,0.0,-1.5218,-1.5372,-1.5431,-1.5416,-1.5233,-1.5079,-1.4904,-1.4589,-1.456,-1.467,0.0,0.0,0.0,0.0,0.0,0.0,0.0,0.0,0.0,0.0,0.0,0.0,0.0,0.0,0.0,0.0,0.0,0.0,0.0,0.0,0.0,0.0,0.0,0.0,0.0,0.0,0.0,0.0,0.0,0.0,0.0,0.0,-1.3014,0.0,0.0,0.0,0.0,0.0,0.0,0.0,-1.3855,0.0,0.0,0.0,0.0,0.0,0.0,0.0,0.0,-0.9652,-0.9098,-0.875,-0.9002,0.0,0.0,0.0,0.0,0.0,-0.9295,-0.9349,-0.9555,-0.9888,-0.9639,-0.9226,0.0,0.0,0.0,0.0,0.0,0.0,0.0,0.0,0.0,0.0,0.0,0.0,0.0,0.0,0.0,0.0,0.0,0.0,0.0,0.0,0.0,0.0,0.0,-1.0438,-1.0234,-1.005,-0.9937,-0.9908,-0.9904,-1.023,-1.0963,-1.1,-1.0995,-1.1039,-1.1757,-1.2119,-1.2074,-1.303,-1.344,-1.336,0.0,0.0,-1.4954,-1.518,-1.5296,-1.534,-1.5289,-1.5189,-1.4904,-1.4589,-1.4604,-1.4765,0.0,0.0,0.0,0.0,0.0,0.0,0.0,0.0,0.0,0.0,0.0,0.0,0.0,0.0,0.0,0.0,0.0,0.0,0.0,0.0,0.0,0.0,0.0,0.0,0.0,0.0,0.0,0.0,0.0,0.0,-1.3032,-1.3791,-1.407,-1.3978,0.0,-1.3347,-1.339,-1.4043,-1.4273,-1.4094,-1.3863,0.0,0.0,0.0,0.0,0.0,0.0,0.0,0.0,-1.0174,-0.9876,-0.965,-0.9748,0.0,0.0,0.0,0.0,0.0,-0.8833,-0.8875,-0.8923,-0.907,-0.9043,-0.8958,0.0,0.0,0.0,0.0,0.0,0.0,0.0,0.0,0.0,0.0,0.0,0.0,0.0,0.0,0.0,0.0,0.0,0.0,0.0,0.0,0.0,0.0,0.0,-1.0225,-1.01,-1.0057,-0.9784,-0.945,-0.9611,-0.9522,-0.9339,-0.9685,-1.0253,-1.1039,-1.1007,-1.1289,-1.189,-1.2172,-1.2692,-1.3358,0.0,-1.3994,-1.5079,-1.4856,-1.4928,-1.5144,-1.5042,-1.4984,-1.4904,-1.4589,-1.4326,-1.4165,0.0,0.0,0.0,0.0,0.0,0.0,0.0,0.0,0.0,0.0,0.0,0.0,0.0,0.0,0.0,0.0,0.0,0.0,0.0,0.0,0.0,0.0,0.0,0.0,0.0,0.0,0.0,0.0,0.0,-1.3679,-1.4544,-1.4899,-1.493,-1.462,0.0,-1.4025,-1.4112,-1.4706,-1.4874,-1.4746,0.0,0.0,0.0,0.0,0.0,0.0,0.0,0.0,0.0,0.0,-0.9509,-0.9259,-0.9145,0.0,0.0,0.0,0.0,0.0,-0.8288,-0.8271,-0.8296,-0.8484,-0.8641,-0.8706,0.0,0.0,0.0,0.0,0.0,0.0,0.0,0.0,0.0,0.0,0.0,0.0,0.0,0.0,0.0,0.0,0.0,0.0,0.0,0.0,0.0,0.0,0.0,0.0,-1.0052,-0.9847,-0.9658,-0.9484,-0.9368,-0.9179,-0.9005,-0.8987,-0.9222,-0.9786,-0.9521,-0.9567,-0.9844,-1.051,-1.0948,-1.1251,0.0,-1.2683,-1.3527,-1.3709,-1.4117,-1.4667,-1.4771,-1.4678,-1.4574,-1.4252,-1.4237,-1.4359,0.0,0.0,0.0,0.0,0.0,0.0,0.0,0.0,0.0,0.0,0.0,0.0,0.0,0.0,0.0,0.0,0.0,0.0,0.0,0.0,0.0,0.0,0.0,0.0,0.0,0.0,-1.175,-1.2953,-1.376,-1.4749,-1.5869,-1.5615,-1.5448,0.0,0.0,-1.4706,-1.4765,-1.5362,-1.5536,-1.5362,0.0,0.0,0.0,0.0,0.0,0.0,0.0,0.0,0.0,0.0,0.0,0.0,0.0,0.0,0.0,-0.8145,-0.7966,-0.7776,-0.7743,-0.7755,-0.7771,0.0,0.0,0.0,0.0,0.0,0.0,0.0,0.0,0.0,0.0,0.0,0.0,0.0,0.0,0.0,0.0,0.0,0.0,0.0,0.0,0.0,0.0,0.0,0.0,0.0,0.0,0.0,-0.996,-0.9672,-0.9456,-0.941,-0.9124,-0.8833,-0.8702,-0.8471,-0.8422,-0.8629,-0.8418,-0.8242,-0.8034,-0.8942,-0.9416,-0.9392,-1.0461,-1.1347,-1.202,-1.2605,-1.331,-1.3981,-1.4532,-1.4594,-1.4349,-1.4041,-1.4205,-1.4621,0.0,0.0,0.0,0.0,0.0,0.0,0.0,0.0,0.0,0.0,0.0,0.0,0.0,0.0,0.0,0.0,0.0,0.0,0.0,0.0,0.0,0.0,0.0,0.0,0.0,-1.062,-1.1832,-1.3639,-1.4073,-1.4892,-1.6055,-1.5381,-1.542,-1.6008,0.0,-1.5352,-1.5352,-1.6077,-1.6144,-1.5798,-1.5546,0.0,0.0,0.0,0.0,0.0,0.0,0.0,0.0,0.0,0.0,0.0,0.0,0.0,-0.764,-0.7679,-0.7465,-0.725,-0.7261,-0.7129,-0.7201,-0.7543,0.0,0.0,0.0,0.0,0.0,0.0,0.0,0.0,0.0,0.0,0.0,0.0,0.0,0.0,0.0,0.0,0.0,0.0,0.0,0.0,0.0,0.0,0.0,0.0,0.0,0.0,-0.9951,-0.9591,-0.9144,-0.879,-0.876,-0.8488,-0.7919,-0.8056,-0.8212,-0.8379,-0.8207,-0.8043,-0.7804,-0.8119,-0.8672,-0.9448,-0.9274,-0.9953,-1.1215,-1.2068,-1.2562,-1.2991,-1.4198,-1.472,-1.4671,-1.4363,-1.444,-1.4664,0.0,0.0,0.0,0.0,0.0,0.0,0.0,0.0,0.0,0.0,0.0,0.0,0.0,0.0,0.0,0.0,0.0,0.0,0.0,0.0,0.0,0.0,0.0,-0.8195,-0.9971,-1.0953,-1.2274,-1.3961,-1.5294,-1.624,-1.6788,-1.6323,0.0,0.0,0.0,-1.6171,-1.6285,-1.6534,-1.642,-1.5951,-1.5342,-1.4392,0.0,0.0,0.0,0.0,0.0,0.0,0.0,0.0,-0.707,-0.7033,0.0,-0.6962,-0.6982,-0.7093,-0.6949,-0.6767,-0.6682,-0.6761,0.0,0.0,0.0,0.0,0.0,0.0,0.0,0.0,0.0,0.0,0.0,0.0,0.0,0.0,0.0,0.0,0.0,0.0,0.0,0.0,0.0,0.0,0.0,0.0,0.0,0.0,0.0,0.0,-0.9519,-0.9297,-0.9004,-0.8686,-0.8458,-0.8181,-0.7804,-0.7718,-0.7748,-0.7815,-0.7748,-0.7718,-0.7642,-0.7714,-0.7906,-0.8276,-0.8124,-0.863,-0.9647,-1.0242,-1.122,-1.2419,-1.3805,-1.4405,-1.4441,-1.407,-1.4029,-1.4159,0.0,0.0,0.0,0.0,0.0,0.0,0.0,0.0,0.0,0.0,0.0,0.0,0.0,0.0,0.0,0.0,0.0,0.0,0.0,0.0,0.0,0.0,0.0,-0.8318,-0.9914,-1.1149,-1.2688,-1.441,-1.6027,-1.6763,-1.6729,0.0,0.0,0.0,0.0,0.0,0.0,-1.6534,-1.6104,-1.5439,-1.4855,-1.3768,0.0,0.0,0.0,0.0,0.0,0.0,0.0,0.0,0.0,0.0,0.0,0.0,0.0,0.0,-0.6893,-0.6663,-0.6407,-0.6323,0.0,0.0,0.0,0.0,0.0,0.0,0.0,0.0,0.0,0.0,0.0,0.0,0.0,0.0,0.0,0.0,0.0,0.0,0.0,0.0,0.0,0.0,0.0,0.0,0.0,0.0,0.0,0.0,0.0,-0.9025,-0.8814,-0.8508,-0.8195,-0.7876,-0.7723,-0.7642,-0.7561,-0.7484,-0.7484,-0.7484,-0.7484,-0.7484,-0.7484,-0.7484,-0.7484,-0.7787,-0.8345,-0.9072,-1.0256,-1.1816,-1.3105,-1.3652,-1.3866,-1.3765,-1.3857,-1.3974,0.0,0.0,0.0,0.0,0.0,0.0,0.0,0.0,0.0,0.0,0.0,0.0,0.0,0.0,0.0,0.0,0.0,0.0,0.0,0.0,0.0,0.0,0.0,-0.8516,-0.9773,-1.1108,-1.287,-1.5111,-1.592,-1.6113,-1.5722,-1.5808,0.0,0.0,0.0,0.0,0.0,-1.5846,-1.5216,-1.41,-1.4007,-1.2732,-1.0885,0.0,0.0,0.0,0.0,0.0,0.0,0.0,-0.7684,0.0,0.0,0.0,0.0,0.0,-0.7316,-0.6962,-0.626,-0.5911,0.0,0.0,0.0,0.0,0.0,0.0,0.0,0.0,0.0,0.0,0.0,0.0,0.0,0.0,0.0,0.0,0.0,0.0,0.0,0.0,0.0,0.0,0.0,0.0,0.0,0.0,0.0,0.0,0.0,-0.8953,-0.8508,-0.8078,-0.7897,-0.7723,-0.7484,-0.7723,-0.7723,-0.7484,-0.7484,-0.7484,-0.7484,-0.7484,-0.7484,-0.7484,-0.7484,-0.7484,-0.7573,-0.8686,-0.9812,-1.1039,-1.204,-1.2547,-1.279,-1.3737,-1.4082,-1.4041,0.0,0.0,0.0,0.0,0.0,0.0,0.0,0.0,0.0,0.0,0.0,0.0,0.0,0.0,0.0,0.0,0.0,0.0,0.0,0.0,0.0,0.0,0.0,0.0,0.0,0.0,-1.2821,-1.4114,-1.5185,-1.581,0.0,0.0,0.0,-1.6524,0.0,0.0,0.0,-1.253,-1.1569,-0.971,-0.9371,-0.956,-0.9925,0.0,0.0,0.0,0.0,0.0,0.0,0.0,0.0,0.0,0.0,0.0,0.0,-0.7577,-0.7224,-0.6871,-0.6605,0.0,0.0,0.0,0.0,0.0,0.0,0.0,0.0,0.0,0.0,0.0,0.0,0.0,0.0,0.0,0.0,0.0,0.0,0.0,0.0,0.0,0.0,0.0,0.0,0.0,0.0,0.0,0.0,0.0,0.0,-0.85,-0.8365,-0.8074,-0.7897,-0.7723,-0.7484,-0.7561,-0.7561,-0.7484,-0.7484,-0.7484,-0.7484,-0.7484,-0.7484,-0.7484,-0.7484,-0.7484,-0.7573,-0.8686,-0.9494,-1.0208,-1.1044,-1.1954,-1.2681,-1.2835,-1.3188,-1.3701,0.0,0.0,0.0,0.0,0.0,0.0,0.0,0.0,0.0,0.0,0.0,0.0,0.0,0.0,0.0,0.0,0.0,0.0,0.0,0.0,0.0,0.0,0.0,0.0,0.0,-1.1219,-1.2065,0.0,0.0,0.0,0.0,0.0,0.0,-1.3752,0.0,-1.1751,0.0,0.0,-0.9236,-0.8204,-0.7691,-0.7632,-0.7683,0.0,0.0,0.0,0.0,0.0,0.0,0.0,0.0,0.0,0.0,0.0,0.0,-0.7309,-0.6779,-0.6157,-0.5891,0.0,0.0,0.0,0.0,0.0,0.0,0.0,0.0,0.0,0.0,0.0,0.0,0.0,0.0,0.0,0.0,0.0,0.0,0.0,0.0,0.0,0.0,0.0,0.0,0.0,0.0,0.0,0.0,0.0,0.0,-0.8533,-0.8352,-0.7969,-0.7859,-0.7723,-0.7484,-0.7484,-0.7484,-0.7484,-0.7484,-0.7484,-0.7484,-0.7484,-0.7484,-0.7484,-0.7484,-0.7484,-0.7569,-0.8216,-0.8688,-0.906,-0.9866,-1.0744,-1.1439,-1.1623,-1.2062,-1.2407,0.0,0.0,0.0,0.0,0.0,0.0,0.0,0.0,0.0,0.0,0.0,0.0,0.0,0.0,0.0,0.0,0.0,0.0,0.0,0.0,0.0,0.0,0.0,0.0,0.0,0.0,0.0,0.0,0.0,0.0,0.0,0.0,-1.3182,-0.8874,0.0,-0.8281,-0.5312,-0.6552,-0.7225,-0.751,-0.7335,-0.6273,-0.487,-0.4812,0.0,0.0,0.0,0.0,0.0,0.0,0.0,0.0,0.0,0.0,-0.7727,-0.7129,-0.6334,-0.5364,0.0,0.0,0.0,0.0,0.0,0.0,0.0,0.0,0.0,0.0,0.0,0.0,0.0,0.0,0.0,0.0,0.0,0.0,0.0,0.0,0.0,0.0,0.0,0.0,0.0,0.0,0.0,0.0,0.0,0.0,0.0,-0.8713,-0.8396,-0.791,-0.7812,-0.7723,-0.7561,-0.7484,-0.7484,-0.7484,-0.7484,-0.7484,-0.7484,-0.7484,-0.7484,-0.7484,-0.7484,-0.7484,-0.7484,-0.7484,-0.7594,-0.7919,-0.8695,-0.9129,-0.9466,-1.0332,-1.074,-1.0718,0.0,0.0,0.0,0.0,0.0,0.0,0.0,0.0,0.0,0.0,0.0,0.0,0.0,0.0,0.0,0.0,0.0,0.0,0.0,0.0,0.0,0.0,0.0,0.0,0.0,0.0,0.0,0.0,0.0,0.0,0.0,0.0,0.0,-0.669,0.0,-0.7601,-0.334,-0.3654,-0.1752,0.1319,-0.0611,-0.2307,-0.3661,-0.3311,-0.3584,0.0,0.0,0.0,0.0,0.0,0.0,0.0,-0.8233,-0.8281,-0.8197,-0.8424,-0.7489,-0.6447,0.0,0.0,0.0,0.0,0.0,0.0,0.0,0.0,0.0,0.0,0.0,0.0,0.0,0.0,0.0,0.0,0.0,0.0,0.0,0.0,0.0,0.0,0.0,0.0,0.0,0.0,0.0,0.0,0.0,0.0,-0.8718,-0.8546,-0.8449,-0.8492,-0.7871,-0.7642,-0.7723,-0.7565,-0.7484,0.0,-0.7484,-0.7484,-0.7484,-0.7484,-0.7484,-0.7484,-0.7484,-0.7484,-0.7484,-0.7484,-0.7594,-0.784,-0.7995,-0.8658,-0.9366,-0.9363,-0.9961,-1.0696,0.0,0.0,0.0,0.0,0.0,0.0,0.0,0.0,0.0,0.0,0.0,0.0,0.0,0.0,0.0,0.0,0.0,0.0,0.0,0.0,0.0,0.0,0.0,0.0,0.0,0.0,0.0,0.0,0.0,0.0,0.0,0.0,0.0,-0.4841,0.0,-0.4298,-0.0136,0.0399,0.1059,0.1606,0.0409,-0.0906,-0.2285,-0.239,-0.2734,-0.3341,-0.4456,0.0,0.0,0.0,0.0,0.0,0.0,0.0,-0.7432,-0.7681,-0.6679,-0.5468,0.0,0.0,0.0,0.0,0.0,0.0,0.0,0.0,0.0,0.0,0.0,0.0,0.0,0.0,0.0,0.0,0.0,0.0,0.0,0.0,0.0,0.0,0.0,0.0,0.0,0.0,0.0,0.0,0.0,-0.8909,-0.9006,-0.8834,-0.8625,-0.855,-0.813,-0.788,-0.7642,-0.7561,-0.7484,-0.7484,-0.7484,-0.7484,-0.7484,-0.7484,-0.7484,-0.7484,-0.7484,-0.7484,-0.7484,-0.7484,-0.7541,-0.7626,-0.7626,-0.7994,-0.8453,-0.8351,-0.8691,-0.9139,0.0,0.0,0.0,0.0,0.0,0.0,0.0,0.0,0.0,0.0,0.0,0.0,0.0,0.0,0.0,0.0,0.0,0.0,0.0,0.0,0.0,0.0,0.0,0.0,0.0,0.0,0.0,0.0,0.0,0.0,0.0,0.0,0.0,-0.2958,0.0,-0.1161,0.2028,0.3057,0.1751,-0.0951,-0.0611,-0.0758,-0.1203,-0.1814,-0.2234,-0.2686,-0.4179,-0.4934,-0.5544,-0.657,0.0,0.0,0.0,0.0,-0.6516,-0.6662,-0.5678,-0.4396,0.0,0.0,0.0,0.0,0.0,0.0,0.0,0.0,0.0,0.0,0.0,0.0,0.0,0.0,0.0,0.0,0.0,0.0,0.0,0.0,0.0,0.0,0.0,0.0,0.0,0.0,0.0,0.0,0.0,-0.9124,-0.9292,-0.911,-0.8759,-0.8431,-0.8286,-0.8021,-0.7565,-0.7484,-0.7484,-0.7484,-0.7484,-0.7484,-0.7484,-0.7484,-0.7484,-0.7484,-0.7484,-0.7484,-0.7484,-0.7484,-0.7484,-0.7484,-0.7484,-0.7484,-0.7484,-0.7484,-0.7484,-0.7484,0.0,0.0,0.0,0.0,0.0,0.0,0.0,0.0,0.0,0.0,0.0,0.0,0.0,0.0,0.0,0.0,0.0,0.0,-0.3894,0.0,0.0,-0.5638,-0.5704,0.0,0.0,0.0,0.0,0.0,0.0,0.0,0.0,0.0,0.0,-0.0826,0.0,0.0,-0.065,-0.0069,-0.0136,-0.0558,-0.0488,-0.0708,-0.1236,-0.1791,-0.2219,-0.2672,-0.3792,-0.4392,-0.4923,-0.5917,-0.6179,0.0,0.0,0.0,-0.7097,-0.7667,-0.7044,-0.6152,0.0,0.0,0.0,0.0,0.0,0.0,0.0,0.0,0.0,0.0,0.0,0.0,0.0,0.0,0.0,0.0,0.0,0.0,0.0,0.0,0.0,0.0,0.0,0.0,0.0,0.0,0.0,0.0,-0.9513,-0.9494,-0.9269,-0.8913,-0.8724,-0.8642,-0.7994,-0.7662,-0.7727,-0.7565,-0.7484,-0.7484,-0.7484,-0.7484,-0.7484,-0.7484,-0.7484,-0.7484,-0.7484,-0.7484,-0.7484,-0.7484,-0.7484,-0.7484,-0.7484,-0.7484,-0.7484,-0.7484,-0.7484,-0.7484,0.0,0.0,0.0,0.0,0.0,0.0,0.0,0.0,0.0,0.0,0.0,0.0,0.0,0.0,0.0,-0.362,-0.4028,-0.4233,-0.4097,-0.4233,-0.4567,-0.5106,-0.5286,-0.5599,-0.6187,0.0,0.0,0.0,0.0,0.0,0.0,-0.5132,-0.4154,0.0,0.0,0.0,0.0,0.0,-0.0825,-0.0823,-0.0823,-0.0976,-0.1359,-0.1616,-0.2108,-0.2786,-0.3566,-0.4254,-0.4887,-0.5805,-0.6077,-0.618,-0.6898,0.0,0.0,0.0,-0.7053,0.0,0.0,0.0,0.0,0.0,0.0,0.0,0.0,0.0,0.0,0.0,0.0,0.0,0.0,0.0,0.0,0.0,0.0,0.0,0.0,0.0,0.0,0.0,0.0,0.0,0.0,0.0,0.0,0.0,-0.9675,-0.9446,-0.947,-0.9025,-0.8704,-0.8526,-0.8197,-0.7849,-0.7646,-0.7561,-0.7484,-0.7484,-0.7484,-0.7484,-0.7484,-0.7484,-0.7484,-0.7484,-0.7484,-0.7484,-0.7484,-0.7484,-0.7484,-0.7484,-0.7484,-0.7484,-0.7484,-0.7484,-0.7484,-0.7484,0.0,0.0,0.0,0.0,0.0,0.0,0.0,0.0,0.0,0.0,0.0,0.0,0.0,0.0,0.0,0.0,-0.4498,-0.45,-0.457,-0.4503,-0.4709,-0.5189,-0.5342,-0.5515,-0.5785,0.0,0.0,0.0,0.0,0.0,-0.4999,-0.4833,-0.4464,0.0,-0.3052,0.0,0.0,0.0,0.0,-0.1158,-0.1158,-0.1245,-0.142,-0.1604,-0.2243,-0.2994,-0.3521,-0.4281,-0.5076,-0.577,-0.6056,-0.6284,-0.6789,-0.6983,0.0,0.0,0.0,-0.6144,0.0,0.0,0.0,0.0,0.0,0.0,0.0,0.0,0.0,0.0,0.0,0.0,0.0,0.0,0.0,0.0,0.0,0.0,0.0,0.0,0.0,0.0,0.0,0.0,0.0,0.0,0.0,0.0,-0.9698,-0.9366,-0.9423,-0.902,-0.866,-0.8279,-0.8183,-0.7919,-0.7484,-0.7484,-0.7484,-0.7484,-0.7484,-0.7484,-0.7484,-0.7484,-0.7484,-0.7484,-0.7484,-0.7484,-0.7484,-0.7484,-0.7484,-0.7484,-0.7484,-0.7484,-0.7484,-0.7484,-0.7484,-0.7484,0.0,0.0,0.0,0.0,0.0,0.0,0.0,0.0,0.0,0.0,0.0,0.0,0.0,-0.4758,-0.4628,-0.4764,-0.4764,-0.4967,-0.5312,-0.5183,-0.5463,-0.6293,-0.6342,0.0,-0.6359,-0.6179,0.0,0.0,0.0,0.0,-0.4969,-0.4966,-0.4613,-0.4003,-0.3417,-0.3125,-0.3049,0.0,0.0,0.0,0.0,-0.1422,-0.1532,-0.2023,-0.2685,-0.3452,-0.3782,-0.448,-0.5349,-0.5713,-0.5991,-0.6349,-0.681,-0.7034,-0.7261,0.0,0.0,0.0,0.0,0.0,0.0,0.0,0.0,0.0,0.0,0.0,0.0,0.0,0.0,0.0,0.0,0.0,0.0,0.0,0.0,0.0,0.0,0.0,0.0,0.0,0.0,0.0,0.0,0.0,0.0,0.0,-0.9468,-0.9161,-0.8911,-0.8653,-0.8279,-0.8016,-0.7687,-0.7504,-0.7484,-0.7484,-0.7484,-0.7484,-0.7484,-0.7484,-0.7484,-0.7484,-0.7484,-0.7484,-0.7484,-0.7484,-0.7484,-0.7484,-0.7484,-0.7484,-0.7484,-0.7484,-0.7484,-0.7484,-0.7484,-0.7484,0.0,0.0,0.0,0.0,0.0,0.0,0.0,0.0,0.0,0.0,0.0,0.0,0.0,-0.502,-0.4957,-0.4957,-0.5306,-0.5782,-0.6308,-0.6273,-0.641,-0.67,-0.6746,-0.691,-0.7214,-0.6824,0.0,0.0,0.0,-0.5635,-0.5513,-0.5171,-0.4891,-0.4726,-0.3845,-0.322,-0.2699,-0.2078,0.0,0.0,0.0,0.0,0.0,0.0,0.0,0.0,0.0,0.0,0.0,-0.5834,-0.6115,-0.6476,-0.6867,-0.711,-0.7261,-0.7569,-0.7407,-0.6953,-0.6702,0.0,0.0,0.0,0.0,0.0,0.0,0.0,0.0,0.0,0.0,0.0,0.0,0.0,0.0,0.0,0.0,0.0,0.0,0.0,0.0,0.0,0.0,0.0,0.0,0.0,0.0,0.0,0.0,-0.8999,-0.8911,-0.85,-0.8225,-0.8016,-0.7784,-0.7606,-0.7484,-0.7484,-0.7484,-0.7484,-0.7484,-0.7484,-0.7484,-0.7484,-0.7484,-0.7484,-0.7484,-0.7484,-0.7484,-0.7484,-0.7484,-0.7484,-0.7484,-0.7484,-0.7484,-0.7484,-0.7484,-0.7484,0.0,0.0,0.0,0.0,0.0,0.0,0.0,0.0,0.0,0.0,0.0,0.0,0.0,0.0,-0.5219,-0.5481,-0.6036,-0.6643,-0.7213,-0.7263,-0.7325,-0.7432,-0.7445,-0.7634,-0.7947,-0.7553,0.0,0.0,0.0,0.0,0.0,-0.5372,-0.5215,-0.524,-0.4364,-0.3613,0.0,0.0,0.0,-0.2118,0.0,0.0,-0.2517,0.0,0.0,0.0,0.0,0.0,0.0,0.0,-0.6466,-0.6877,-0.7119,-0.7327,-0.7581,-0.797,-0.7691,-0.7249,-0.6868,0.0,0.0,0.0,0.0,0.0,0.0,0.0,0.0,0.0,0.0,0.0,0.0,0.0,0.0,0.0,0.0,0.0,0.0,0.0,0.0,0.0,0.0,0.0,0.0,0.0,0.0,0.0,0.0,0.0,-0.8823,-0.8476,-0.8178,-0.7935,-0.7756,-0.761,-0.7484,-0.7484,-0.7484,-0.7484,-0.7484,-0.7484,-0.7484,-0.7484,-0.7452,-0.7399,-0.7399,-0.7431,-0.7484,-0.7484,-0.7484,-0.7484,-0.7484,-0.7484,-0.7484,-0.7484,-0.7484,-0.7484,0.0,0.0,0.0,0.0,0.0,0.0,0.0,0.0,0.0,0.0,0.0,0.0,0.0,0.0,0.0,-0.6396,-0.7082,-0.7611,-0.8027,-0.8072,-0.8197,-0.8506,-0.8533,-0.8554,-0.8554,-0.8361,-0.7977,0.0,0.0,0.0,0.0,0.0,-0.5554,-0.5432,-0.4894,-0.4469,-0.4194,0.0,-0.3081,-0.3159,0.0,-0.3321,-0.3487,0.0,0.0,0.0,-0.495,-0.5592,0.0,-0.6456,0.0,0.0,0.0,-0.774,-0.8158,-0.8555,-0.7861,-0.6945,0.0,0.0,0.0,0.0,0.0,0.0,0.0,0.0,0.0,0.0,0.0,0.0,0.0,0.0,0.0,0.0,0.0,0.0,0.0,0.0,0.0,0.0,0.0,0.0,0.0,0.0,0.0,0.0,-0.8662,-0.8568,-0.8568,-0.839,-0.8126,-0.7852,-0.7586,-0.7488,-0.7484,-0.7484,-0.7484,-0.7484,-0.7484,-0.7484,-0.7484,-0.7484,-0.7391,-0.7236,-0.7236,-0.733,-0.7484,-0.7476,-0.748,-0.7484,-0.7484,-0.7484,-0.7484,-0.7484,-0.7484,-0.7484,0.0,0.0,0.0,0.0,0.0,0.0,0.0,0.0,0.0,0.0,0.0,0.0,0.0,0.0,-0.712,-0.7957,-0.8236,-0.863,-0.9378,-0.9356,-0.9361,-0.9436,-0.9448,-0.946,-0.9472,-0.9145,-0.8882,0.0,0.0,0.0,0.0,0.0,0.0,0.0,-0.5529,-0.5215,-0.5026,-0.402,0.0,0.0,-0.381,-0.3952,0.0,0.0,0.0,0.0,0.0,-0.6054,-0.6868,0.0,-0.7289,-0.7777,0.0,0.0,-0.8248,-0.8272,-0.7553,-0.6856,-0.6747,0.0,0.0,0.0,0.0,0.0,0.0,0.0,0.0,0.0,0.0,0.0,0.0,0.0,0.0,0.0,0.0,0.0,0.0,0.0,0.0,0.0,0.0,0.0,0.0,0.0,0.0,0.0,-0.8662,-0.8568,-0.8568,-0.839,-0.8126,-0.7852,-0.7711,-0.7618,-0.7484,-0.7484,-0.7484,-0.7484,-0.7484,-0.7484,-0.7484,-0.7484,-0.7456,-0.7411,-0.7411,-0.7439,-0.7472,-0.7346,-0.737,-0.7484,-0.7484,-0.7484,-0.7484,-0.7484,-0.7484,-0.7484,0.0,0.0,0.0,0.0,0.0,0.0,0.0,0.0,0.0,0.0,0.0,0.0,0.0,0.0,0.0,-0.9114,-0.9532,-0.9872,-1.0212,-1.0198,-1.0089,-0.9913,-0.9907,-0.9849,-0.9804,-0.9606,-0.9338,-0.9017,0.0,0.0,0.0,0.0,0.0,0.0,0.0,0.0,0.0,0.0,0.0,0.0,-0.473,0.0,0.0,-0.5219,-0.5587,0.0,0.0,0.0,-0.7371,-0.7379,-0.7785,0.0,0.0,0.0,0.0,-0.8819,-0.8154,-0.7492,-0.6935,0.0,0.0,0.0,0.0,0.0,-0.6674,-0.6907,-0.7108,0.0,0.0,0.0,0.0,0.0,0.0,0.0,0.0,0.0,0.0,0.0,0.0,0.0,0.0,0.0,0.0,-0.8779,-0.8714,-0.8714,-0.8621,-0.8568,-0.8568,-0.839,-0.8195,-0.7988,-0.7837,-0.7707,-0.7602,-0.7521,-0.7484,-0.7484,-0.7484,-0.7484,-0.7484,-0.7484,-0.7443,-0.7374,-0.7374,-0.7374,-0.7366,-0.7265,-0.7326,-0.7484,-0.7484,-0.7484,-0.7484,-0.7484,-0.7484,-0.7492,0.0,0.0,0.0,0.0,0.0,0.0,0.0,0.0,0.0,0.0,0.0,0.0,0.0,0.0,0.0,0.0,-1.0746,-1.1028,-1.0657,-1.0715,-1.0539,-1.0155,-1.0142,-1.0065,-0.9912,-0.9848,-0.9637,-0.9081,0.0,0.0,0.0,0.0,0.0,0.0,0.0,0.0,0.0,0.0,0.0,-0.5416,-0.5686,-0.5962,0.0,0.0,-0.6645,-0.7111,-0.7111,-0.7462,-0.794,-0.7944,-0.8201,0.0,0.0,0.0,0.0,0.0,-0.9077,0.0,0.0,0.0,0.0,0.0,0.0,0.0,-0.6891,-0.7144,-0.7449,-0.7624,0.0,0.0,0.0,0.0,0.0,0.0,0.0,0.0,0.0,0.0,0.0,0.0,0.0,0.0,-0.8568,-0.8568,-0.8568,-0.8568,-0.8568,-0.8568,-0.8568,-0.841,-0.8312,-0.8292,-0.7983,-0.7801,-0.784,-0.7598,-0.7504,-0.7484,-0.7484,-0.7484,-0.7484,-0.7484,-0.7399,-0.7253,-0.7253,-0.7253,-0.7253,-0.7253,-0.7342,-0.7484,-0.7484,-0.7484,-0.7484,-0.7484,-0.7496,-0.7537,-0.7139,0.0,0.0,0.0,0.0,0.0,0.0,0.0,0.0,0.0,0.0,0.0,0.0,0.0,0.0,0.0,-1.1129,-1.1233,-1.1207,-1.1158,-1.107,-1.0999,-1.0992,-1.0754,-1.0397,-1.039,-1.0152,-0.967,0.0,0.0,0.0,0.0,0.0,0.0,0.0,0.0,0.0,0.0,0.0,-0.6667,-0.6634,0.0,-0.7087,-0.7238,-0.7486,-0.7716,-0.7716,-0.8086,-0.8464,-0.8201,-0.8025,-0.8109,0.0,0.0,0.0,-0.8917,0.0,0.0,0.0,0.0,0.0,0.0,0.0,0.0,-0.7066,-0.7148,-0.7278,0.0,0.0,0.0,0.0,0.0,0.0,0.0,0.0,0.0,0.0,0.0,0.0,0.0,0.0,0.0,-0.8568,-0.8568,-0.8568,-0.8568,-0.8568,-0.8568,-0.8568,-0.8532,-0.8442,-0.8296,-0.8223,-0.8048,-0.7844,-0.7724,-0.763,-0.7484,-0.7484,-0.7484,-0.7484,-0.7484,-0.7464,-0.7435,-0.7435,-0.7435,-0.7435,-0.7435,-0.7452,-0.7484,-0.7484,-0.7484,-0.7484,-0.7484,-0.7577,-0.7711,-0.7317,0.0,0.0,0.0,0.0,0.0,0.0,0.0,0.0,0.0,0.0,0.0,0.0,0.0,0.0,0.0,0.0,0.0,0.0,0.0,-1.1444,-1.1299,-1.1292,-1.1158,-1.0886,-1.0676,-1.0397,-1.0003,0.0,0.0,0.0,0.0,0.0,0.0,0.0,0.0,0.0,0.0,-0.763,-0.753,-0.7328,0.0,-0.7394,-0.7636,-0.7952,-0.8201,-0.7848,-0.7757,-0.7845,-0.7937,-0.7937,0.0,0.0,-0.8886,-0.8524,0.0,-0.8414,-0.7775,0.0,0.0,0.0,-0.7379,0.0,0.0,0.0,-0.745,-0.7489,-0.7577,0.0,0.0,0.0,0.0,0.0,0.0,0.0,0.0,0.0,0.0,0.0,0.0,0.0,0.0,-0.8568,-0.8568,-0.8568,-0.8568,-0.8568,-0.8568,-0.8568,-0.8568,-0.8524,-0.843,-0.8341,-0.8207,-0.8028,-0.7849,-0.7711,-0.7618,-0.7529,-0.7484,-0.7484,-0.7484,-0.7484,-0.7484,-0.7484,-0.7484,-0.7484,-0.7484,-0.7484,-0.7484,-0.7484,-0.7541,-0.7622,-0.7622,-0.7736,-0.7898,-0.7508,0.0,0.0,0.0,0.0,0.0,0.0,0.0,0.0,0.0,0.0,0.0,0.0,0.0,0.0,0.0,0.0,0.0,0.0,0.0,0.0,-1.1603,-1.159,-1.15,-1.1309,-1.1012,-1.0667,-1.0281,0.0,0.0,0.0,0.0,0.0,0.0,0.0,0.0,0.0,0.0,0.0,-0.8112,0.0,-0.7824,-0.7693,-0.7914,-0.8201,-0.846,-0.7753,-0.7316,-0.7143,-0.7496,-0.7676,-0.776,-0.8711,-0.8886,0.0,0.0,0.0,0.0,0.0,0.0,0.0,0.0,0.0,-0.7871,0.0,0.0,0.0,0.0,0.0,0.0,0.0,0.0,0.0,0.0,0.0,0.0,0.0,0.0,0.0,0.0,0.0,0.0,0.0,-0.8564,-0.8564,-0.8564,-0.8476,-0.8476,-0.8476,-0.8476,-0.8476,-0.8476,-0.8336,-0.8239,-0.8203,-0.7922,-0.7745,-0.776,-0.7532,-0.7516,-0.7484,-0.7484,-0.7484,-0.7484,-0.7484,-0.7484,-0.7484,-0.7484,-0.7484,-0.7484,-0.7484,-0.7598,-0.784,-0.784,-0.789,-0.8089,-0.7724,-0.7711,0.0,0.0,0.0,0.0,0.0,0.0,0.0,0.0,0.0,0.0,0.0,0.0,0.0,0.0,0.0,0.0,-1.3046,0.0,0.0,0.0,-1.2204,-1.2005,-1.154,-1.1501,-1.1217,-1.056,0.0,0.0,0.0,0.0,0.0,0.0,-0.8899,0.0,0.0,0.0,-0.8861,0.0,-0.8604,-0.8755,0.0,-0.8301,-0.8201,-0.8197,-0.7665,-0.7228,-0.6881,0.0,-0.7054,-0.7058,0.0,-0.7834,-0.7489,-0.8281,0.0,0.0,0.0,0.0,0.0,0.0,-0.8201,0.0,0.0,0.0,-0.7983,-0.7983,0.0,0.0,0.0,0.0,0.0,0.0,0.0,0.0,0.0,0.0,0.0,0.0,0.0,0.0,0.0,-0.8384,-0.8288,-0.8288,-0.8116,-0.7944,-0.7944,-0.7944,-0.7944,-0.7944,-0.7925,-0.7842,-0.7688,-0.765,-0.7571,-0.7445,-0.7426,-0.7411,-0.7484,-0.7484,-0.7484,-0.7484,-0.7484,-0.7484,-0.7484,-0.7484,-0.7484,-0.7484,-0.7484,-0.7598,-0.784,-0.784,-0.7971,-0.8264,-0.7931,-0.7906,0.0,0.0,0.0,0.0,0.0,0.0,0.0,0.0,0.0,0.0,0.0,0.0,0.0,0.0,0.0,-1.3687,0.0,0.0,0.0,0.0,0.0,0.0,-1.2563,-1.2065,-1.1591,-1.1192,-1.1101,0.0,0.0,0.0,0.0,0.0,-0.898,0.0,-0.8512,0.0,-0.9067,0.0,0.0,0.0,0.0,-0.8082,-0.7404,-0.7136,-0.7224,-0.6874,-0.6438,0.0,-0.6881,0.0,0.0,0.0,0.0,0.0,0.0,0.0,0.0,0.0,0.0,0.0,0.0,0.0,-0.8312,0.0,-0.8142,0.0,0.0,0.0,0.0,0.0,0.0,0.0,-0.8446,0.0,0.0,0.0,0.0,0.0,0.0,0.0,0.0,0.0,0.0,0.0,-0.8028,-0.7944,-0.7944,-0.7944,-0.7944,-0.7944,-0.7944,-0.7819,-0.7748,-0.7651,-0.7571,-0.7426,-0.7412,-0.7352,-0.7334,-0.7484,-0.7484,-0.7484,-0.7484,-0.7484,-0.7484,-0.7484,-0.7484,-0.7492,-0.7602,-0.7752,-0.7918,-0.8028,-0.8231,-0.845,-0.8182,0.0,0.0,0.0,0.0,0.0,0.0,0.0,0.0,0.0,0.0,0.0,-1.3773,-1.4174,0.0,0.0,-1.4609,-1.4335,0.0,0.0,-1.3434,0.0,0.0,0.0,0.0,-1.2485,-1.2078,-1.1696,0.0,0.0,0.0,0.0,0.0,0.0,0.0,-0.9094,-0.837,0.0,0.0,-0.8869,-0.9007,-0.894,-0.8803,-0.7577,-0.6786,-0.6343,-0.6697,-0.6523,-0.626,-0.6618,-0.6792,0.0,-0.7054,0.0,0.0,0.0,0.0,0.0,-0.83,0.0,0.0,0.0,0.0,0.0,0.0,0.0,0.0,0.0,0.0,0.0,0.0,0.0,0.0,0.0,0.0,-0.8476,0.0,0.0,0.0,0.0,0.0,0.0,0.0,0.0,0.0,-0.8025,-0.7764,-0.7676,-0.7676,-0.7676,-0.7676,-0.7676,-0.7676,-0.7676,-0.7676,-0.7556,-0.7417,-0.7348,-0.7349,-0.7263,-0.7254,-0.7354,-0.7484,-0.7484,-0.7484,-0.7512,-0.7561,-0.7561,-0.7586,-0.7646,-0.7833,-0.7979,-0.8105,-0.8239,-0.8406,-0.8568,-0.8515,-0.8552,0.0,0.0,0.0,0.0,0.0,0.0,0.0,0.0,0.0,0.0,0.0,0.0,0.0,0.0,0.0,-1.4509,-1.4496,0.0,-1.3674,0.0,0.0,-1.3494,0.0,0.0,0.0,0.0,0.0,0.0,0.0,0.0,0.0,0.0,0.0,-1.0706,-1.0048,-1.0167,-0.9349,-0.7858,-0.8107,-0.7562,-0.6517,0.0,-0.67,-0.6083,-0.6171,0.0,0.0,-0.6704,-0.6969,0.0,0.0,0.0,0.0,0.0,0.0,0.0,0.0,0.0,0.0,-0.848,0.0,0.0,0.0,0.0,-0.8281,0.0,0.0,0.0,0.0,0.0,0.0,0.0,0.0,0.0,0.0,0.0,0.0,0.0,0.0,0.0,0.0,0.0,0.0,-0.7507,-0.7234,-0.7139,-0.7139,-0.7139,-0.7139,-0.7139,-0.7139,-0.7139,-0.7139,-0.7136,-0.7145,-0.7168,-0.7094,-0.7186,-0.735,-0.7258,-0.7334,-0.7484,-0.7484,-0.7586,-0.7752,-0.7752,-0.7849,-0.8016,-0.8199,-0.8276,-0.828,-0.8288,-0.8406,-0.8568,0.0,0.0,0.0,0.0,0.0,0.0,0.0,-1.0818,0.0,0.0,0.0,0.0,0.0,-1.5227,-1.5658,0.0,0.0,-1.5304,-1.511,-1.483,0.0,0.0,0.0,-1.4082,0.0,0.0,0.0,0.0,0.0,0.0,0.0,0.0,0.0,0.0,0.0,-1.0179,0.0,0.0,0.0,0.0,0.0,-0.7665,-0.6704,0.0,0.0,-0.6343,-0.6526,-0.6615,0.0,-0.6966,-0.7054,-0.7139,-0.7139,-0.7139,-0.7143,-0.7323,-0.7415,0.0,0.0,0.0,-0.768,-0.8032,0.0,0.0,0.0,0.0,0.0,0.0,0.0,0.0,0.0,0.0,0.0,0.0,0.0,0.0,0.0,0.0,0.0,0.0,0.0,0.0,0.0,0.0,0.0,-0.7499,-0.7145,-0.7041,-0.7136,-0.7139,-0.7187,-0.7288,-0.6567,-0.6563,-0.7292,-0.6567,-0.6452,-0.7011,-0.6443,-0.6599,-0.7364,-0.681,-0.7024,-0.7833,-0.7833,-0.787,-0.7927,-0.7927,-0.7959,-0.8032,-0.8219,-0.8292,-0.8304,-0.843,-0.8515,-0.8568,-0.8905,0.0,0.0,0.0,0.0,0.0,0.0,0.0,0.0,0.0,-1.3425,0.0,-1.482,0.0,-1.5583,0.0,-1.6099,-1.5818,-1.5424,-1.5317,0.0,-1.509,-1.4843,0.0,0.0,0.0,0.0,0.0,0.0,-1.2935,0.0,0.0,0.0,0.0,0.0,0.0,-0.9179,0.0,-0.903,0.0,0.0,-0.758,0.0,0.0,-0.6609,-0.6523,0.0,-0.6795,-0.6792,-0.7054,-0.7139,-0.7139,-0.7139,-0.7139,-0.7143,-0.7323,-0.7326,-0.7415,-0.768,-0.7591,0.0,-0.7768,-0.7856,0.0,-0.7856,0.0,0.0,0.0,0.0,0.0,0.0,0.0,0.0,0.0,0.0,0.0,0.0,-0.7499,0.0,0.0,0.0,0.0,0.0,0.0,-0.7302,-0.7316,-0.7145,-0.7044,0.0,0.0,-0.7032,-0.6816,-0.6096,-0.6093,-0.6819,-0.5729,-0.5811,-0.6917,-0.5734,-0.5928,-0.7282,-0.6463,-0.6767,-0.7934,-0.793,-0.8052,-0.8109,-0.8109,-0.815,-0.8223,-0.8341,-0.839,-0.8402,-0.8524,-0.8568,-0.8568,0.0,0.0,0.0,0.0,-0.871,0.0,0.0,0.0,-1.0577,0.0,-1.1797,-1.292,-1.4276,-1.4552,-1.5056,-1.6117,-1.6266,-1.6012,-1.5458,-1.5678,0.0,0.0,-1.5384,-1.5177,-1.3698,0.0,0.0,0.0,0.0,0.0,0.0,0.0,0.0,0.0,-1.2952,0.0,-0.9882,-0.9924,-0.8794,-0.7139,-0.7139,-0.7139,-0.7139,-0.7139,-0.6966,-0.6795,-0.6795,-0.6795,-0.6884,-0.7054,-0.7139,-0.7139,-0.7139,-0.7139,-0.7139,-0.7139,-0.7139,-0.7143,-0.7415,-0.7323,-0.7228,-0.7764,0.0,0.0,0.0,0.0,-0.7591,0.0,0.0,0.0,0.0,0.0,0.0,0.0,0.0,0.0,0.0,0.0,0.0,0.0,0.0,0.0,0.0,-0.7132,-0.7132,-0.7139,-0.7132,-0.7132,0.0,0.0,-0.6675,-0.5815,-0.5721,-0.5718,-0.5818,-0.4796,-0.5287,-0.7051,-0.508,-0.5203,-0.7182,-0.6266,-0.6539,-0.7714,-0.7958,-0.8142,-0.8304,-0.8304,-0.8406,-0.8568,-0.8568,-0.8568,-0.8568,-0.8568,-0.8568,-0.8568,-0.9321,-0.9232,-0.9168,0.0,-0.9149,-0.9288,0.0,0.0,0.0,0.0,-1.1662,-1.2832,-1.2641,-1.3901,-1.4835,-1.5263,-1.57,0.0,0.0,0.0,0.0,-1.5504,-1.5712,-1.5651,-1.5277,-1.5064,0.0,-1.4516,0.0,0.0,-1.3854,0.0,0.0,0.0,0.0,0.0,-0.9882,-1.0096,-0.8969,-0.7139,-0.7139,-0.7139,0.0,0.0,-0.7051,-0.7054,-0.7054,-0.7054,-0.7054,-0.7054,-0.7139,-0.7139,-0.7139,-0.7139,-0.7139,-0.7139,-0.7139,-0.7139,-0.7143,-0.7143,-0.7143,-0.7231,-0.7411,-0.7507,0.0,0.0,0.0,0.0,0.0,0.0,0.0,0.0,0.0,0.0,0.0,0.0,0.0,0.0,0.0,-0.7299,0.0,0.0,-0.7139,-0.7044,-0.7027,-0.7132,-0.7044,0.0,0.0,0.0,0.0,-0.5927,-0.5108,-0.5104,-0.5933,-0.4829,-0.5287,-0.7051,-0.5863,-0.6028,-0.7355,-0.6427,-0.6757,-0.8068,-0.8155,-0.8273,-0.8495,-0.8495,-0.8524,-0.8568,-0.8568,-0.8568,-0.8568,-0.8568,-0.8568,-0.8568,-0.9378,0.0,0.0,-0.9348,0.0,0.0,-0.9489,0.0,0.0,-0.9619,-1.0623,0.0,-1.1704,-1.3153,-1.428,-1.4807,-1.5615,0.0,-1.5838,0.0,0.0,-1.5832,-1.5832,-1.5611,-1.5266,-1.5159,0.0,-1.4401,0.0,0.0,-1.4082,0.0,0.0,0.0,0.0,-1.1027,0.0,-0.9096,-0.8185,-0.7139,-0.7139,0.0,0.0,-0.7139,-0.7139,-0.7139,-0.7139,-0.7139,-0.7139,-0.7139,-0.7139,-0.7139,-0.7139,-0.7139,-0.7139,-0.7139,-0.7139,-0.7139,-0.7139,-0.7139,-0.7139,-0.7139,-0.7231,-0.7323,-0.7143,-0.7282,-0.7427,0.0,0.0,0.0,0.0,0.0,0.0,0.0,0.0,0.0,0.0,0.0,0.0,0.0,-0.7193,0.0,-0.7139,-0.7068,-0.7054,-0.7136,-0.7065,0.0,0.0,0.0,0.0,-0.6062,-0.5351,-0.5371,-0.6053,-0.4998,-0.5361,-0.7241,-0.5741,-0.5894,-0.7323,-0.6514,-0.6779,-0.8113,-0.8201,-0.838,-0.8568,-0.8568,-0.8568,-0.8568,-0.8568,-0.8568,-0.8568,-0.8568,-0.8568,-0.8568,0.0,0.0,0.0,0.0,0.0,0.0,0.0,-0.9536,0.0,-0.9444,0.0,-1.0036,-1.1128,-1.2462,-1.3632,-1.443,0.0,-1.6106,-1.5845,-1.5832,-1.5832,-1.5832,-1.5832,-1.5478,-1.4663,-1.476,-1.4508,0.0,0.0,0.0,0.0,0.0,0.0,0.0,0.0,0.0,0.0,-0.7577,-0.7139,-0.7139,-0.7139,-0.7139,-0.7139,-0.7139,-0.7139,-0.7139,-0.7139,-0.7139,-0.7139,-0.7139,-0.7139,-0.7139,-0.7139,-0.7139,-0.7139,-0.7139,-0.7139,-0.7143,-0.7166,-0.717,-0.7177,-0.7193,-0.72,-0.72,-0.72,-0.7305,-0.74,-0.74,-0.7506,-0.76,0.0,0.0,0.0,0.0,0.0,0.0,0.0,0.0,0.0,0.0,0.0,0.0,-0.717,-0.7153,-0.7139,-0.7139,0.0,0.0,0.0,0.0,0.0,-0.6064,-0.5992,-0.605,-0.6155,0.0,-0.5657,-0.737,-0.5607,-0.5549,-0.7051,-0.6514,-0.6782,-0.7856,-0.8113,-0.8292,-0.8564,-0.8568,-0.8568,-0.8568,-0.8568,-0.8568,-0.8568,-0.8568,-0.8568,-0.8568,0.0,0.0,0.0,0.0,0.0,-0.9532,-0.9365,-0.9707,-0.991,-0.9838,-0.9865,-0.9976,-1.0265,-1.1883,-1.3084,-1.3303,-1.4874,0.0,0.0,0.0,0.0,-1.5832,-1.5832,-1.5571,-1.5048,-1.4018,-1.3857,0.0,0.0,0.0,0.0,0.0,0.0,0.0,0.0,0.0,-0.8803,-0.7577,0.0,-0.7139,-0.7139,-0.7139,-0.7139,-0.7139,-0.7139,-0.7139,-0.7139,-0.7139,-0.7139,-0.7139,-0.7139,-0.7139,-0.7139,-0.7139,-0.7139,-0.7139,-0.7139,-0.717,-0.7295,-0.7329,-0.736,-0.7485,-0.7519,-0.7519,-0.7519,-0.7539,-0.756,-0.756,-0.758,-0.76,-0.76,0.0,0.0,0.0,0.0,0.0,0.0,0.0,0.0,0.0,0.0,-0.7329,0.0,-0.7214,0.0,0.0,0.0,0.0,0.0,0.0,0.0,0.0,-0.6072,0.0,0.0,0.0,-0.6398,-0.737,-0.7067,-0.6902,-0.7139,-0.6962,-0.7143,-0.7595,-0.7856,-0.8116,-0.8292,-0.8476,-0.8568,-0.8568,-0.8568,-0.8568,-0.8568,-0.8568,-0.8568,-0.8568,0.0,0.0,0.0,0.0,0.0,0.0,0.0,-0.9568,0.0,-0.9563,-0.9598,-0.9617,-0.953,-1.0901,-1.1944,-1.2423,-1.3773,-1.486,-1.5635,-1.5635,-1.5737,-1.5832,-1.5255,0.0,-1.4074,-1.2877,-1.2569,-1.3405,0.0,0.0,0.0,0.0,0.0,0.0,0.0,-0.8619,0.0,0.0,0.0,-0.7139,-0.7139,-0.7139,-0.7139,-0.7139,-0.7139,-0.7139,-0.7139,-0.7139,-0.7139,-0.7139,-0.7139,-0.7139,-0.7139,-0.7139,-0.7139,-0.7139,-0.7139,-0.7156,-0.7231,-0.7251,-0.7288,-0.7444,-0.7482,-0.7502,-0.7584,-0.7655,-0.7709,-0.7709,-0.7773,-0.7828,-0.7828,-0.7828,0.0,0.0,0.0,0.0,0.0,0.0,0.0,0.0,0.0,0.0,0.0,0.0,0.0,0.0,0.0,0.0,0.0,0.0,0.0,0.0,0.0,0.0,0.0,0.0,0.0,-0.7489,-0.7411,-0.7288,-0.7139,-0.7139,-0.7319,-0.768,-0.7856,-0.812,-0.8384,-0.8564,-0.8568,-0.8568,-0.8568,-0.8568,-0.8568,-0.8568,-0.8621,-0.8686,0.0,-0.951,0.0,0.0,-0.938,0.0,-0.9201,-0.936,-0.9352,-0.9244,-0.9349,-0.9302,-0.9101,-1.0087,-1.1007,-1.158,-1.2538,-1.3601,-1.4663,-1.4758,-1.4765,-1.4956,-1.419,-1.3486,-1.2747,-1.1574,-1.1263,0.0,0.0,0.0,0.0,0.0,0.0,0.0,0.0,0.0,0.0,0.0,-0.7139,-0.7139,-0.7139,-0.7139,-0.7139,-0.7139,-0.7139,-0.7139,-0.7139,-0.7139,-0.7139,-0.7139,-0.7139,-0.7139,-0.7139,-0.7139,-0.7139,-0.7139,-0.7139,-0.7146,-0.718,-0.7214,-0.7275,-0.7428,-0.7489,-0.7546,-0.7665,-0.778,-0.7862,-0.7862,-0.7957,-0.8038,-0.8038,-0.8038,0.0,0.0,0.0,0.0,0.0,0.0,0.0,0.0,0.0,0.0,-0.7146,0.0,0.0,0.0,0.0,0.0,0.0,0.0,0.0,0.0,0.0,-0.7919,-0.8038,0.0,-0.774,-0.7597,-0.7444,-0.7288,-0.7139,-0.7139,-0.7319,-0.7764,-0.7768,-0.812,-0.8476,-0.8568,-0.8568,-0.8568,-0.8568,-0.8568,-0.8572,-0.8609,-0.8706,-0.8808,0.0,0.0,0.0,0.0,0.0,0.0,-0.8891,-0.8831,-0.8925,-0.9455,-0.9552,-0.9425,-0.9112,-1.0087,-1.0711,-1.0605,-1.1463,-1.2145,-1.2237,-1.2242,-1.2237,-1.2237,-1.2145,-1.1844,-1.1342,-1.0272,-0.9989,0.0,0.0,0.0,0.0,0.0,0.0,0.0,0.0,0.0,0.0,-0.7139,-0.7139,-0.7139,-0.7139,-0.7139,-0.7139,-0.7139,-0.7139,-0.7139,-0.7139,-0.7139,-0.7139,-0.7139,-0.7139,-0.7139,-0.7139,-0.7139,-0.7139,-0.7139,-0.7139,-0.717,-0.7312,-0.7451,-0.759,-0.7733,-0.7875,-0.798,-0.7994,-0.8007,-0.8018,-0.8018,-0.8028,-0.8038,-0.8038,-0.8038,-0.8038,0.0,0.0,0.0,0.0,0.0,-0.7892,-0.7611,0.0,0.0,0.0,-0.7139,0.0,0.0,-0.7139,0.0,0.0,0.0,0.0,-0.76,0.0,-0.8024,-0.8038,-0.7889,-0.774,-0.7597,-0.7444,-0.7288,-0.7139,-0.7139,-0.7139,-0.7231,-0.7415,-0.7768,-0.8288,-0.8476,-0.8568,-0.8568,-0.8568,-0.8568,-0.8584,-0.8739,-0.8808,-0.884,0.0,0.0,0.0,0.0,0.0,0.0,0.0,-0.857,-0.858,-0.8878,-0.8888,-0.8808,-0.8596,-0.8888,-0.9291,-0.9908,-1.0288,-1.0877,-1.1658,-1.1755,-1.1755,-1.1848,-1.1361,-1.084,-1.0471,-0.9218,-0.8995,0.0,0.0,0.0,0.0,0.0,0.0,0.0,0.0,-0.7139,-0.7139,-0.7139,-0.7139,-0.7139,-0.7139,-0.7139,-0.7139,-0.7139,-0.7139,-0.7153,-0.7244,-0.7217,-0.7153,-0.7248,-0.7278,-0.7278,-0.7278,-0.7343,-0.7417,-0.7417,-0.7417,-0.7431,-0.7492,-0.7553,-0.7634,-0.7777,-0.7858,-0.7926,-0.8018,-0.8038,-0.8038,-0.8038,-0.8038,-0.8038,-0.8038,-0.8038,-0.8038,0.0,0.0,0.0,0.0,0.0,0.0,-0.774,0.0,-0.7553,0.0,0.0,0.0,0.0,0.0,0.0,0.0,0.0,0.0,-0.76,0.0,-0.7994,-0.7902,-0.7841,-0.7692,-0.7461,-0.74,-0.7288,-0.7139,-0.7139,-0.7231,-0.7326,-0.7591,-0.794,-0.8201,-0.8292,-0.8472,-0.8568,-0.8568,-0.8629,-0.8727,-0.8796,-0.8958,-0.9153,-0.7093,0.0,-0.7415,0.0,-0.8442,-0.8338,-0.8438,-0.8364,-0.8306,-0.8408,-0.8381,-0.8296,-0.8153,-0.8038,-0.8248,-0.8975,-0.8972,-0.9453,-1.032,-1.0466,-1.0595,-1.0687,-1.0066,0.0,-0.9335,-0.8387,-0.8186,-0.8804,-0.8305,0.0,0.0,0.0,0.0,0.0,-0.7139,-0.7139,-0.7139,-0.7139,-0.7139,-0.7139,-0.7139,-0.7139,-0.7139,-0.7139,-0.717,-0.7221,-0.7333,-0.7329,-0.7292,-0.74,-0.7465,-0.7485,-0.74,-0.7478,-0.76,-0.76,-0.76,-0.76,-0.76,-0.7631,-0.7685,-0.7787,-0.7845,-0.7906,-0.8014,-0.8038,-0.8038,-0.8038,-0.8038,-0.8038,-0.8038,-0.8038,-0.8038,-0.8038,0.0,0.0,0.0,0.0,0.0,0.0,-0.7723,-0.7645,-0.7604,-0.7502,0.0,0.0,0.0,0.0,0.0,0.0,0.0,0.0,0.0,0.0,0.0,-0.777,-0.7621,-0.737,-0.7326,-0.7248,-0.7139,-0.7139,-0.7231,-0.7415,-0.7768,-0.794,-0.8113,-0.8292,-0.8412,-0.8637,-0.8584,-0.8706,-0.8901,-0.8901,-0.9092,-0.9364,-0.6682,-0.6793,-0.7021,-0.8163,-0.8143,-0.814,-0.8435,-0.8364,-0.8272,-0.8272,-0.814,-0.7987,-0.7834,-0.7814,-0.7756,-0.7617,-0.7604,-0.7604,-0.7604,-0.7736,-0.7811,0.0,0.0,-0.7967,-0.7818,-0.7672,-0.7526,-0.7468,0.0,0.0,-0.7143,0.0,-0.7139,-0.7139,-0.7139,-0.7139,-0.7139,-0.7139,-0.7139,-0.7139,-0.7139,-0.7139,-0.7139,-0.7139,-0.7234,-0.737,-0.737,-0.7468,-0.7594,-0.7597,-0.7689,-0.7753,-0.7461,-0.7478,-0.76,-0.76,-0.76,-0.76,-0.76,-0.7702,-0.7811,-0.7811,-0.7926,-0.8038,-0.8038,-0.8038,-0.8038,-0.8038,-0.8038,-0.8038,-0.8038,-0.8038,-0.8038,-0.8038,0.0,0.0,0.0,0.0,0.0,-0.7828,-0.7811,-0.7753,-0.7614,-0.7597,0.0,0.0,0.0,0.0,0.0,0.0,0.0,-0.7804,-0.796,0.0,-0.7814,-0.7672,-0.7522,-0.737,-0.7217,-0.7143,-0.7139,-0.7139,-0.7139,-0.7143,-0.7676,-0.7944,-0.7944,-0.8388,-0.8666,-0.88,-0.8633,-0.8783,-0.9092,-0.9092,-0.9206,-0.938,-0.421,-0.4382,-0.4871,-0.6695,-0.6965,-0.7199,-0.8203,-0.8211,-0.815,-0.8255,-0.8045,-0.7828,-0.7682,-0.7665,-0.7648,0.0,-0.76,-0.76,0.0,-0.7641,-0.7709,-0.7807,-0.7858,-0.7862,-0.7814,-0.7672,-0.7522,-0.737,0.0,0.0,0.0,-0.7139,-0.7139,-0.7139,-0.7139,-0.7139,-0.7139,-0.7139,-0.7139,-0.7149,-0.7255,-0.7299,-0.7309,-0.7414,-0.7482,-0.7539,-0.7638,-0.7641,-0.7614,-0.7709,-0.7773,-0.7794,-0.7699,-0.7777,-0.7899,-0.7899,-0.7899,-0.7899,-0.7899,-0.7933,-0.7967,-0.7967,-0.8004,-0.8038,-0.8038,-0.8038,-0.8038,-0.8038,-0.8038,-0.8038,-0.8038,-0.8038,-0.8038,-0.8038,-0.8038,0.0,0.0,0.0,-0.8021,-0.7974,-0.7967,-0.795,0.0,-0.7804,0.0,0.0,0.0,0.0,0.0,0.0,0.0,0.0,-0.796,0.0,-0.7814,-0.7672,-0.7522,-0.737,-0.7214,-0.7139,-0.7139,-0.7139,-0.7139,-0.7139,-0.7503,-0.7768,-0.7952,-0.8337,-0.8505,-0.8556,-0.8619,-0.8784,-0.8989,-0.8802,-0.9003,-0.9257,-0.303,-0.3224,-0.3725,-0.5529,-0.6098,-0.6608,-0.7449,-0.771,-0.7909,-0.8004,-0.7801,-0.759,-0.7441,-0.7428,0.0,-0.7428,-0.7428,-0.7428,-0.7428,-0.7482,-0.758,-0.7726,-0.7784,-0.7811,-0.7811,0.0,0.0,-0.737,-0.7217,-0.7139,-0.7139,-0.7139,-0.7139,-0.7139,-0.7139,-0.7139,-0.7143,-0.7204,-0.7227,-0.7241,-0.7397,-0.7458,-0.7468,-0.7563,-0.7634,-0.7692,-0.778,-0.779,-0.778,-0.7868,-0.7896,-0.7896,-0.7896,-0.7963,-0.8038,-0.8038,-0.8038,-0.8038,-0.8038,-0.8038,-0.8038,-0.8038,-0.7942,-0.7842,-0.7842,-0.7942,-0.8038,-0.8038,-0.8038,-0.8038,-0.8038,-0.8038,-0.8038,-0.8038,-0.8038,-0.7839,-0.7437,0.0,0.0,0.0,0.0,0.0,0.0,-0.7953,-0.7936,0.0,0.0,0.0,0.0,0.0,0.0,-0.7896,-0.7991,0.0,-0.7814,-0.7723,-0.7577,-0.737,-0.7214,-0.7139,-0.7139,-0.7139,-0.7139,-0.7139,-0.7499,-0.7768,-0.7955,-0.8391,-0.8592,-0.8563,-0.8765,-0.8859,-0.8863,-0.8806,-0.889,-0.9031,-0.2923,-0.3123,0.0,0.0,-0.5438,0.0,-0.6396,-0.7,-0.7506,-0.76,-0.7465,-0.7316,-0.7173,-0.7146,-0.7139,-0.7139,0.0,0.0,0.0,-0.7275,-0.7424,-0.7577,-0.7719,-0.7797,-0.7797,-0.7665,-0.7519,-0.7356,-0.721,-0.7139,-0.7139,-0.7139,-0.7139,-0.7139,-0.7149,-0.7156,-0.7166,-0.7322,-0.7387,-0.74,-0.7553,-0.7614,-0.7614,-0.7628,-0.7712,-0.7828,-0.7828,-0.7919,-0.8038,-0.8038,-0.8038,-0.8038,-0.8038,-0.8038,-0.8038,-0.8038,-0.8038,-0.8038,-0.8038,-0.7939,-0.7939,-0.7942,-0.7746,-0.7547,-0.7547,-0.7743,-0.7839,-0.7839,-0.7839,-0.7736,-0.7736,-0.7736,-0.7736,-0.7736,-0.7736,-0.7437,-0.6434,0.0,0.0,0.0,0.0,0.0,0.0,-0.8038,-0.8038,0.0,0.0,0.0,0.0,0.0,-0.7892,-0.8035,-0.8038,-0.797,-0.7828,-0.7818,-0.7662,-0.737,-0.7238,-0.716,-0.7139,-0.7149,-0.7149,-0.7139,-0.7676,-0.7948,-0.7974,-0.8587,-0.8758,-0.8726,-0.8937,-0.8944,-0.8806,-0.8851,-0.8796,-0.8623,0.0,0.0,-0.231,-0.3359,-0.373,-0.4483,-0.5976,-0.6398,-0.6835,-0.7503,-0.7465,-0.7356,-0.7319,-0.721,-0.7139,-0.7139,-0.7139,-0.7139,-0.7139,-0.7173,-0.7265,-0.7417,-0.757,-0.7648,-0.7648,-0.7617,-0.7468,-0.7193,-0.7156,-0.7139,-0.7139,-0.7139,-0.7139,-0.7146,-0.7265,-0.7316,-0.7326,-0.7478,-0.7546,-0.7556,-0.7702,-0.7763,-0.7773,-0.7889,-0.7957,-0.7984,-0.7984,-0.8007,-0.8038,-0.8038,-0.8038,-0.8038,-0.8038,-0.8038,-0.8038,-0.8038,-0.8038,-0.8038,-0.8038,-0.7437,-0.6939,-0.7759,-0.7662,-0.7363,-0.7459,-0.6948,-0.6439,-0.6439,-0.5932,-0.5527,-0.5527,-0.5527,-0.5527,-0.5527,-0.5527,-0.5427,-0.5227,-0.5427,0.0,0.0,-0.6637,-0.7135,-0.7939,-0.8038,-0.8038,0.0,0.0,0.0,0.0,-0.8004,-0.8001,-0.8038,-0.8038,-0.8021,-0.7984,-0.7868,-0.7662,-0.7373,-0.7455,-0.7366,-0.7143,-0.7261,-0.7251,-0.7139,-0.7676,-0.7927,-0.8057,-0.8774,-0.8855,-0.8638,-0.8762,-0.8758,-0.8428,-0.8294,-0.7803,-0.7229,-0.1617,-0.1606,-0.1789,-0.2358,-0.2801,-0.342,-0.4508,-0.5018,-0.5634,-0.6652,-0.6681,-0.6812,-0.7175,-0.719,-0.7139,-0.7139,-0.7139,-0.7139,-0.7139,-0.7139,-0.721,-0.7363,-0.7451,-0.7556,-0.7692,-0.7563,-0.738,-0.7139,-0.7139,-0.7139,-0.7143,-0.7214,-0.7244,-0.7251,-0.7407,-0.7475,-0.7485,-0.7634,-0.7695,-0.7709,-0.7855,-0.7916,-0.7926,-0.8007,-0.8038,-0.8038,-0.8038,-0.8038,-0.8038,-0.8038,-0.8038,-0.8038,-0.8038,-0.7637,-0.7238,-0.7238,-0.7238,-0.7135,-0.6631,-0.6129,-0.5834,-0.6651,-0.645,-0.5942,-0.5432,-0.5331,-0.5432,-0.5432,-0.5127,-0.4824,-0.4824,-0.4824,-0.4824,-0.4824,-0.4824,-0.4624,-0.4124,-0.4524,0.0,-0.5629,-0.6134,-0.6836,-0.7939,-0.8038,-0.8038,-0.8038,-0.8038,0.0,-0.8038,-0.8038,-0.8038,-0.8038,-0.8038,-0.8038,-0.8038,-0.7889,-0.7729,-0.7573,-0.759,-0.7512,-0.735,-0.7366,-0.7363,-0.7346,-0.7638,-0.7876,-0.804,-0.8675,-0.8703,-0.8415,-0.8667,-0.8528,-0.8237,-0.8237,-0.7534,-0.6634,-0.1617,-0.1592,-0.157,-0.1566,-0.2181,-0.2771,-0.2854,-0.3621,-0.4467,-0.5361,-0.5453,-0.5805,-0.6605,-0.6694,-0.6694,-0.6874,-0.6874,-0.6962,-0.7051,-0.7139,-0.72,-0.7329,-0.736,-0.7499,-0.7773,-0.7533,-0.7319,-0.7139,-0.7163,-0.7177,-0.718,-0.7333,-0.7407,-0.7411,-0.7563,-0.7631,-0.7641,-0.7784,-0.7845,-0.7858,-0.7987,-0.8038,-0.8038,-0.8038,-0.8038,-0.8038,-0.8038,-0.7939,-0.7739,-0.7939,-0.7739,-0.7534,-0.7736,-0.7036,-0.6134,-0.5934,-0.5934,-0.5732,-0.5024,-0.4724,-0.4728,-0.5039,-0.4632,-0.392,-0.3118,-0.362,-0.4325,-0.4325,-0.4325,-0.4325,-0.4325,-0.4325,-0.4325,-0.4325,-0.4325,-0.4024,-0.3123,0.0,-0.4423,-0.4524,-0.5529,-0.6537,-0.7637,-0.7939,-0.8038,-0.8038,-0.8038,-0.8038,-0.8038,-0.8038,-0.8038,-0.8038,-0.8038,-0.8038,-0.8038,-0.7913,-0.7834,-0.7811,-0.7712,-0.7641,-0.7597,-0.7489,-0.7495,-0.7594,-0.7735,-0.7855,-0.8015,-0.8438,-0.8415,-0.8254,-0.8576,-0.8329,-0.7739,-0.8035,-0.7132,-0.5934,-0.1617,-0.1592,-0.1564,-0.1538,-0.1598,-0.2023,-0.2798,-0.3051,-0.3491,-0.4378,-0.4556,-0.4556,-0.4734,-0.4732,-0.509,-0.5808,-0.5897,-0.6251,-0.7051,-0.7139,-0.7149,-0.7177,-0.7302,-0.7455,-0.7628,-0.7587,-0.7424,-0.7139,-0.7272,-0.7336,-0.7339,-0.7492,-0.7563,-0.757,-0.7716,-0.7777,-0.7787,-0.794,-0.8004,-0.8007,-0.8031,-0.8038,-0.8038,-0.8038,-0.8038,-0.8038,-0.8038,-0.7437,-0.6836,-0.7739,-0.683,-0.5427,-0.6334,-0.5929,-0.4826,-0.3925,-0.3725,-0.3825,-0.4624,-0.4427,-0.393,-0.3632,-0.2522,-0.1817,-0.3432,-0.2927,-0.212,-0.212,-0.212,-0.212,-0.212,-0.212,-0.212,-0.212,-0.212,-0.2019,-0.1919,0.0,-0.2422,-0.3323,-0.4425,-0.5427,-0.6537,-0.7437,-0.8038,-0.8038,-0.8038,-0.8038,-0.8038,-0.8038,-0.8038,-0.8038,-0.8038,-0.8038,-0.8038,-0.8018,-0.794,-0.7814,-0.7919,-0.7841,-0.7604,-0.7699,-0.7689,-0.7597,-0.7757,-0.8023,-0.8172,-0.8486,-0.8477,-0.84,-0.8421,-0.7733,-0.6637,-0.6736,-0.5429,-0.3725,-0.1592,-0.1568,-0.1543,-0.1528,-0.1487,-0.1632,-0.2065,-0.2061,-0.2419,-0.34,-0.3578,-0.3757,-0.4289,-0.4289,-0.4467,-0.4914,-0.4914,-0.5092,-0.5536,-0.6514,-0.7139,-0.7139,-0.721,-0.7319,-0.7472,-0.7556,-0.7529,-0.7387,-0.6894,-0.6644,-0.6647,-0.6214,-0.5984,-0.5989,-0.6097,-0.6147,-0.615,-0.6205,-0.6229,-0.6229,-0.6229,-0.6229,-0.6229,-0.6229,-0.6229,-0.6229,-0.6229,-0.5929,-0.5629,-0.6129,-0.5627,-0.4924,-0.5427,-0.4826,-0.3823,-0.3324,-0.2822,-0.2421,-0.2923,-0.2823,-0.2523,-0.2424,-0.1818,-0.1515,-0.2526,-0.2122,-0.1617,-0.1617,-0.1617,-0.1617,-0.1617,-0.1617,-0.1617,-0.1617,-0.1617,0.0,0.0,-0.1617,-0.2019,-0.3024,-0.4124,-0.5227,-0.6337,-0.7338,-0.8038,-0.8038,-0.8038,-0.8038,-0.8038,-0.8038,-0.8038,-0.8038,-0.8038,-0.8038,-0.8038,-0.8038,-0.8004,-0.7936,-0.8007,-0.7967,-0.7834,-0.7818,-0.7821,-0.7831,-0.7842,-0.7894,-0.8136,-0.8234,-0.8273,-0.8137,-0.8137,-0.7434,-0.6437,-0.6437,-0.5031,-0.3224,-0.1571,-0.1547,-0.1524,-0.1517,-0.1471,-0.1436,-0.1436,-0.1436,-0.1704,-0.2419,-0.2509,-0.2865,-0.3576,-0.3666,-0.3755,-0.3933,-0.3933,-0.4111,-0.4287,-0.5625,-0.6425,-0.6425,-0.6487,-0.6557,-0.6721,-0.6798,-0.6868,-0.6838,-0.6102,-0.5638,-0.5641,-0.4975,-0.4628,-0.4632,-0.4794,-0.4824,-0.4824,-0.4824,-0.4824,-0.4824,-0.4824,-0.4824,-0.4824,-0.4824,-0.4824,-0.4824,-0.4824,-0.4624,-0.4423,-0.4724,-0.4423,-0.4124,-0.4325,-0.3725,-0.2822,-0.2822,-0.222,-0.1617,-0.1617,-0.1617,-0.1617,-0.1617,-0.1617,-0.1617,-0.1617,-0.1617,-0.1617,-0.1617,-0.1617,-0.1617,-0.1617,-0.1617,-0.1617,-0.1617,0.0,0.0,0.0,-0.1617,-0.1919,-0.2723,-0.4024,-0.5127,-0.5932,-0.7235,-0.8038,-0.8038,-0.8038,-0.8038,-0.8038,-0.8038,-0.8038,-0.8038,-0.8038,-0.8038,-0.8038,-0.8038,-0.8038,-0.8038,-0.8038,-0.8038,-0.8035,-0.7919,-0.7929,-0.8031,-0.7916,-0.7929,-0.8038,-0.8038,-0.8038,-0.8038,-0.8038,-0.7235,-0.6032,-0.6032,-0.4628,-0.2822,-0.1571,-0.1547,-0.1517,-0.1489,-0.1457,-0.1436,-0.1436,-0.1436,-0.1436,-0.1524,-0.1524,-0.1524,-0.1614,-0.1614,-0.1972,-0.2956,-0.3045,-0.3401,-0.42,-0.4467,-0.4467,-0.4467,-0.4728,-0.4693,-0.4516,-0.4691,-0.4743,-0.4656,-0.4645,-0.4687,-0.4689,-0.4775,-0.4814,-0.4814,-0.482,-0.4824,-0.4824,-0.4824,-0.4824,-0.4824,-0.4824,-0.4824,-0.4824,-0.4824,-0.4824,-0.4824,-0.4824,-0.4124,-0.3423,-0.4423,-0.3525,-0.2019,-0.3022,-0.2622,-0.1718,-0.1718,-0.1617,-0.1617,-0.1617,-0.1617,-0.1617,-0.1617,-0.1617,-0.1617,-0.1617,-0.1617,-0.1617,-0.1617,-0.1617,-0.1617,-0.1617,-0.1617,-0.1617,-0.1617,0.0,0.0,-0.1617,-0.1617,-0.1617,-0.1718,-0.3524,-0.4824,-0.4924,-0.6833,-0.8038,-0.8038,-0.8038,-0.8038,-0.8038,-0.8038,-0.8038,-0.8038,-0.8038,-0.8038,-0.8038,-0.8038,-0.8038,-0.8038,-0.8038,-0.8038,-0.8038,-0.8028,-0.8028,-0.8038,-0.8028,-0.8028,-0.8038,-0.8038,-0.8038,-0.8038,-0.8038,-0.6731,-0.4924,-0.4924,-0.3524,-0.1718,-0.1515,-0.1506,-0.1494,-0.1483,-0.1455,-0.1436,-0.1436,-0.1436,-0.1436,-0.1436,-0.1436,-0.1436,-0.1436,-0.1436,-0.1524,-0.1973,-0.1973,-0.2151,-0.2508,-0.2508,-0.306,-0.4278,-0.4346,-0.4418,-0.4496,-0.4564,-0.4608,-0.4626,-0.4069,-0.3687,-0.3687,-0.3114,-0.2822,-0.2822,-0.2822,-0.2822,-0.2822,-0.2822,-0.2822,-0.2822,-0.2822,-0.2822,-0.2822,-0.2822,-0.2822,-0.2822,-0.2822,-0.2521,-0.222,-0.2723,-0.2321,-0.1718,-0.212,-0.1919,-0.1617,-0.1617,-0.1617,-0.1617,-0.1617,-0.1617,-0.1617,-0.1617,-0.1617,-0.1617,-0.1617,-0.1617,-0.1617,-0.1617,-0.1617,-0.1617,-0.1617,-0.1617,-0.1617,-0.1617,0.0,-0.1617,-0.1617,-0.1617,-0.1617,-0.1617,-0.2923,-0.4024,-0.4724,-0.6129,-0.7238,-0.7939,-0.8038,-0.8038,-0.8038,-0.8038,-0.8038,-0.8038,-0.8038,-0.8038,-0.8038,-0.8038,-0.8038,-0.8038,-0.8038,-0.8038,-0.8038,-0.8038,-0.8038,-0.8038,-0.8038,-0.8038,-0.8038,-0.8038,-0.8038,-0.8038,-0.8038,-0.6731,-0.4824,-0.4824,-0.3423,-0.1617,-0.1493,-0.1495,-0.1492,-0.1483,-0.1463,-0.1446,-0.1437,-0.1436,-0.1436,-0.1436,-0.1436,-0.1436,-0.1436,-0.1436,-0.1436,-0.1436,-0.1436,-0.1436,-0.1436,-0.1436,-0.199,-0.3318,-0.3435,-0.3503,-0.3621,-0.3646,-0.3679,-0.3825,-0.3024,-0.2722,-0.2722,-0.1919,-0.1617,-0.1617,-0.1617,-0.1617,-0.1617,-0.1617,-0.1617,-0.1617,-0.1617,-0.1617,-0.1617,-0.1617,-0.1617,-0.1617,-0.1617,-0.1617,-0.1617,-0.1617,-0.1617,-0.1617,-0.1617,-0.1617,-0.1617,-0.1617,-0.1617,-0.1617,-0.1617,-0.1617,-0.1617,-0.1617,-0.1617,-0.1617,-0.1617,-0.1617,-0.1617,-0.1617,-0.1617,-0.1617,-0.1617,-0.1617,-0.1617,-0.1617,-0.1617,-0.1617,-0.1617,-0.1617,-0.1617,-0.1617,-0.2521,-0.3624,-0.4724,-0.5732,-0.6836,-0.7939,-0.8038,-0.8038,-0.8038,-0.8038,-0.8038,-0.8038,-0.8038,-0.8038,-0.8038,-0.8038,-0.8038,-0.8038,-0.8038,-0.8038,-0.8038,-0.8038,-0.8038,-0.8038,-0.8038,-0.8038,-0.8038,-0.8038,-0.8038,-0.8038,-0.8038,-0.6731,-0.4824,-0.4824,-0.3423,-0.1617,-0.1519,-0.1525,-0.1516,-0.1485,-0.148,-0.147,-0.144,-0.1436,-0.1436,-0.1436,-0.1436,-0.1436,-0.1436,-0.1436,-0.1436,-0.1436,-0.1436,-0.1436,-0.1436,-0.1436,-0.1449,-0.148,-0.151,-0.154,-0.1571,-0.1601,-0.1617,-0.1617,-0.1617,-0.1617,-0.1617,-0.1617,-0.1617,-0.1617,-0.1617,-0.1617,-0.1617,-0.1617,-0.1617,-0.1617,-0.1617,-0.1617,-0.1617,-0.1617,-0.1617,-0.1617,-0.1617,-0.1617,-0.1617,-0.1617,-0.1617,-0.1617,-0.1617,-0.1617,-0.1617,-0.1617,-0.1617,-0.1617,-0.1617,-0.1617,-0.1617,-0.1617,-0.1617,-0.1617,-0.1617,-0.1617,-0.1617,-0.1617,-0.1617,-0.1617,-0.1617,-0.1617,-0.1617,-0.1617,-0.1617,-0.1617,-0.1617,-0.1617,-0.1617,-0.1617,-0.2521,-0.3624,-0.4724,-0.5729,-0.6836,-0.7939,-0.8038,-0.8038,-0.8038,-0.8038,-0.8038,-0.8038,-0.8038,-0.8038,-0.8038,-0.8038,-0.8038,-0.8038,-0.8038,-0.8038,-0.8038,-0.8038,-0.8038,-0.8038,-0.8038,-0.8038,-0.8038,-0.8038,-0.8038,-0.8038,-0.8038,-0.6731,-0.4824,-0.4824,-0.3423,-0.1617,-0.146,-0.1463,-0.1459,-0.1451,-0.1449,-0.1446,-0.1437,-0.1436,-0.1436,-0.1436,-0.1436,-0.1436,-0.1436,-0.1436,-0.1436,-0.1436,-0.1436,-0.1436,-0.1436,-0.1455,-0.148,-0.1511,-0.1521,-0.155,-0.1602,-0.1612,-0.1617,-0.1617,-0.1617,-0.1617,-0.1617,-0.1617,-0.1617,-0.1617,-0.1617,-0.1617,-0.1617,-0.1617,-0.1617,-0.1617,-0.1617,-0.1617,-0.1617,-0.1617,-0.1617,-0.1617,-0.1617,-0.1617,-0.1617,-0.1617,-0.1617,-0.1617,-0.1617,-0.1617,-0.1617,-0.1617,-0.1617,-0.1617,-0.1617,-0.1617,-0.1617,-0.1617,-0.1617,-0.1617,-0.1617,-0.1617,-0.1617,-0.1617,-0.1617,-0.1617,-0.1617,-0.1617,-0.1617,-0.1617,-0.1617,-0.1617,-0.1617,-0.1617,-0.1617,-0.1617,-0.1918,-0.2521,-0.3524,-0.4626,-0.5729,-0.6836,-0.7537,-0.8038,-0.8038,-0.8038,-0.8038,-0.8038,-0.8038,-0.8038,-0.8038,-0.8038,-0.8038,-0.8038,-0.8038,-0.8038,-0.8038,-0.8038,-0.8038,-0.8038,-0.8038,-0.8038,-0.8038,-0.8038,-0.8038,-0.7939,-0.7135,-0.6032,-0.4724,-0.3924,-0.2822,-0.1617,-0.1451,-0.1453,-0.1453,-0.1453,-0.1453,-0.1449,-0.1437,-0.1436,-0.1436,-0.1436,-0.1436,-0.1436,-0.1436,-0.1436,-0.1436,-0.1436,-0.1436,-0.144,-0.1453,-0.147,-0.15,-0.1542,-0.1544,-0.1567,-0.1615,-0.1617,-0.1617,-0.1617,-0.1617,-0.1617,-0.1617,-0.1617,-0.1617,-0.1617,-0.1617,-0.1617,-0.1617,-0.1617,-0.1617,-0.1617,-0.1617,-0.1617,-0.1617,-0.1617,-0.1617,-0.1617,-0.1617,-0.1617,-0.1617,-0.1617,-0.1617,-0.1617,-0.1617,-0.1617,-0.1617,-0.1617,-0.1617,-0.1617,-0.1617,-0.1617,-0.1617,-0.1617,-0.1617,-0.1617,-0.1617,-0.1617,-0.1617,-0.1617,-0.1617,-0.1617,-0.1617,-0.1617,-0.1617,-0.1617,-0.1617,-0.1617,-0.1617,-0.1617,-0.1617,-0.1617,-0.1617,-0.2019,-0.3123,-0.3825,-0.4826,-0.6334,-0.7036,-0.754,-0.7939,-0.8038,-0.8038,-0.8038,-0.8038,-0.8038,-0.8038,-0.8038,-0.8038,-0.8038,-0.8038,-0.8038,-0.8038,-0.8038,-0.8038,-0.8038,-0.8038,-0.8038,-0.8038,-0.8038,-0.8038,-0.7939,-0.6836,-0.5729,-0.4624,-0.3624,-0.2521,-0.1617,-0.1471,-0.1476,-0.1476,-0.1476,-0.1476,-0.1468,-0.144,-0.1436,-0.1436,-0.1436,-0.1436,-0.1436,-0.1436,-0.1436,-0.1436,-0.1436,-0.1436,-0.1448,-0.1478,-0.1483,-0.151,-0.1569,-0.1574,-0.1589,-0.1616,-0.1617,-0.1617,-0.1617,-0.1617,-0.1617,-0.1617,-0.1617,-0.1617,-0.1617,-0.1617,-0.1617,-0.1617,-0.1617,-0.1617,-0.1617,-0.1617,-0.1617,-0.1617,-0.1617,-0.1617,-0.1617,-0.1617,-0.1617,-0.1617,-0.1617,-0.1617,-0.1617,-0.1617,-0.1617,-0.1617,-0.1617,-0.1617,-0.1617,-0.1617,-0.1617,-0.1617,-0.1617,-0.1617,-0.1617,-0.1617,-0.1617,-0.1617,-0.1617,-0.1617,-0.1617,-0.1617,-0.1617,-0.1617,-0.1617,-0.1617,-0.1617,-0.1617,-0.1617,-0.1617,-0.1617,-0.1617,-0.2019,-0.2923,-0.3123,-0.4026,-0.6134,-0.6334,-0.6836,-0.7839,-0.7939,-0.8038,-0.8038,-0.8038,-0.8038,-0.8038,-0.8038,-0.8038,-0.8038,-0.8038,-0.8038,-0.8038,-0.8038,-0.8038,-0.8038,-0.8038,-0.8038,-0.8038,-0.8038,-0.7939,-0.7739,-0.6637,-0.5629,-0.4524,-0.3423,-0.2422,-0.1617,-0.1444,-0.1445,-0.1445,-0.1445,-0.1445,-0.1443,-0.1436,-0.1436,-0.1436,-0.1436,-0.1436,-0.1436,-0.1436,-0.1436,-0.1436,-0.1436,-0.1436,-0.1448,-0.1478,-0.1503,-0.1533,-0.157,-0.1594,-0.161,-0.1617,-0.1617,-0.1617,-0.1617,-0.1617,-0.1617,-0.1617,-0.1617,-0.1617,-0.1617,-0.1617,-0.1617,-0.1617,-0.1617,-0.1617,-0.1617,-0.1617,-0.1617,-0.1617,-0.1617,-0.1617,-0.1617,-0.1617,-0.1617,-0.1617,-0.1617,-0.1617,-0.1617,-0.1617,-0.1617,-0.1617,-0.1617,-0.1617,-0.1617,-0.1617,-0.1617,-0.1617,-0.1617,-0.1617,-0.1617,-0.1617,-0.1617,-0.1617,-0.1617,-0.1617,-0.1617,-0.1617,-0.1617,-0.1617,-0.1617,-0.1617,-0.1617,-0.1617,-0.1617,-0.1617,-0.1617,-0.1617,-0.1718,-0.1919,-0.2722,-0.3725,-0.5027,-0.5932,-0.6537,-0.6736,-0.7537,-0.8038,-0.8038,-0.8038,-0.8038,-0.8038,-0.8038,-0.8038,-0.8038,-0.8038,-0.8038,-0.8038,-0.8038,-0.8038,-0.8038,-0.8038,-0.8038,-0.8038,-0.8038,-0.7537,-0.6634,-0.5529,-0.4526,-0.3423,-0.2321,-0.1818,-0.1617,-0.1436,-0.1436,-0.1436,-0.1436,-0.1436,-0.1436,-0.1436,-0.1436,-0.144,-0.1455,-0.1444,-0.1441,-0.1455,-0.1444,-0.1441,-0.1455,-0.147,-0.1491,-0.1522,-0.1539,-0.1562,-0.1592,-0.1609,-0.1617,-0.1617,-0.1617,-0.1617,-0.1617,-0.1617,-0.1617,-0.1617,-0.1617,-0.1617,-0.1617,-0.1617,-0.1617,-0.1617,-0.1617,-0.1617,-0.1617,-0.1617,-0.1617,-0.1617,-0.1617,-0.1617,-0.1617,-0.1617,-0.1617,-0.1617,-0.1617,-0.1617,-0.1617,-0.1617,-0.1617,-0.1617,-0.1617,-0.1617,-0.1617,-0.1617,-0.1617,-0.1617,-0.1617,-0.1617,-0.1617,-0.1617,-0.1617,-0.1617,-0.1617,-0.1617,-0.1617,-0.1617,-0.1617,-0.1617,-0.1617,-0.1617,-0.1622,-0.1637,-0.1639,-0.1643,-0.1657,-0.1658,-0.1658,-0.1658,-0.2158,-0.2962,-0.3977,-0.4589,-0.5097,-0.5705,-0.6667,-0.7269,-0.7333,-0.7775,-0.8038,-0.8038,-0.8038,-0.8038,-0.8038,-0.8038,-0.8038,-0.8038,-0.8038,-0.8038,-0.8038,-0.8038,-0.8038,-0.7939,-0.7437,-0.6936,-0.6234,-0.4626,-0.3725,-0.3024,-0.2019,-0.1617,-0.1617,-0.1442,-0.1443,-0.1444,-0.145,-0.1451,-0.1451,-0.1451,-0.1446,-0.1454,-0.1485,-0.1457,-0.1446,-0.1477,-0.1458,-0.1455,-0.1486,-0.1511,-0.1539,-0.1569,-0.1571,-0.1585,-0.1615,-0.1617,-0.1617,-0.1617,-0.1617,-0.1617,-0.1617,-0.1617,-0.1617,-0.1617,-0.1617,-0.1617,-0.1617,-0.1617,-0.1617,-0.1617,-0.1617,-0.1617,-0.1617,-0.1617,-0.1617,-0.1617,-0.1617,-0.1617,-0.1617,-0.1617,-0.1617,-0.1617,-0.1617,-0.1617,-0.1617,-0.1617,-0.1617,-0.1617,-0.1617,-0.1617,-0.1617,-0.1617,-0.1617,-0.1617,-0.1617,-0.1617,-0.1617,-0.1617,-0.1617,-0.1617,-0.1617,-0.1617,-0.1617,-0.1617,-0.1617,-0.1619,-0.1624,-0.1624,-0.1635,-0.1665,-0.1669,-0.1678,-0.1701,-0.1704,-0.1704,-0.1704,-0.1683,-0.2086,-0.2914,-0.3226,-0.364,-0.457,-0.563,-0.6235,-0.654,-0.7363,-0.7899,-0.8079,-0.8102,-0.8089,-0.8038,-0.8092,-0.8089,-0.8038,-0.8038,-0.8038,-0.8038,-0.8038,-0.8038,-0.7939,-0.6836,-0.6334,-0.5934,-0.3925,-0.3123,-0.2822,-0.1919,-0.1617,-0.1617,-0.147,-0.1474,-0.1483,-0.1509,-0.1514,-0.1514,-0.1514,-0.1491,-0.1485,-0.1516,-0.147,-0.1446,-0.1477,-0.1477,-0.1487,-0.1517,-0.1523,-0.1539,-0.1569,-0.1571,-0.1585,-0.1615,-0.1617,-0.1617,-0.1617,-0.1617,-0.1617,-0.1617,-0.1617,-0.1617,-0.1617,-0.1617,-0.1617,-0.1617,-0.1617,-0.1617,-0.1617,-0.1617,-0.1617,-0.1617,-0.1617,-0.1617,-0.1617,-0.1617,-0.1617,-0.1617,-0.1617,-0.1617,-0.1617,-0.1617,-0.1617,-0.1617,-0.1617,-0.1617,-0.1617,-0.1617,-0.1617,-0.1617,-0.1617,-0.1617,-0.1617,-0.1617,-0.1617,-0.1617,-0.1617,-0.1617,-0.1617,-0.1617,-0.1617,-0.1617,-0.1617,-0.1617,-0.1626,-0.1652,-0.1656,-0.1666,-0.1695,-0.1699,-0.17,-0.1704,-0.1704,-0.1704,-0.1704,-0.1701,-0.1804,-0.191,-0.2757,-0.3392,-0.3498,-0.4541,-0.5591,-0.6658,-0.6854,-0.7318,-0.8241,-0.836,-0.8292,-0.8041,-0.8299,-0.8286,-0.8038,-0.8038,-0.8038,-0.8038,-0.8038,-0.8038,-0.7939,-0.6836,-0.5832,-0.4924,-0.3725,-0.2622,-0.1818,-0.1617,-0.1617,-0.1617,-0.1475,-0.1467,-0.147,-0.1517,-0.1512,-0.1506,-0.1523,-0.1515,-0.1517,-0.1547,-0.1513,-0.1498,-0.1528,-0.1532,-0.1537,-0.155,-0.1567,-0.1583,-0.1596,-0.1597,-0.1603,-0.1616,-0.1617,-0.1617,-0.1617,-0.1617,-0.1617,-0.1617,-0.1617,-0.1617,-0.1617,-0.1617,-0.1617,-0.1617,-0.1617,-0.1617,-0.1617,-0.1617,-0.1617,-0.1617,-0.1617,-0.1617,-0.1617,-0.1617,-0.1617,-0.1617,-0.1617,-0.1617,-0.1617,-0.1617,-0.1617,-0.1617,-0.1617,-0.1617,-0.1617,-0.1617,-0.1617,-0.1617,-0.1617,-0.1617,-0.1617,-0.1617,-0.1617,-0.1617,-0.1617,-0.1617,-0.1617,-0.1617,-0.1617,-0.1617,-0.1617,-0.163,-0.1647,-0.166,-0.1675,-0.1696,-0.1725,-0.173,-0.1736,-0.1752,-0.174,-0.1736,-0.1753,-0.174,-0.173,-0.173,-0.2161,-0.2485,-0.2485,-0.3421,-0.4589,-0.5815,-0.576,-0.6235,-0.7446,-0.75,-0.7049,-0.6321,-0.7052,-0.7701,-0.8041,-0.813,-0.8123,-0.8038,-0.8038,-0.7637,-0.7036,-0.5932,-0.4826,-0.3825,-0.2723,-0.2019,-0.1617,-0.1617,-0.1617,-0.1617]},{"header":{"parameterUnit":"m.s-1","parameterCategory":1,"la1":30.6,"la2":28.766,"lo1":-90.7593,"lo2":-88.6598,"dy":0.0162,"dx":0.0183,"nx":116,"ny":114,"refTime":"2023-07-21T12:00:00:Z","depth":0,"parameterNumber":3,"parameterNumberName":"V-component_of_WINDS"},"data":[0.0,0.0,0.0,0.0,0.0,0.0,0.0,0.0,0.0,0.0,0.0,0.0,0.0,0.0,0.0,0.0,0.0,0.0,0.0,0.0,0.0,0.0,0.0,0.0,0.0,0.0,0.0,0.0,0.0,0.0,0.0,0.0,0.0,0.0,0.0,0.0,0.0,0.0,0.0,0.0,0.0,0.0,0.0,0.0,0.0,0.0,0.0,0.0,0.0,0.0,0.0,0.0,0.0,0.0,0.0,0.0,0.0,0.0,0.0,0.0,0.0,0.0,0.0,0.0,0.0,0.0,0.0,0.0,0.0,0.0,0.0,0.0,0.0,0.0,0.0,0.0,0.0,0.0,0.0,0.0,0.0,0.0,0.0,0.0,0.0,0.0,0.0,0.0,0.0,0.0,0.0,0.0,0.0,0.0,0.0,0.0,0.0,0.0,0.0,0.0,0.0,0.0,0.0,0.0,0.0,0.0,0.0,0.0,0.0,0.0,0.0,0.0,0.0,0.0,0.0,0.0,0.0,0.0,0.0,0.0,0.0,0.0,0.0,0.0,0.0,0.0,0.0,0.0,0.0,0.0,0.0,0.0,0.0,0.0,0.0,0.0,0.0,0.0,0.0,0.0,0.0,0.0,0.0,0.0,0.0,0.0,0.0,0.0,0.0,0.0,0.0,0.0,0.0,0.0,0.0,0.0,0.0,0.0,0.0,0.0,0.0,0.0,0.0,0.0,0.0,0.0,0.0,0.0,0.0,0.0,0.0,0.0,0.0,0.0,0.0,0.0,0.0,0.0,0.0,0.0,0.0,0.0,0.0,0.0,0.0,0.0,0.0,0.0,0.0,0.0,0.0,0.0,0.0,0.0,0.0,0.0,0.0,0.0,0.0,0.0,0.0,0.0,0.0,0.0,0.0,0.0,0.0,0.0,0.0,0.0,0.0,0.0,0.0,0.0,0.0,0.0,0.0,0.0,0.0,0.0,0.0,0.0,0.0,0.0,0.0,0.0,0.0,0.0,0.0,0.0,0.0,0.0,0.0,0.0,0.0,0.0,0.0,0.0,0.0,0.0,0.0,0.0,0.0,0.0,0.0,0.0,0.0,0.0,0.0,0.0,0.0,0.0,0.0,0.0,0.0,0.0,0.0,0.0,0.0,0.0,0.0,0.0,0.0,0.0,0.0,0.0,0.0,0.0,0.0,0.0,0.0,0.0,0.0,0.0,0.0,0.0,0.0,0.0,0.0,0.0,0.0,0.0,0.0,0.0,0.0,0.0,0.0,0.0,0.0,0.0,0.0,0.0,0.0,0.0,0.0,0.0,0.0,0.0,0.0,0.0,0.0,0.0,0.0,0.0,0.0,0.0,0.0,0.0,0.0,0.0,0.0,0.0,0.0,0.0,0.0,0.0,0.0,0.0,0.0,0.0,0.0,0.0,0.0,0.0,0.0,0.0,0.0,0.0,0.0,0.0,0.0,0.0,0.0,0.0,0.0,0.0,0.0,0.0,0.0,0.0,0.0,0.0,0.0,0.0,0.0,0.0,0.0,0.0,0.0,0.0,0.0,0.0,0.0,0.0,0.0,0.0,0.0,0.0,0.0,0.0,0.0,0.0,0.0,0.0,0.0,0.0,0.0,0.0,0.0,0.0,0.0,0.0,0.0,0.0,0.0,0.0,0.0,0.0,0.0,0.0,0.0,0.0,0.0,0.0,0.0,0.0,0.0,0.0,0.0,0.0,0.0,0.0,0.0,0.0,0.0,0.0,0.0,0.0,0.0,0.0,0.0,0.0,0.0,0.0,0.0,0.0,0.0,0.0,0.0,0.0,0.0,0.0,0.0,0.0,0.0,0.0,0.0,0.0,0.0,0.0,0.0,0.0,0.0,0.0,0.0,0.0,0.0,0.0,0.0,0.0,0.0,0.0,0.0,0.0,0.0,0.0,0.0,0.0,0.0,0.0,0.0,0.0,0.0,0.0,0.0,0.0,0.0,0.0,0.0,0.0,0.0,0.0,0.0,0.0,0.0,0.0,0.0,0.0,0.0,0.0,0.0,0.0,0.0,0.0,0.0,0.0,0.0,0.0,0.0,0.0,0.0,0.0,0.0,0.0,0.0,0.0,0.0,0.0,0.0,0.0,0.0,0.0,0.0,0.0,0.0,0.0,0.0,0.0,0.0,0.0,0.0,0.0,0.0,0.0,0.0,0.0,0.0,0.0,0.0,0.0,0.0,0.0,0.0,0.0,0.0,0.0,0.0,0.0,0.0,0.0,0.0,0.0,0.0,0.0,0.0,0.0,0.0,0.0,0.0,0.0,0.0,0.0,0.0,0.0,0.0,0.0,0.0,0.0,0.0,0.0,0.0,0.0,0.0,0.0,0.0,0.0,0.0,0.0,0.0,0.0,0.0,0.0,0.0,0.0,0.0,0.0,0.0,0.0,0.0,0.0,0.0,0.0,0.0,0.0,0.0,0.0,0.0,0.0,0.0,0.0,0.0,0.0,0.0,0.0,0.0,0.0,0.0,0.0,0.0,0.0,0.0,0.0,0.0,0.0,0.0,0.0,0.0,0.0,0.0,0.0,0.0,0.0,0.0,0.0,0.0,0.0,0.0,0.0,0.0,0.0,0.0,0.0,0.0,0.0,0.0,0.0,0.0,0.0,0.0,0.0,0.0,0.0,0.0,0.0,0.0,0.0,0.0,0.0,0.0,0.0,0.0,0.0,0.0,0.0,0.0,0.0,0.0,0.0,0.0,0.0,0.0,0.0,0.0,0.0,0.0,0.0,0.0,0.0,0.0,0.0,0.0,0.0,0.0,0.0,0.0,0.0,0.0,0.0,0.0,0.0,0.0,0.0,0.0,0.0,0.0,0.0,0.0,0.0,0.0,0.0,0.0,0.0,0.0,0.0,0.0,0.0,0.0,0.0,0.0,0.0,0.0,0.0,0.0,0.0,0.0,0.0,0.0,0.0,0.0,0.0,0.0,0.0,0.0,0.0,0.0,0.0,0.0,0.0,0.0,0.0,0.0,0.0,0.0,0.0,0.0,0.0,0.0,0.0,0.0,0.0,0.0,0.0,0.0,0.0,0.0,0.0,0.0,0.0,0.0,0.0,0.0,0.0,0.0,0.0,0.0,0.0,0.0,0.0,0.0,0.0,0.0,0.0,0.0,0.0,0.0,0.0,0.0,0.0,0.0,0.0,0.0,0.0,0.0,0.0,0.0,0.0,0.0,0.0,0.0,0.0,0.0,0.0,0.0,0.0,0.0,0.0,0.0,0.0,0.0,0.0,0.0,0.0,0.0,0.0,0.0,0.0,0.0,0.0,0.0,0.0,0.0,0.0,0.0,0.0,0.0,0.0,0.0,0.0,0.0,0.0,0.0,0.0,0.0,0.0,0.0,0.0,0.0,0.0,0.0,0.0,0.0,0.0,0.0,0.0,0.0,0.0,0.0,0.0,0.0,0.0,0.0,0.0,0.0,0.0,0.0,0.0,0.0,0.0,0.0,0.0,0.0,0.0,0.0,0.0,0.0,0.0,0.0,0.0,0.0,0.0,0.0,0.0,0.0,0.0,0.0,0.0,0.0,0.0,0.0,0.0,0.0,0.0,0.0,0.0,0.0,0.0,0.0,0.0,0.0,0.0,0.0,0.0,0.0,0.0,0.0,0.0,0.0,0.0,0.0,0.0,0.0,0.0,0.0,0.0,0.0,0.0,0.0,0.0,0.0,0.0,0.0,0.0,0.0,0.0,0.0,0.0,0.0,0.0,0.0,0.0,0.0,0.0,0.0,0.0,0.0,0.0,0.0,0.0,0.0,0.0,0.0,0.0,0.0,0.0,0.0,0.0,0.0,0.0,0.0,0.0,0.0,0.0,0.0,0.0,0.0,0.0,0.0,0.0,0.0,0.0,0.0,0.0,0.0,0.0,0.0,0.0,0.0,0.0,0.0,0.0,0.0,0.0,0.0,0.0,0.0,0.0,0.0,0.0,0.0,0.0,0.0,0.0,0.0,0.0,0.0,0.0,0.0,0.0,0.0,0.0,0.0,0.0,0.0,0.0,0.0,0.0,0.0,0.0,0.0,0.0,0.0,0.0,0.0,0.0,0.0,0.0,0.0,0.0,0.0,0.0,0.0,0.0,0.0,0.0,0.0,0.0,0.0,0.0,0.0,0.0,0.0,0.0,0.0,0.0,0.0,0.0,0.0,0.0,0.0,0.0,0.0,0.0,0.0,0.0,0.0,0.0,0.0,0.0,0.0,0.0,0.0,0.0,0.0,0.0,0.0,0.0,0.0,0.0,0.0,0.0,0.0,0.0,0.0,0.0,0.0,0.0,0.0,0.0,0.0,0.0,0.0,0.0,0.0,0.0,0.0,0.0,0.0,0.0,0.0,0.0,0.0,0.0,0.0,0.0,0.0,0.0,0.0,0.0,0.0,0.0,0.0,0.0,0.0,0.0,0.0,0.0,0.0,0.0,0.0,0.0,0.0,0.0,0.0,0.0,0.0,0.0,0.0,0.0,0.0,0.0,0.0,0.0,0.0,0.0,0.0,0.0,0.0,0.0,0.0,0.0,0.0,0.0,0.0,0.0,0.0,0.0,0.0,0.0,0.0,0.0,0.0,0.0,0.0,0.0,0.0,0.0,0.0,0.0,0.0,0.0,0.0,0.0,0.0,0.0,0.0,0.0,0.0,0.0,0.0,0.0,0.0,0.0,0.0,0.0,0.0,0.0,0.0,0.0,0.0,0.0,0.0,0.0,0.0,0.0,0.0,0.0,0.0,0.0,0.0,0.0,0.0,0.0,0.0,0.0,0.0,0.0,0.0,0.0,0.0,0.0,0.0,0.0,0.0,0.0,0.0,0.0,0.0,0.0,0.0,0.0,0.0,0.0,0.0,0.0,0.0,0.0,0.0,0.0,0.0,0.0,0.0,0.0,0.0,0.0,0.0,0.0,0.0,0.0,0.0,0.0,0.0,0.0,0.0,0.0,0.0,0.0,0.0,0.0,0.0,0.0,0.0,0.0,0.0,0.0,0.0,0.0,0.0,0.0,0.0,0.0,0.0,0.0,0.0,0.0,0.0,0.0,0.0,0.0,0.0,0.0,0.0,0.0,0.0,0.0,0.0,0.0,0.0,0.0,0.0,0.0,0.0,0.0,0.0,0.0,0.0,0.0,0.0,0.0,0.0,0.0,0.0,0.0,0.0,0.0,0.0,0.0,0.0,0.0,0.0,0.0,0.0,0.0,0.0,0.0,0.0,0.0,0.0,0.0,0.0,0.0,0.0,0.0,0.0,0.0,0.0,0.0,0.0,0.0,0.0,0.0,0.0,0.0,0.0,0.0,0.0,0.0,0.0,0.0,0.0,0.0,0.0,0.0,0.0,0.0,0.0,0.0,0.0,0.0,0.0,0.0,0.0,0.0,0.0,0.0,0.0,0.0,0.0,0.0,0.0,0.0,0.0,0.0,0.0,0.0,0.0,0.0,0.0,0.0,0.0,0.0,0.0,0.0,0.0,0.0,0.0,0.0,0.0,0.0,0.0,0.0,0.0,0.0,0.0,0.0,0.0,0.0,0.0,0.0,0.0,0.0,0.0,0.0,0.0,0.0,0.0,0.0,0.0,0.0,0.0,0.0,0.0,0.0,0.0,0.0,0.0,0.0,0.0,0.0,0.0,0.0,0.0,0.0,0.0,0.0,0.0,0.0,0.0,0.0,0.0,0.0,0.0,0.0,0.0,0.0,0.0,0.0,0.0,0.0,0.0,0.0,0.0,0.0,0.0,0.0,0.0,0.0,0.0,0.0,0.0,0.0,0.0,0.0,0.0,0.0,0.0,0.0,0.0,0.0,0.0,0.0,0.0,0.0,0.0,0.0,0.0,0.0,0.0,0.0,0.0,0.0,0.0,0.0,0.0,0.0,0.0,0.0,0.0,0.0,0.0,0.0,0.0,0.0,0.0,0.0,0.0,0.0,0.0,0.0,0.0,0.0,0.0,0.0,0.0,0.0,0.0,0.0,0.0,0.0,0.0,0.0,0.0,0.0,0.0,0.0,0.0,0.0,0.0,0.0,0.0,0.0,0.0,0.0,0.0,0.0,0.0,0.0,0.0,0.0,0.0,0.0,-2.5909,0.0,0.0,0.0,0.0,0.0,0.0,0.0,0.0,0.0,0.0,0.0,0.0,0.0,0.0,0.0,0.0,0.0,0.0,0.0,0.0,0.0,0.0,0.0,0.0,0.0,0.0,0.0,0.0,0.0,0.0,0.0,0.0,0.0,0.0,0.0,0.0,0.0,0.0,0.0,0.0,0.0,0.0,0.0,0.0,0.0,0.0,0.0,0.0,0.0,0.0,0.0,0.0,0.0,0.0,0.0,0.0,0.0,0.0,0.0,0.0,0.0,0.0,0.0,0.0,0.0,0.0,0.0,0.0,0.0,0.0,0.0,0.0,0.0,0.0,0.0,0.0,0.0,0.0,0.0,0.0,0.0,0.0,0.0,0.0,0.0,0.0,0.0,0.0,0.0,0.0,0.0,0.0,0.0,0.0,0.0,0.0,0.0,0.0,0.0,0.0,0.0,0.0,0.0,0.0,0.0,0.0,0.0,0.0,0.0,0.0,0.0,0.0,0.0,0.0,0.0,0.0,-2.6627,0.0,0.0,0.0,0.0,0.0,0.0,0.0,0.0,0.0,0.0,0.0,0.0,0.0,0.0,0.0,0.0,0.0,0.0,0.0,0.0,0.0,0.0,0.0,0.0,0.0,0.0,0.0,0.0,0.0,0.0,0.0,0.0,0.0,0.0,0.0,0.0,0.0,0.0,0.0,0.0,0.0,0.0,0.0,0.0,0.0,0.0,0.0,0.0,0.0,0.0,0.0,0.0,0.0,0.0,0.0,0.0,0.0,0.0,0.0,0.0,0.0,0.0,0.0,0.0,0.0,0.0,0.0,0.0,0.0,0.0,0.0,0.0,0.0,0.0,0.0,0.0,0.0,0.0,0.0,0.0,0.0,0.0,0.0,0.0,0.0,0.0,0.0,0.0,0.0,0.0,0.0,0.0,0.0,0.0,0.0,0.0,0.0,0.0,0.0,0.0,0.0,0.0,0.0,0.0,0.0,0.0,0.0,0.0,-2.9035,-2.8818,-2.7993,-2.8102,-2.8983,-3.0163,-2.8399,-2.8176,-2.9132,-2.7494,0.0,0.0,0.0,0.0,0.0,0.0,0.0,0.0,0.0,0.0,0.0,0.0,0.0,0.0,0.0,0.0,0.0,0.0,0.0,0.0,0.0,0.0,0.0,0.0,0.0,0.0,0.0,0.0,0.0,0.0,0.0,0.0,0.0,0.0,0.0,0.0,0.0,0.0,0.0,0.0,0.0,0.0,0.0,0.0,0.0,0.0,0.0,0.0,0.0,0.0,0.0,0.0,0.0,0.0,0.0,0.0,0.0,0.0,0.0,0.0,0.0,0.0,0.0,0.0,0.0,0.0,0.0,0.0,0.0,0.0,0.0,0.0,0.0,0.0,0.0,0.0,0.0,0.0,0.0,0.0,0.0,0.0,0.0,0.0,0.0,0.0,-3.1235,-2.9792,0.0,0.0,0.0,0.0,0.0,0.0,0.0,0.0,0.0,0.0,0.0,0.0,0.0,-2.8647,-3.0455,-3.057,-3.038,-2.9764,-3.057,-3.0301,-2.91,-2.9745,-3.0318,-3.0684,-3.0034,0.0,-2.9783,-2.8426,0.0,0.0,0.0,0.0,0.0,0.0,0.0,0.0,0.0,0.0,0.0,0.0,0.0,0.0,0.0,0.0,0.0,0.0,0.0,0.0,0.0,0.0,0.0,0.0,0.0,0.0,0.0,0.0,0.0,0.0,0.0,0.0,0.0,0.0,0.0,0.0,0.0,0.0,0.0,0.0,0.0,0.0,0.0,0.0,0.0,0.0,0.0,0.0,0.0,0.0,0.0,0.0,0.0,0.0,0.0,0.0,0.0,0.0,0.0,0.0,0.0,0.0,0.0,0.0,0.0,0.0,0.0,0.0,0.0,0.0,0.0,0.0,0.0,0.0,0.0,0.0,0.0,0.0,0.0,0.0,0.0,0.0,0.0,0.0,0.0,-3.1683,-3.2165,-3.0015,-2.9881,-2.9154,0.0,0.0,0.0,0.0,0.0,0.0,0.0,0.0,0.0,-3.0586,-3.1118,-3.1585,-3.1987,-3.1912,-3.1733,-3.1368,-3.1158,-3.0967,-3.0883,-3.0895,-3.1126,-3.1663,-3.1335,-3.1035,-3.0675,-2.9202,-2.8346,-2.7999,0.0,0.0,0.0,0.0,-2.8635,-2.9992,0.0,0.0,0.0,0.0,0.0,0.0,0.0,0.0,0.0,0.0,0.0,0.0,0.0,0.0,0.0,0.0,0.0,0.0,0.0,0.0,0.0,0.0,0.0,0.0,0.0,0.0,0.0,0.0,0.0,0.0,0.0,0.0,0.0,0.0,0.0,0.0,0.0,0.0,0.0,0.0,0.0,0.0,0.0,0.0,0.0,0.0,0.0,0.0,0.0,0.0,0.0,0.0,0.0,0.0,0.0,0.0,0.0,0.0,0.0,0.0,0.0,0.0,0.0,0.0,0.0,0.0,0.0,0.0,0.0,0.0,0.0,0.0,0.0,0.0,0.0,0.0,0.0,-3.272,-3.3121,-3.0273,-3.1214,-3.0976,0.0,0.0,0.0,0.0,0.0,0.0,-3.0828,-3.1232,-3.1932,-3.3266,-3.3908,-3.4156,-3.3929,-3.3409,-3.3112,-3.3072,-3.1834,-3.1636,-3.2189,-3.1686,-3.1822,-3.2241,-3.1843,-3.1535,-3.1165,-2.9867,-2.9252,-2.9149,-2.8591,-2.8677,-2.9035,-2.9035,-2.9768,-3.1058,0.0,0.0,0.0,0.0,0.0,0.0,0.0,0.0,0.0,0.0,0.0,0.0,0.0,0.0,0.0,0.0,0.0,0.0,0.0,0.0,0.0,0.0,0.0,0.0,0.0,0.0,0.0,0.0,0.0,0.0,0.0,0.0,0.0,0.0,0.0,0.0,0.0,0.0,0.0,0.0,0.0,0.0,0.0,0.0,0.0,0.0,0.0,0.0,0.0,0.0,0.0,0.0,0.0,0.0,0.0,0.0,0.0,0.0,0.0,0.0,0.0,0.0,0.0,0.0,0.0,0.0,0.0,0.0,0.0,0.0,0.0,0.0,0.0,0.0,0.0,0.0,0.0,0.0,0.0,-3.1323,-3.3504,0.0,0.0,0.0,0.0,-3.0351,-3.1186,-3.2441,-3.4209,-3.3087,-3.3791,-3.6676,-3.5157,-3.509,-3.676,-3.5332,-3.4555,-3.4594,-3.3006,-3.2376,-3.2388,-3.2363,-3.2167,-3.1916,-3.1369,-3.1054,-3.0871,-3.0637,-2.997,-2.9149,-2.8591,-2.8677,-2.9035,-2.9035,-2.9544,-3.0473,0.0,0.0,0.0,0.0,0.0,0.0,0.0,0.0,0.0,0.0,0.0,0.0,0.0,0.0,0.0,0.0,0.0,0.0,0.0,0.0,0.0,0.0,0.0,0.0,0.0,0.0,0.0,0.0,0.0,0.0,0.0,0.0,0.0,0.0,0.0,0.0,0.0,0.0,0.0,0.0,0.0,0.0,0.0,0.0,0.0,0.0,0.0,0.0,0.0,0.0,0.0,0.0,0.0,0.0,0.0,0.0,0.0,0.0,0.0,0.0,0.0,0.0,0.0,0.0,0.0,0.0,0.0,0.0,0.0,0.0,0.0,0.0,0.0,0.0,0.0,0.0,0.0,0.0,0.0,-3.4422,-3.568,0.0,-3.3619,-3.2526,-3.2414,-3.3475,-3.3826,-3.4822,-3.6654,-3.6267,-3.6207,-3.6727,-3.7112,-3.6456,-3.4716,-3.5059,-3.4822,-3.3918,-3.2885,-3.266,-3.3069,-3.271,-3.2339,-3.1891,-3.1847,-3.1424,-3.0912,-3.0833,-3.0546,-3.0136,-2.9931,-3.0077,-3.0285,-3.0285,-3.0668,-3.1502,0.0,0.0,0.0,0.0,0.0,0.0,0.0,0.0,0.0,0.0,0.0,0.0,0.0,0.0,0.0,0.0,0.0,0.0,0.0,0.0,0.0,0.0,0.0,0.0,0.0,0.0,0.0,0.0,0.0,0.0,0.0,0.0,0.0,0.0,0.0,0.0,0.0,0.0,0.0,0.0,0.0,0.0,-3.2339,0.0,0.0,0.0,0.0,0.0,0.0,0.0,0.0,0.0,0.0,0.0,0.0,0.0,0.0,0.0,0.0,0.0,0.0,0.0,0.0,0.0,0.0,0.0,0.0,0.0,0.0,0.0,0.0,0.0,0.0,0.0,0.0,0.0,0.0,0.0,-3.725,-3.608,-3.7456,-3.7872,-3.6324,-3.5194,-3.4971,-3.6023,-3.6079,-3.6796,-3.844,-3.8184,-3.7841,-3.7329,-3.8325,-3.7465,-3.4645,-3.5455,-3.5208,-3.396,-3.3084,-3.2823,-3.3046,-3.2685,-3.2125,-3.144,-3.1675,-3.139,-3.0699,-3.0777,-3.0804,-3.0773,-3.0698,-3.0849,-3.1061,-3.1259,-3.1646,-3.2252,0.0,0.0,0.0,0.0,0.0,0.0,0.0,0.0,0.0,0.0,0.0,0.0,0.0,0.0,0.0,0.0,0.0,0.0,0.0,0.0,0.0,0.0,0.0,0.0,0.0,0.0,0.0,0.0,0.0,0.0,0.0,0.0,0.0,0.0,0.0,0.0,0.0,0.0,0.0,0.0,0.0,0.0,-3.3821,0.0,0.0,0.0,0.0,0.0,0.0,0.0,0.0,0.0,0.0,0.0,0.0,0.0,0.0,0.0,0.0,0.0,0.0,0.0,0.0,0.0,0.0,0.0,0.0,0.0,0.0,0.0,0.0,0.0,0.0,0.0,0.0,0.0,-3.33,-3.6259,-3.7866,-3.6167,-3.8731,-3.9718,-3.7446,-3.7593,-3.792,-3.7962,-3.7962,-3.8496,-3.9746,-3.8886,-3.8501,-3.8759,-3.8646,-3.8016,-3.685,-3.6515,-3.5898,-3.4977,-3.3665,-3.278,-3.224,-3.2227,-3.1637,-3.0633,-3.0846,-3.0738,-3.0444,-3.0609,-3.0849,-3.0986,-3.0773,-3.0849,-3.1123,-3.1809,-3.229,-3.272,0.0,0.0,0.0,0.0,0.0,0.0,0.0,0.0,0.0,0.0,0.0,0.0,0.0,0.0,0.0,0.0,0.0,0.0,0.0,0.0,0.0,0.0,0.0,0.0,0.0,0.0,0.0,0.0,0.0,0.0,0.0,0.0,0.0,0.0,0.0,0.0,0.0,0.0,0.0,0.0,0.0,0.0,-3.5755,0.0,0.0,0.0,0.0,0.0,0.0,0.0,0.0,0.0,0.0,0.0,0.0,0.0,0.0,0.0,0.0,0.0,0.0,0.0,0.0,0.0,0.0,0.0,0.0,0.0,0.0,0.0,0.0,0.0,0.0,0.0,0.0,-3.7078,-3.6222,-3.7902,-3.921,-3.9198,-3.9736,-3.9991,-3.9689,-3.8582,-3.8271,-3.9198,-3.9269,-3.9606,-4.0407,-3.9745,-3.9018,-3.8128,-3.8741,-3.7965,-3.5733,-3.6085,-3.5685,-3.4549,-3.356,-3.2993,-3.283,-3.2403,-3.1921,-3.1415,-3.101,-3.0829,-3.0609,-3.0698,-3.0849,-3.0986,-3.0911,-3.0911,-3.1123,-3.1809,-3.2989,-3.4312,0.0,0.0,0.0,0.0,0.0,0.0,0.0,0.0,0.0,0.0,0.0,0.0,0.0,0.0,0.0,0.0,0.0,0.0,0.0,0.0,0.0,0.0,0.0,0.0,0.0,0.0,0.0,0.0,0.0,0.0,0.0,0.0,0.0,0.0,0.0,0.0,0.0,0.0,0.0,0.0,0.0,0.0,-3.5888,-3.4674,-3.3696,-3.2878,-3.208,-3.2098,-3.2265,-3.0894,0.0,0.0,0.0,0.0,0.0,0.0,0.0,0.0,0.0,0.0,0.0,0.0,0.0,0.0,0.0,0.0,0.0,0.0,0.0,0.0,0.0,0.0,0.0,0.0,-3.8106,-3.9356,-3.9014,-3.9511,-4.0078,-4.0478,-4.0311,-4.0501,-4.1424,-4.0003,-3.9495,-4.0503,-4.0337,-4.021,-4.0308,-3.9971,-3.9103,-3.7607,-3.844,-3.7788,-3.5467,-3.6157,-3.5845,-3.4397,-3.365,-3.2916,-3.2365,-3.2014,-3.1531,0.0,-3.1029,-3.0906,-3.0698,-3.0773,-3.0911,0.0,0.0,0.0,0.0,0.0,-3.3876,-3.5479,0.0,0.0,0.0,0.0,0.0,0.0,0.0,0.0,0.0,0.0,0.0,0.0,0.0,0.0,0.0,0.0,0.0,0.0,0.0,0.0,0.0,0.0,0.0,0.0,0.0,0.0,0.0,0.0,0.0,0.0,0.0,0.0,0.0,0.0,0.0,0.0,0.0,0.0,0.0,0.0,0.0,0.0,-3.5237,-3.468,-3.3974,-3.3175,-3.2358,-3.2117,-3.2154,-3.1875,0.0,0.0,0.0,0.0,0.0,0.0,0.0,0.0,0.0,0.0,0.0,0.0,0.0,0.0,0.0,0.0,0.0,0.0,0.0,0.0,0.0,0.0,0.0,0.0,-4.0045,-4.1177,-4.1349,-4.0978,-4.067,-4.0608,-4.0614,-4.1084,-4.2333,-4.1418,-4.1011,-4.1645,-4.1057,-4.0364,-3.9816,0.0,0.0,0.0,0.0,-3.7591,-3.5949,-3.6517,-3.6136,-3.4703,-3.4012,-3.3044,-3.1787,-3.1655,-3.114,-3.042,-3.0919,-3.1061,-3.0836,-3.0986,-3.1061,-3.1061,-3.1123,-3.1272,-3.1542,-3.3255,-3.4832,-3.6211,0.0,0.0,0.0,0.0,0.0,0.0,0.0,0.0,0.0,0.0,0.0,0.0,0.0,0.0,0.0,0.0,0.0,0.0,0.0,0.0,0.0,0.0,0.0,0.0,0.0,0.0,0.0,0.0,0.0,0.0,0.0,0.0,0.0,0.0,0.0,0.0,0.0,0.0,0.0,0.0,0.0,0.0,-3.6374,-3.6278,-3.572,-3.4884,-3.403,-3.4179,-3.4476,-3.247,-3.312,-3.4401,-3.2247,0.0,0.0,0.0,0.0,0.0,0.0,0.0,0.0,0.0,0.0,0.0,0.0,0.0,0.0,0.0,0.0,0.0,0.0,0.0,0.0,-3.9263,-4.068,-4.1504,-4.1533,-4.1917,-4.1883,-4.1065,-4.0827,-4.0977,-4.1686,-4.1312,-4.1242,-4.1645,-4.0743,-4.0083,-3.9788,-3.8982,-3.8399,-3.8238,-3.8145,-3.7878,-3.772,-3.7169,-3.678,-3.6373,0.0,0.0,-3.427,-3.3159,-3.2488,-3.2044,-3.1211,-3.1215,-3.1809,-3.1259,-3.1198,-3.1556,-3.1955,-3.2662,-3.3575,-3.4499,-3.5385,-3.6211,0.0,0.0,0.0,0.0,0.0,0.0,0.0,0.0,0.0,0.0,0.0,0.0,0.0,0.0,0.0,0.0,0.0,0.0,0.0,0.0,0.0,0.0,0.0,0.0,0.0,0.0,0.0,0.0,0.0,0.0,0.0,0.0,0.0,0.0,0.0,0.0,0.0,0.0,0.0,0.0,0.0,0.0,-3.5442,-3.5442,-3.52,-3.4791,-3.4364,-3.4476,-3.4661,-3.3417,-3.4104,-3.52,-3.3528,-3.3221,-3.3081,0.0,0.0,0.0,0.0,0.0,0.0,0.0,0.0,0.0,0.0,0.0,0.0,0.0,0.0,-3.5668,0.0,0.0,-4.0305,-4.1825,-4.2515,-4.2775,-4.2814,-4.251,-4.205,-4.1169,-4.1249,-4.1643,-4.2318,-4.2213,-4.2198,-4.2446,-4.1833,-4.0808,-3.951,-3.9089,-3.8534,-3.7792,-3.7853,-3.7861,-3.7752,-3.7577,-3.7323,-3.6922,-3.5969,-3.5203,-3.453,-3.3598,-3.3064,-3.2714,-3.2374,-3.2359,-3.2577,-3.2042,-3.2318,-3.3003,-3.3269,-3.3699,-3.4259,-3.4846,-3.5657,-3.6352,0.0,0.0,0.0,0.0,0.0,0.0,0.0,0.0,0.0,0.0,0.0,0.0,0.0,0.0,0.0,0.0,0.0,0.0,0.0,0.0,0.0,0.0,0.0,0.0,0.0,0.0,0.0,0.0,0.0,0.0,0.0,0.0,0.0,0.0,0.0,0.0,0.0,0.0,0.0,0.0,0.0,0.0,-3.4321,-3.4134,-3.4008,-3.3956,-3.3788,-3.3733,-3.3733,-3.3733,-3.429,-3.4884,-3.4179,-3.4067,-3.3833,-3.1868,-3.1309,0.0,0.0,0.0,0.0,0.0,0.0,0.0,0.0,0.0,-3.3457,-3.5452,-3.6962,-3.8488,-4.0384,-4.1915,-4.31,-4.3683,-4.3792,-4.3697,-4.3581,-4.2745,-4.1773,-4.1012,-4.1768,-4.2582,-4.2935,-4.3194,-4.33,-4.3087,-4.268,-4.1475,-3.9291,-3.9251,-3.859,-3.7055,-3.737,-3.7399,-3.7114,-3.7593,-3.7437,-3.6801,-3.612,-3.5331,-3.4413,-3.4085,-3.3659,-3.3199,-3.362,-3.3564,-3.3227,-3.3241,-3.3644,-3.4312,-3.4514,-3.4581,-3.4647,-3.5175,-3.5864,-3.6492,0.0,0.0,0.0,0.0,0.0,0.0,0.0,0.0,0.0,0.0,0.0,0.0,0.0,0.0,0.0,0.0,0.0,0.0,0.0,0.0,0.0,0.0,0.0,0.0,0.0,0.0,0.0,0.0,0.0,0.0,0.0,0.0,0.0,0.0,0.0,0.0,0.0,0.0,0.0,0.0,0.0,0.0,-3.4736,-3.3884,-3.3377,-3.3027,-3.2302,-3.2061,-3.2061,-3.2061,-3.26,-3.325,-3.3157,-3.3621,-3.3833,-3.1868,0.0,-3.0968,-2.9029,-2.9264,-3.0369,-3.187,-3.2112,-3.2805,0.0,0.0,-3.68,-3.876,-3.9888,-4.0578,-4.0836,-4.1816,-4.2443,-4.2152,-4.2607,-4.2733,-4.1983,-4.2027,-4.1662,-4.0272,-4.2148,-4.3274,-4.2721,-4.3434,-4.363,-4.2731,-4.1771,-4.0826,-3.9696,-3.8799,-3.789,-3.7024,-3.6675,-3.6489,-3.6417,-3.6489,-3.6447,-3.6375,-3.7026,-3.6762,-3.5722,-3.5697,-3.5109,-3.4177,-3.4249,-3.3962,-3.3575,-3.4543,-3.4677,-3.438,-3.5204,-3.5544,-3.5608,-3.6148,-3.6429,-3.6492,0.0,0.0,0.0,0.0,0.0,0.0,0.0,0.0,0.0,0.0,0.0,0.0,0.0,0.0,0.0,0.0,0.0,0.0,0.0,0.0,0.0,0.0,0.0,0.0,0.0,0.0,0.0,0.0,0.0,0.0,0.0,0.0,0.0,0.0,0.0,0.0,0.0,0.0,0.0,0.0,0.0,0.0,-3.4756,-3.3885,-3.3165,-3.2512,-3.203,-3.1831,0.0,0.0,-3.2298,-3.299,-3.299,-3.3278,-3.3357,-3.2001,-3.1555,0.0,-3.0917,-3.1383,-3.2399,0.0,-3.5024,-3.5924,-3.7633,-3.8227,-3.8819,-4.013,-4.1133,-4.1873,-4.2178,-4.2634,-4.2843,0.0,-4.261,-4.2543,-4.2211,-4.1799,-4.1337,-4.0691,-4.2106,-4.2749,-4.1836,-4.2465,-4.2616,-4.1806,-4.1541,-4.0789,-3.9293,-3.8985,-3.8325,-3.7288,-3.7368,-3.7127,-3.6374,-3.6714,-3.6696,-3.6301,-3.6482,-3.6354,-3.5893,-3.579,-3.5436,-3.4986,-3.5073,-3.5059,-3.4942,-3.5219,-3.5415,-3.5608,-3.5688,-3.5894,-3.6226,-3.6429,-3.6492,-3.6492,0.0,0.0,0.0,0.0,0.0,0.0,0.0,0.0,0.0,0.0,0.0,0.0,0.0,0.0,0.0,0.0,0.0,0.0,0.0,0.0,0.0,0.0,0.0,0.0,0.0,0.0,0.0,0.0,0.0,0.0,0.0,0.0,0.0,0.0,0.0,0.0,0.0,0.0,0.0,0.0,0.0,0.0,-3.4546,-3.3957,-3.3012,-3.1957,-3.1485,-3.1289,0.0,0.0,-3.1555,-3.2095,-3.2318,-3.2456,-3.2384,-3.166,-3.1205,-3.1109,-3.203,0.0,0.0,-3.5921,-3.7444,-3.8647,-3.9113,-3.9854,-4.0613,-4.1398,-4.2039,-4.2596,-4.2978,-4.3083,-4.2985,-4.2837,-4.2636,-4.2364,-4.2035,-4.141,-4.0965,-4.0868,-4.1548,-4.1685,-4.0729,-4.1644,-4.1901,-4.1002,-4.1168,-4.0646,-3.9125,-3.9124,-3.8607,-3.7436,-3.7615,-3.7323,-3.6396,-3.6833,-3.6806,-3.636,-3.6215,-3.6127,-3.5933,-3.5648,-3.5504,-3.5554,-3.5638,-3.5725,-3.5763,-3.5465,-3.567,-3.6199,-3.5613,-3.5721,-3.6184,-3.5999,-3.6168,-3.6461,0.0,0.0,0.0,0.0,0.0,0.0,0.0,0.0,0.0,0.0,0.0,0.0,0.0,0.0,0.0,0.0,0.0,0.0,0.0,0.0,0.0,0.0,0.0,0.0,0.0,0.0,0.0,0.0,0.0,0.0,0.0,0.0,0.0,0.0,0.0,0.0,0.0,0.0,0.0,0.0,0.0,0.0,-3.4112,-3.4025,-3.2882,-3.1197,-3.0219,0.0,0.0,0.0,-2.9792,-2.9833,-3.0621,-3.0804,0.0,-3.0599,-2.989,0.0,0.0,0.0,-3.5513,-3.6608,-3.8364,-4.0087,-4.0939,-4.1773,-4.2557,-4.3045,-4.289,-4.27,-4.2717,-4.2717,-4.2486,-4.1845,-4.2123,-4.2009,-4.0908,-4.0749,-4.055,-4.016,-4.0401,-4.0286,0.0,-4.1419,-4.1989,-4.0626,-4.0529,-4.0237,-3.9541,-3.887,-3.8175,-3.7405,-3.6754,-3.643,-3.6415,-3.643,-3.6492,-3.6616,-3.6789,-3.6645,-3.6178,-3.5683,-3.5539,-3.5688,-3.5688,-3.5516,-3.5233,-3.5233,-3.5309,-3.5445,-3.4783,-3.4937,-3.543,-3.4783,-3.5368,-3.6399,0.0,0.0,0.0,0.0,0.0,0.0,0.0,0.0,0.0,0.0,0.0,0.0,0.0,0.0,0.0,0.0,0.0,0.0,0.0,0.0,0.0,0.0,0.0,0.0,0.0,0.0,0.0,0.0,0.0,0.0,0.0,0.0,0.0,0.0,0.0,0.0,0.0,0.0,0.0,0.0,0.0,0.0,-3.5515,-3.3834,-3.2469,-3.1306,0.0,0.0,0.0,0.0,0.0,0.0,-3.0122,0.0,0.0,-3.0112,-3.0807,-3.1825,-3.2804,0.0,-3.7046,-3.8515,-4.0235,-4.1702,-4.2268,-4.2795,-4.2848,-4.1841,-4.115,-4.0506,-3.959,-3.9896,-4.0157,-3.9978,-4.0856,-4.1452,-4.1102,-4.1086,-4.0828,-3.9904,-4.0925,0.0,0.0,0.0,0.0,-3.9169,-3.9104,-3.9007,-3.8764,-3.8576,-3.8332,-3.8091,-3.7828,-3.7519,-3.7087,-3.7087,-3.689,-3.6615,-3.652,-3.6645,-3.6951,-3.5973,-3.5797,-3.6368,-3.6006,-3.5641,-3.5202,-3.5339,-3.5154,-3.4783,-3.4568,-3.4614,-3.4783,-3.4552,-3.4768,-3.5122,0.0,0.0,0.0,0.0,0.0,0.0,0.0,0.0,0.0,0.0,0.0,0.0,0.0,0.0,0.0,0.0,0.0,0.0,0.0,0.0,0.0,0.0,0.0,0.0,0.0,0.0,0.0,0.0,0.0,0.0,0.0,0.0,0.0,0.0,0.0,0.0,0.0,0.0,0.0,0.0,0.0,0.0,-3.4241,-3.3237,-3.2161,0.0,0.0,0.0,0.0,0.0,0.0,0.0,0.0,-2.9912,-3.0023,-3.0865,-3.2332,-3.4008,-3.5659,-3.7646,-3.9448,-4.0483,-4.1801,-4.2812,-4.2809,-4.2951,-4.2553,-4.0835,-4.0074,-3.9332,-3.8068,-3.8483,-3.9036,-3.9066,-3.9896,-4.0732,-4.1412,-4.1197,-4.1002,-4.103,-4.2178,-4.2303,0.0,0.0,0.0,-3.9217,-3.8926,-3.878,-3.878,-3.8537,-3.8391,-3.8391,-3.8391,-3.8205,-3.7828,-3.7844,-3.7578,-3.71,-3.7011,-3.7131,-3.737,-3.6554,-3.6492,-3.7055,-3.6291,-3.5707,-3.5223,-3.4889,-3.4491,-3.406,-3.3814,-3.4032,-3.4374,-3.4125,-3.4004,-3.3959,0.0,0.0,0.0,0.0,0.0,0.0,0.0,0.0,0.0,0.0,0.0,0.0,0.0,0.0,0.0,0.0,0.0,0.0,0.0,0.0,0.0,0.0,0.0,-2.5402,-2.5395,-2.5454,-2.5493,0.0,0.0,0.0,0.0,0.0,0.0,0.0,0.0,0.0,0.0,0.0,0.0,0.0,0.0,0.0,-3.0859,-3.2318,0.0,0.0,0.0,0.0,0.0,0.0,0.0,0.0,0.0,-3.0145,-3.0435,-3.2726,-3.4283,-3.6054,-3.9714,-4.1538,-4.2363,-4.2327,-4.2959,-4.3428,-4.2682,-4.2327,-4.1732,-4.0178,-3.9571,-3.9016,0.0,0.0,-3.9047,-3.9112,-3.9322,-4.0106,-4.1825,-4.1197,-4.1291,0.0,0.0,0.0,0.0,0.0,0.0,-4.081,0.0,-3.9525,-3.9476,-3.8829,-3.844,-3.8408,-3.8391,-3.8448,-3.8616,-3.8616,-3.8432,-3.8173,-3.8238,-3.7994,-3.7488,-3.7429,-3.7589,-3.7774,-3.651,-3.5791,-3.534,-3.4017,-3.3439,-3.3332,-3.2699,-3.3123,-3.4036,-3.3441,-3.3051,-3.2999,0.0,0.0,0.0,0.0,0.0,0.0,0.0,0.0,0.0,0.0,0.0,0.0,0.0,0.0,0.0,0.0,0.0,0.0,0.0,0.0,0.0,0.0,0.0,0.0,-2.5402,-2.5421,0.0,0.0,0.0,0.0,0.0,0.0,0.0,0.0,0.0,0.0,0.0,0.0,0.0,0.0,0.0,0.0,-3.3177,0.0,0.0,0.0,0.0,0.0,0.0,0.0,0.0,0.0,0.0,-3.2629,-3.2836,-3.4244,-3.6442,-3.8823,-4.0715,-4.1511,-4.1975,-4.2593,-4.3286,-4.3629,-4.2847,-4.2181,-4.1225,-3.9448,-3.7943,-3.6632,0.0,0.0,0.0,-3.8075,-4.0347,0.0,-4.273,-4.3413,0.0,-4.3151,0.0,-4.433,-4.2952,-4.3423,0.0,0.0,-4.1334,-4.0011,-3.9509,-3.9298,-3.9015,-3.8576,-3.8576,-3.8616,-3.875,-3.8876,-3.886,-3.875,-3.8479,-3.8479,-3.8788,-3.7953,-3.7895,-3.8446,-3.7183,-3.6366,-3.5873,-3.4541,-3.3941,-3.3766,-3.3224,-3.3081,-3.3221,-3.3044,-3.2579,-3.2191,0.0,0.0,0.0,0.0,0.0,0.0,0.0,0.0,0.0,0.0,0.0,0.0,0.0,0.0,0.0,0.0,0.0,0.0,0.0,0.0,0.0,0.0,0.0,0.0,0.0,0.0,0.0,0.0,0.0,0.0,0.0,0.0,0.0,0.0,0.0,0.0,0.0,0.0,0.0,0.0,0.0,0.0,0.0,0.0,0.0,0.0,0.0,0.0,0.0,0.0,0.0,-3.4145,-3.5101,-3.5878,-3.6474,-3.6673,0.0,-3.9537,-4.0855,-4.1237,-4.1417,-4.2164,-4.2593,-4.2545,-4.1359,-4.0511,-3.937,-3.7211,-3.5965,0.0,-3.3917,0.0,0.0,0.0,0.0,0.0,-4.3288,-4.4085,-4.4511,0.0,-4.5355,0.0,-4.4221,-4.4631,-4.4671,0.0,-4.2102,-4.0926,-4.0532,-4.0018,-3.9435,-3.8876,-3.8969,-3.9007,-3.8914,-3.9259,-3.9329,-3.9148,-3.8843,-3.875,-3.8825,-3.8531,-3.8374,-3.8157,0.0,-3.658,-3.6034,-3.4667,-3.4069,-3.3953,-3.3313,-3.3143,-3.3206,-3.2896,-3.2462,-3.2128,0.0,0.0,0.0,0.0,0.0,0.0,0.0,0.0,0.0,0.0,0.0,0.0,0.0,0.0,0.0,0.0,0.0,0.0,0.0,0.0,0.0,0.0,0.0,0.0,0.0,0.0,0.0,0.0,0.0,0.0,0.0,0.0,0.0,0.0,0.0,0.0,0.0,0.0,0.0,0.0,0.0,0.0,0.0,0.0,0.0,0.0,0.0,0.0,0.0,0.0,-3.5174,-3.6224,-3.7608,-3.9101,-4.0208,-3.9375,-3.9049,-3.9278,-4.0707,-4.0944,-4.0935,-4.1548,-4.1582,-4.1045,-3.9248,-3.8285,-3.7058,-3.468,0.0,-3.3814,-3.305,-3.4577,-3.6313,-3.7487,0.0,-4.0949,-4.362,-4.4202,-4.48,-4.6077,-4.6815,-4.6788,-4.5684,-4.5908,-4.5507,-4.387,-4.2613,-4.1853,-4.1745,-4.0745,-3.9901,-3.9401,-3.9662,-3.961,-3.9222,-3.9817,-3.9919,-3.952,-3.952,-3.9085,-3.8367,-3.9204,-3.889,-3.7635,-3.7203,0.0,-3.614,-3.4676,-3.4136,-3.417,-3.3437,-3.3367,-3.3599,-3.294,-3.2453,-3.2239,0.0,0.0,0.0,0.0,0.0,0.0,0.0,0.0,0.0,0.0,0.0,0.0,0.0,0.0,0.0,0.0,0.0,0.0,0.0,0.0,0.0,0.0,0.0,0.0,0.0,0.0,0.0,0.0,0.0,0.0,0.0,0.0,0.0,0.0,0.0,0.0,0.0,0.0,0.0,0.0,0.0,0.0,0.0,0.0,0.0,0.0,0.0,0.0,0.0,0.0,-3.7286,-3.8696,-3.9578,-4.0463,-4.115,-4.0916,-4.0401,-4.0118,-4.1208,-4.119,-4.1084,-4.1901,-4.1855,-4.0966,-3.8609,-3.7485,0.0,0.0,-3.3658,-3.3361,-3.3852,-3.52,-3.6662,-3.7965,0.0,0.0,0.0,0.0,-4.6475,0.0,0.0,0.0,0.0,0.0,0.0,0.0,0.0,-4.221,-4.1512,-4.1103,-4.0748,-4.0351,-4.0497,-4.0563,-4.0497,-4.0611,-4.0611,-4.0514,-4.0514,-3.9976,-3.8986,-3.9831,-3.963,-3.8538,-3.7965,0.0,-3.7393,-3.5492,-3.4927,-3.527,-3.4684,-3.4043,-3.3448,-3.3313,-3.2461,-3.141,0.0,0.0,0.0,0.0,0.0,0.0,0.0,0.0,0.0,0.0,-3.0593,-3.0539,0.0,0.0,0.0,0.0,0.0,0.0,0.0,0.0,0.0,0.0,0.0,0.0,0.0,0.0,0.0,0.0,0.0,0.0,0.0,0.0,0.0,0.0,0.0,0.0,0.0,0.0,0.0,0.0,0.0,0.0,0.0,0.0,0.0,0.0,0.0,0.0,0.0,0.0,-3.7137,-3.8888,-4.0919,-4.1781,-4.1969,-4.1449,-4.1028,-4.0841,-4.1437,-4.1014,-4.0631,-4.1377,-4.1036,-3.9832,-3.7259,0.0,0.0,0.0,-3.2683,-3.2641,-3.3529,0.0,0.0,0.0,0.0,0.0,0.0,0.0,0.0,0.0,0.0,0.0,0.0,0.0,0.0,0.0,0.0,-4.2527,-4.2098,-4.1495,-4.1116,-4.1065,-4.1111,-4.1036,-4.0802,-4.1036,-4.1036,-4.0802,-4.0814,-4.0146,-3.8958,-4.0014,-3.9375,-3.7432,-3.775,0.0,-3.6608,-3.5618,-3.5379,-3.5526,-3.4897,-3.4118,-3.3355,-3.2966,-3.2138,-3.123,0.0,0.0,0.0,0.0,0.0,0.0,0.0,-3.0614,-3.0618,-3.061,-3.0548,-3.051,-3.0565,-3.0568,0.0,0.0,0.0,0.0,0.0,0.0,0.0,0.0,0.0,0.0,0.0,0.0,0.0,0.0,0.0,0.0,0.0,0.0,0.0,0.0,0.0,0.0,0.0,0.0,0.0,0.0,0.0,0.0,0.0,0.0,0.0,0.0,0.0,0.0,0.0,0.0,-3.5715,-3.7298,-4.0175,-4.1589,-4.1969,-4.1051,-4.0895,-4.1127,-4.1513,-4.0826,-4.0172,-4.0858,-4.0255,-3.8758,-3.5889,-3.4853,0.0,0.0,-3.2064,-3.2415,-3.3347,0.0,-3.5264,0.0,0.0,0.0,0.0,0.0,0.0,0.0,0.0,0.0,0.0,0.0,0.0,0.0,0.0,0.0,-4.2527,-4.184,-4.1507,-4.1666,-4.1666,-4.149,-4.1128,-4.1534,-4.1534,-4.1174,-4.1056,-4.028,-3.8981,-3.9978,-3.8995,-3.6577,-3.7416,0.0,0.0,-3.5735,-3.5622,-3.5554,-3.4962,-3.4286,-3.3541,-3.2797,-3.2154,-3.1726,0.0,0.0,0.0,0.0,0.0,0.0,0.0,-3.069,-3.0676,-3.061,-3.0548,-3.0501,-3.0501,-3.0462,0.0,0.0,0.0,0.0,0.0,0.0,0.0,0.0,0.0,0.0,0.0,0.0,0.0,0.0,0.0,0.0,0.0,0.0,0.0,0.0,0.0,0.0,0.0,0.0,0.0,0.0,0.0,0.0,0.0,0.0,0.0,0.0,0.0,0.0,0.0,0.0,0.0,-3.3566,-3.5337,-3.7963,-4.0253,-3.9299,0.0,0.0,-4.1416,-4.0845,-4.0172,-4.09,-4.0278,-3.8608,-3.5181,0.0,0.0,-3.2484,-3.2681,-3.3513,-3.432,-3.4469,-3.4931,0.0,0.0,-3.9606,0.0,0.0,0.0,0.0,0.0,0.0,0.0,0.0,0.0,0.0,0.0,0.0,-4.1998,-4.2097,-4.2205,-4.2246,-4.2246,-4.2205,-4.2145,-4.2305,-4.2364,-4.2364,-4.1658,-4.0756,-3.97,-3.9762,-3.9065,-3.7813,-3.7568,0.0,0.0,-3.6055,-3.5622,-3.556,-3.5537,-3.5064,-3.4303,-3.3575,-3.3271,-3.3143,0.0,0.0,0.0,0.0,0.0,0.0,0.0,-3.0577,-3.0559,-3.0482,-3.0462,-3.0411,-3.0378,-3.0371,-3.0348,0.0,0.0,0.0,0.0,0.0,0.0,0.0,0.0,0.0,0.0,0.0,0.0,0.0,0.0,0.0,0.0,0.0,0.0,0.0,0.0,0.0,0.0,0.0,0.0,0.0,0.0,0.0,0.0,0.0,0.0,0.0,0.0,0.0,0.0,0.0,0.0,0.0,-3.2924,-3.453,0.0,0.0,-3.8347,-3.9204,-4.1741,-4.1359,-4.052,-4.1759,-4.0846,-3.892,-3.5998,0.0,0.0,-3.3271,-3.3178,-3.3667,-3.4576,-3.4623,-3.4701,0.0,0.0,0.0,0.0,0.0,0.0,0.0,0.0,0.0,0.0,0.0,0.0,0.0,0.0,0.0,-4.2163,-4.2246,-4.2287,-4.2287,-4.2387,-4.2405,-4.2405,-4.2508,-4.2548,-4.253,-4.1839,-4.1047,-4.0161,-3.9878,-3.9011,-3.7707,-3.7749,0.0,0.0,-3.6208,-3.5827,-3.5622,-3.5622,-3.5165,-3.4498,-3.4489,-3.4179,-3.3797,0.0,0.0,0.0,0.0,0.0,0.0,-3.05,-3.049,-3.0479,-3.0398,-3.0398,-3.0375,-3.0328,-3.0311,-3.0311,-3.0364,0.0,0.0,0.0,0.0,0.0,0.0,0.0,0.0,0.0,0.0,0.0,0.0,0.0,0.0,0.0,0.0,0.0,0.0,0.0,0.0,0.0,0.0,0.0,0.0,0.0,0.0,0.0,0.0,0.0,0.0,0.0,0.0,0.0,0.0,0.0,0.0,0.0,0.0,0.0,0.0,-3.7015,-3.8271,-4.1265,-4.117,-4.054,-4.1873,-4.0965,-3.9107,0.0,0.0,0.0,-3.3863,-3.3674,-3.4051,-3.4715,-3.4728,-3.4666,0.0,0.0,-3.7175,-3.9314,0.0,0.0,0.0,0.0,0.0,0.0,0.0,0.0,0.0,0.0,0.0,-4.2011,-4.2011,-4.2011,-4.1989,-4.2105,-4.2038,-4.1827,-4.1926,-4.1965,-4.1947,-4.1268,-4.0637,-4.0113,-3.957,-3.8724,-3.7703,-3.7813,0.0,0.0,-3.6533,-3.6284,-3.5968,-3.5968,-3.566,-3.5231,-3.5353,-3.5179,-3.4892,0.0,0.0,0.0,0.0,0.0,0.0,0.0,-3.0491,-3.0481,-3.0398,-3.0398,-3.0406,-3.041,-3.0336,-3.0304,-3.0304,0.0,0.0,0.0,0.0,0.0,0.0,0.0,0.0,0.0,0.0,0.0,0.0,0.0,0.0,0.0,0.0,0.0,0.0,0.0,0.0,0.0,0.0,0.0,0.0,0.0,0.0,0.0,0.0,0.0,0.0,0.0,0.0,0.0,0.0,0.0,0.0,0.0,0.0,0.0,0.0,-3.5533,-3.7809,-3.9621,-3.9975,-4.0012,-4.0816,-4.0358,-3.901,0.0,0.0,-3.6486,-3.4016,-3.4245,-3.4889,-3.4908,-3.4849,-3.4829,-3.4889,-3.5407,-3.6494,-3.845,-4.044,0.0,0.0,0.0,0.0,0.0,0.0,0.0,0.0,0.0,0.0,-4.1423,-4.1423,-4.1363,-4.1321,-4.1321,-4.0966,-4.0254,-4.0346,-4.0401,-4.0401,-3.975,-3.9405,-3.9369,-3.8572,-3.821,0.0,0.0,0.0,0.0,-3.7055,-3.69,-3.69,-3.69,-3.69,-3.6794,-3.6057,-3.625,-3.6693,0.0,0.0,0.0,0.0,0.0,0.0,0.0,-3.0569,-3.055,-3.0479,-3.0469,-3.0447,-3.041,-3.0348,-3.0304,-3.0304,0.0,0.0,0.0,0.0,0.0,0.0,0.0,0.0,0.0,0.0,0.0,0.0,0.0,0.0,0.0,0.0,0.0,0.0,0.0,0.0,0.0,0.0,0.0,0.0,0.0,0.0,0.0,0.0,0.0,0.0,0.0,0.0,0.0,0.0,0.0,0.0,0.0,0.0,0.0,0.0,0.0,0.0,-3.9317,-3.952,-3.928,-4.0808,-4.0454,-3.9229,-3.7447,0.0,0.0,-3.485,-3.4699,-3.4908,-3.4908,-3.4889,-3.5059,-3.5685,-3.6402,-3.7286,-3.842,0.0,0.0,0.0,0.0,0.0,0.0,0.0,0.0,0.0,0.0,0.0,-4.2075,-4.1144,-4.0558,-4.0538,-4.1153,-4.1139,-4.0328,-4.042,-4.0456,-4.0456,-3.9749,-3.9387,-3.9369,-3.8554,-3.8192,0.0,0.0,0.0,0.0,-3.7358,-3.717,-3.69,-3.69,-3.69,-3.6921,-3.6943,-3.7108,-3.7287,0.0,0.0,0.0,0.0,0.0,0.0,0.0,-3.0632,-3.0604,-3.054,-3.054,-3.0511,-3.0447,-3.0406,-3.0364,-3.0348,0.0,0.0,0.0,0.0,0.0,0.0,0.0,0.0,0.0,0.0,0.0,0.0,0.0,0.0,0.0,0.0,0.0,0.0,0.0,0.0,0.0,0.0,0.0,0.0,0.0,0.0,-2.9052,0.0,0.0,0.0,0.0,0.0,0.0,0.0,0.0,0.0,0.0,0.0,0.0,0.0,-3.3999,0.0,0.0,-3.8172,-3.8256,-3.9791,-3.969,0.0,0.0,0.0,0.0,0.0,-3.4908,-3.4908,-3.4908,-3.4908,-3.5078,-3.5609,-3.6405,-3.7218,-3.801,0.0,0.0,0.0,0.0,0.0,0.0,0.0,0.0,0.0,0.0,0.0,-4.2057,-4.0899,-4.0065,-3.9756,-4.0453,-4.0472,-3.9745,-3.9743,-3.9758,-3.9758,-3.922,-3.8934,-3.8916,-3.8427,-3.8192,0.0,0.0,0.0,0.0,-3.7756,-3.7613,-3.7376,-3.7376,-3.7376,-3.7377,-3.7345,-3.7487,-3.772,0.0,0.0,0.0,0.0,0.0,0.0,0.0,0.0,0.0,0.0,-3.0603,-3.0571,-3.0511,-3.0501,-3.046,0.0,0.0,0.0,0.0,0.0,0.0,0.0,0.0,0.0,0.0,0.0,0.0,-2.9354,-2.9373,-2.936,-2.9372,0.0,0.0,0.0,0.0,0.0,0.0,0.0,0.0,0.0,0.0,0.0,0.0,0.0,0.0,0.0,0.0,0.0,0.0,0.0,0.0,0.0,0.0,0.0,0.0,0.0,0.0,0.0,0.0,0.0,0.0,0.0,0.0,0.0,0.0,0.0,0.0,0.0,0.0,0.0,-3.5003,-3.4965,-3.4984,-3.5154,-3.5818,-3.6634,-3.7546,-4.053,0.0,0.0,0.0,0.0,0.0,0.0,0.0,0.0,0.0,0.0,-4.1481,-4.0606,-3.9779,-3.9073,-3.9399,-3.93,-3.8646,-3.8646,-3.8615,-3.8585,-3.8354,-3.8225,-3.8192,-3.8192,-3.8192,0.0,0.0,0.0,0.0,-3.8192,-3.8192,-3.8174,-3.8119,-3.8101,-3.8011,-3.7196,-3.7377,-3.7812,0.0,0.0,0.0,0.0,0.0,0.0,0.0,0.0,0.0,0.0,0.0,-3.0571,-3.052,-3.0511,0.0,0.0,0.0,0.0,0.0,0.0,0.0,0.0,0.0,0.0,0.0,0.0,0.0,-2.909,-2.9101,-2.9034,-2.893,-2.8619,0.0,0.0,0.0,0.0,0.0,0.0,0.0,0.0,0.0,0.0,0.0,0.0,0.0,0.0,-2.9112,-2.9185,0.0,0.0,0.0,0.0,0.0,0.0,0.0,0.0,-3.4014,-3.4549,-3.5514,0.0,-3.7149,-3.8188,-3.8463,0.0,0.0,0.0,0.0,0.0,0.0,0.0,0.0,-3.5475,-3.5665,-3.7566,-3.7528,-3.7794,-3.9278,0.0,0.0,0.0,0.0,0.0,0.0,0.0,0.0,0.0,0.0,-4.1698,-4.1297,-4.0016,-3.9295,-3.9383,-3.9474,-3.9322,-3.8915,-3.8915,-3.8818,-3.8585,-3.8541,-3.8401,-3.8192,-3.8192,-3.8192,0.0,0.0,0.0,-3.8192,-3.8192,-3.8192,-3.8119,-3.7504,-3.7268,-3.716,-3.6381,-3.62,-3.6309,0.0,0.0,0.0,0.0,0.0,0.0,0.0,0.0,0.0,0.0,0.0,0.0,0.0,0.0,0.0,0.0,0.0,0.0,0.0,0.0,0.0,0.0,0.0,0.0,0.0,0.0,0.0,0.0,0.0,-2.8858,0.0,0.0,0.0,0.0,0.0,0.0,0.0,0.0,0.0,0.0,-2.802,0.0,0.0,0.0,0.0,0.0,-2.8767,-2.8938,0.0,-2.9251,-2.9397,-2.9758,0.0,0.0,0.0,0.0,-3.4467,-3.5154,-3.576,-3.6208,-3.6802,-3.8162,-3.8572,-3.8523,0.0,0.0,0.0,0.0,0.0,0.0,0.0,0.0,0.0,-3.7433,-3.7928,-3.8899,0.0,0.0,0.0,0.0,0.0,0.0,0.0,0.0,0.0,0.0,0.0,-4.1893,-4.1234,-4.0075,-3.9508,-3.967,-3.967,-3.9532,-3.9216,-3.9216,-3.895,-3.8414,-3.8293,-3.7952,-3.7461,-3.7721,-3.764,0.0,0.0,0.0,-3.7667,-3.8047,-3.8192,-3.8156,-3.7703,-3.7323,-3.6888,-3.6109,-3.6037,-3.6309,0.0,0.0,0.0,0.0,0.0,0.0,0.0,0.0,0.0,0.0,0.0,0.0,0.0,0.0,0.0,0.0,0.0,0.0,0.0,0.0,0.0,0.0,0.0,0.0,0.0,0.0,0.0,0.0,0.0,0.0,0.0,0.0,-3.1225,0.0,0.0,0.0,0.0,0.0,0.0,0.0,-2.7487,0.0,0.0,0.0,0.0,0.0,0.0,0.0,0.0,-2.927,-2.9528,-3.002,-3.1655,0.0,0.0,0.0,0.0,0.0,-3.6269,-3.6477,-3.6948,-3.8234,-3.866,-3.8801,0.0,0.0,0.0,0.0,0.0,0.0,0.0,0.0,0.0,0.0,0.0,0.0,0.0,0.0,0.0,0.0,0.0,0.0,0.0,0.0,0.0,0.0,0.0,-4.1863,-4.1048,-4.0309,-3.9854,-3.974,-3.9721,-3.9558,-3.9199,-3.9331,-3.8987,-3.8182,-3.7865,-3.7299,-3.6615,-3.7053,-3.6927,-3.6457,0.0,0.0,-3.7247,-3.7809,-3.8099,-3.8207,-3.808,-3.7594,-3.6888,-3.6109,-3.6146,-3.6544,0.0,0.0,0.0,0.0,0.0,0.0,0.0,0.0,0.0,0.0,0.0,0.0,0.0,0.0,0.0,0.0,0.0,0.0,0.0,0.0,0.0,0.0,0.0,0.0,0.0,0.0,0.0,0.0,0.0,0.0,-2.8596,-3.153,-3.1235,-2.8189,0.0,-2.7672,-2.776,-2.7413,-2.7272,-2.7365,-2.7504,0.0,0.0,0.0,0.0,0.0,0.0,0.0,0.0,-2.9134,-2.9731,-3.0605,-3.1638,0.0,0.0,0.0,0.0,0.0,-3.7148,-3.8442,-3.9433,-3.8898,-3.8784,-3.8803,0.0,0.0,0.0,0.0,0.0,0.0,0.0,0.0,0.0,0.0,0.0,0.0,0.0,0.0,0.0,0.0,0.0,0.0,0.0,0.0,0.0,0.0,0.0,-4.101,-4.0135,-3.9965,-3.961,-3.8988,-3.8909,-3.8548,-3.7809,-3.8487,-3.8603,-3.8182,-3.7459,-3.6926,-3.6593,-3.6644,-3.686,-3.7206,0.0,-3.718,-3.8038,-3.7475,-3.7657,-3.8201,-3.7464,-3.7087,-3.6888,-3.6109,-3.5457,-3.5059,0.0,0.0,0.0,0.0,0.0,0.0,0.0,0.0,0.0,0.0,0.0,0.0,0.0,0.0,0.0,0.0,0.0,0.0,0.0,0.0,0.0,0.0,0.0,0.0,0.0,0.0,0.0,0.0,0.0,-2.9503,-3.119,-3.0718,-2.946,-2.7641,0.0,-2.7378,-2.74,-2.7085,-2.6971,-2.7019,0.0,0.0,0.0,0.0,0.0,0.0,0.0,0.0,0.0,0.0,-2.9932,-3.101,-3.2426,0.0,0.0,0.0,0.0,0.0,-3.8173,-3.9335,-4.0327,-4.0348,-4.0654,-4.096,0.0,0.0,0.0,0.0,0.0,0.0,0.0,0.0,0.0,0.0,0.0,0.0,0.0,0.0,0.0,0.0,0.0,0.0,0.0,0.0,0.0,0.0,0.0,0.0,-3.9946,-3.9494,-3.9098,-3.8759,-3.8284,-3.7868,-3.7508,-3.7432,-3.7335,-3.7171,-3.6816,-3.634,-3.58,-3.6058,-3.6091,-3.5957,0.0,-3.6574,-3.6666,-3.7161,-3.7509,-3.7717,-3.774,-3.7503,-3.6999,-3.6181,-3.5914,-3.5991,0.0,0.0,0.0,0.0,0.0,0.0,0.0,0.0,0.0,0.0,0.0,0.0,0.0,0.0,0.0,0.0,0.0,0.0,0.0,0.0,0.0,0.0,0.0,0.0,0.0,0.0,-2.9083,-2.8589,-2.9011,-3.0074,-3.1655,-2.9214,-2.7725,0.0,0.0,-2.7085,-2.7053,-2.6742,-2.664,-2.6742,0.0,0.0,0.0,0.0,0.0,0.0,0.0,0.0,0.0,0.0,0.0,0.0,0.0,0.0,0.0,-3.7125,-3.7882,-3.8221,-3.8925,-3.9898,-4.0929,0.0,0.0,0.0,0.0,0.0,0.0,0.0,0.0,0.0,0.0,0.0,0.0,0.0,0.0,0.0,0.0,0.0,0.0,0.0,0.0,0.0,0.0,0.0,0.0,0.0,0.0,0.0,-3.9949,-3.9155,-3.8645,-3.8455,-3.764,-3.7148,-3.6958,-3.633,-3.6121,-3.6293,-3.6102,-3.5701,-3.5148,-3.5533,-3.545,-3.5052,-3.5889,-3.5988,-3.5666,-3.6869,-3.7327,-3.7394,-3.8104,-3.8018,-3.738,-3.6577,-3.6765,-3.7358,0.0,0.0,0.0,0.0,0.0,0.0,0.0,0.0,0.0,0.0,0.0,0.0,0.0,0.0,0.0,0.0,0.0,0.0,0.0,0.0,0.0,0.0,0.0,0.0,0.0,-2.9784,-2.9471,-2.7964,-3.0008,-2.9545,-2.6719,-2.6911,-2.6979,-2.6907,0.0,-2.6725,-2.6725,-2.6364,-2.6345,-2.6554,-2.6657,0.0,0.0,0.0,0.0,0.0,0.0,0.0,0.0,0.0,0.0,0.0,0.0,0.0,-3.7551,-3.7742,-3.8402,-3.9119,-3.9176,-4.0431,-4.1905,-4.2777,0.0,0.0,0.0,0.0,0.0,0.0,0.0,0.0,0.0,0.0,0.0,0.0,0.0,0.0,0.0,0.0,0.0,0.0,0.0,0.0,0.0,0.0,0.0,0.0,0.0,0.0,-3.9911,-3.9195,-3.8459,-3.77,-3.6844,-3.6045,-3.5354,-3.5243,-3.5568,-3.6291,-3.5549,-3.5186,-3.52,-3.5169,-3.5439,-3.5886,-3.5225,-3.5587,-3.6683,-3.6597,-3.7008,-3.7728,-3.823,-3.8346,-3.8218,-3.7416,-3.7617,-3.82,0.0,0.0,0.0,0.0,0.0,0.0,0.0,0.0,0.0,0.0,0.0,0.0,0.0,0.0,0.0,0.0,0.0,0.0,0.0,0.0,0.0,0.0,0.0,-2.9549,-2.8956,-2.9101,-2.9269,-2.9435,-2.8765,-2.8129,-2.7531,-2.69,0.0,0.0,0.0,-2.626,-2.6189,-2.6079,-2.6151,-2.6417,-2.6708,-2.721,0.0,0.0,0.0,0.0,0.0,0.0,0.0,0.0,-3.2222,-3.4186,0.0,-3.6669,-3.8136,-3.9227,-3.9411,-3.9384,-3.9933,-4.0949,0.0,0.0,0.0,0.0,0.0,0.0,0.0,0.0,0.0,0.0,0.0,0.0,0.0,0.0,0.0,0.0,0.0,0.0,0.0,0.0,0.0,0.0,0.0,0.0,0.0,0.0,0.0,0.0,-4.0036,-3.8724,-3.787,-3.7624,-3.6273,-3.5435,-3.52,-3.5179,-3.5312,-3.5618,-3.5312,-3.5179,-3.5196,-3.516,-3.5297,-3.5493,-3.5188,-3.5268,-3.5692,-3.6622,-3.6988,-3.7118,-3.8187,-3.8528,-3.8368,-3.7631,-3.7522,-3.7619,0.0,0.0,0.0,0.0,0.0,0.0,0.0,0.0,0.0,0.0,0.0,0.0,0.0,0.0,0.0,0.0,0.0,0.0,0.0,0.0,0.0,0.0,0.0,-2.9494,-2.8997,-2.867,-2.8836,-2.9544,-2.762,-2.7088,-2.7841,0.0,0.0,0.0,0.0,0.0,0.0,-2.6079,-2.6279,-2.6607,-2.6937,-2.7465,0.0,0.0,0.0,0.0,0.0,0.0,0.0,0.0,0.0,0.0,0.0,0.0,0.0,0.0,-4.0115,-3.9817,-4.0453,-4.1079,0.0,0.0,0.0,0.0,0.0,0.0,0.0,0.0,0.0,0.0,0.0,0.0,0.0,0.0,0.0,0.0,0.0,0.0,0.0,0.0,0.0,0.0,0.0,0.0,0.0,0.0,0.0,0.0,0.0,-3.8327,-3.7433,-3.7224,-3.5853,-3.5164,-3.5198,-3.5196,-3.5193,-3.5209,-3.5209,-3.5209,-3.5209,-3.5209,-3.5209,-3.5209,-3.5209,-3.5124,-3.5096,-3.6386,-3.6983,-3.7192,-3.8061,-3.8552,-3.8621,-3.8077,-3.7814,-3.7625,0.0,0.0,0.0,0.0,0.0,0.0,0.0,0.0,0.0,0.0,0.0,0.0,0.0,0.0,0.0,0.0,0.0,0.0,0.0,0.0,0.0,0.0,0.0,-2.9458,-2.9209,-2.8749,-2.8241,-2.7688,-2.7027,-2.6684,-2.669,-2.6571,0.0,0.0,0.0,0.0,0.0,-2.6503,-2.6757,-2.723,-2.7344,-2.7939,-2.873,0.0,0.0,0.0,0.0,0.0,0.0,0.0,-3.4306,0.0,0.0,0.0,0.0,0.0,-4.0457,-4.0519,-4.0673,-4.0765,0.0,0.0,0.0,0.0,0.0,0.0,0.0,0.0,0.0,0.0,0.0,0.0,0.0,0.0,0.0,0.0,0.0,0.0,0.0,0.0,0.0,0.0,0.0,0.0,0.0,0.0,0.0,0.0,0.0,-3.8023,-3.7224,-3.6439,-3.5619,-3.5198,-3.5209,-3.5198,-3.5198,-3.5209,-3.5209,-3.5209,-3.5209,-3.5209,-3.5209,-3.5209,-3.5209,-3.5209,-3.525,-3.5837,-3.6942,-3.8182,-3.7899,-3.8331,-3.9073,-3.8792,-3.8689,-3.8579,0.0,0.0,0.0,0.0,0.0,0.0,0.0,0.0,0.0,0.0,0.0,0.0,0.0,0.0,0.0,0.0,0.0,0.0,0.0,0.0,0.0,0.0,0.0,0.0,0.0,0.0,-2.8134,-2.7552,-2.6977,-2.6706,0.0,0.0,0.0,-2.7097,0.0,0.0,0.0,-2.6871,-2.7256,-2.7806,-2.8211,-2.8992,-2.9879,0.0,0.0,0.0,0.0,0.0,0.0,0.0,0.0,0.0,0.0,0.0,0.0,-4.0389,-4.0454,-4.0515,-4.0559,0.0,0.0,0.0,0.0,0.0,0.0,0.0,0.0,0.0,0.0,0.0,0.0,0.0,0.0,0.0,0.0,0.0,0.0,0.0,0.0,0.0,0.0,0.0,0.0,0.0,0.0,0.0,0.0,0.0,0.0,-3.7185,-3.6595,-3.642,-3.5619,-3.5198,-3.5209,-3.5193,-3.5193,-3.5209,-3.5209,-3.5209,-3.5209,-3.5209,-3.5209,-3.5209,-3.5209,-3.5209,-3.525,-3.5837,-3.7045,-3.8433,-3.8201,-3.8499,-3.9027,-3.8359,-3.8032,-3.7643,0.0,0.0,0.0,0.0,0.0,0.0,0.0,0.0,0.0,0.0,0.0,0.0,0.0,0.0,0.0,0.0,0.0,0.0,0.0,0.0,0.0,0.0,0.0,0.0,0.0,-2.8664,-2.8424,0.0,0.0,0.0,0.0,0.0,0.0,-2.7887,0.0,-2.7518,0.0,0.0,-2.8009,-2.8612,-2.8957,-2.978,-3.0814,0.0,0.0,0.0,0.0,0.0,0.0,0.0,0.0,0.0,0.0,0.0,0.0,-4.0419,-4.0511,-4.059,-4.063,0.0,0.0,0.0,0.0,0.0,0.0,0.0,0.0,0.0,0.0,0.0,0.0,0.0,0.0,0.0,0.0,0.0,0.0,0.0,0.0,0.0,0.0,0.0,0.0,0.0,0.0,0.0,0.0,0.0,0.0,-3.6596,-3.6177,-3.5944,-3.5448,-3.5198,-3.5209,-3.5209,-3.5209,-3.5209,-3.5209,-3.5209,-3.5209,-3.5209,-3.5209,-3.5209,-3.5209,-3.5209,-3.5231,-3.5587,-3.654,-3.7736,-3.7473,-3.7779,-3.8309,-3.7723,-3.74,-3.7081,0.0,0.0,0.0,0.0,0.0,0.0,0.0,0.0,0.0,0.0,0.0,0.0,0.0,0.0,0.0,0.0,0.0,0.0,0.0,0.0,0.0,0.0,0.0,0.0,0.0,0.0,0.0,0.0,0.0,0.0,0.0,0.0,-2.8269,-2.8801,0.0,-2.9119,-2.9744,-2.8955,-2.8976,-2.9569,-2.9693,-3.0494,-3.1639,-3.1727,0.0,0.0,0.0,0.0,0.0,0.0,0.0,0.0,0.0,0.0,-4.0221,-4.0431,-4.0563,-4.0742,0.0,0.0,0.0,0.0,0.0,0.0,0.0,0.0,0.0,0.0,0.0,0.0,0.0,0.0,0.0,0.0,0.0,0.0,0.0,0.0,0.0,0.0,0.0,0.0,0.0,0.0,0.0,0.0,0.0,0.0,0.0,-3.6293,-3.6007,-3.5316,-3.5238,-3.5198,-3.5193,-3.5209,-3.5209,-3.5209,-3.5209,-3.5209,-3.5209,-3.5209,-3.5209,-3.5209,-3.5209,-3.5209,-3.5209,-3.5209,-3.5725,-3.6474,-3.6217,-3.6613,-3.7274,-3.6942,-3.6846,-3.6771,0.0,0.0,0.0,0.0,0.0,0.0,0.0,0.0,0.0,0.0,0.0,0.0,0.0,0.0,0.0,0.0,0.0,0.0,0.0,0.0,0.0,0.0,0.0,0.0,0.0,0.0,0.0,0.0,0.0,0.0,0.0,0.0,0.0,-2.9565,0.0,-2.9929,-3.0501,-2.9757,-2.9714,-3.0206,-3.1107,-3.1987,-3.2765,-3.2881,-3.3402,0.0,0.0,0.0,0.0,0.0,0.0,0.0,-4.0021,-3.9812,-3.941,-4.0061,-4.0406,-4.0703,0.0,0.0,0.0,0.0,0.0,0.0,0.0,0.0,0.0,0.0,0.0,0.0,0.0,0.0,0.0,0.0,0.0,0.0,0.0,0.0,0.0,0.0,0.0,0.0,0.0,0.0,0.0,0.0,0.0,0.0,-3.6312,-3.6293,-3.6235,-3.6064,-3.5505,-3.5196,-3.5198,-3.5212,-3.5209,0.0,-3.5209,-3.5209,-3.5209,-3.5209,-3.5209,-3.5209,-3.5209,-3.5209,-3.5209,-3.5209,-3.5725,-3.6491,-3.6438,-3.6768,-3.7218,-3.6534,-3.6537,-3.6696,0.0,0.0,0.0,0.0,0.0,0.0,0.0,0.0,0.0,0.0,0.0,0.0,0.0,0.0,0.0,0.0,0.0,0.0,0.0,0.0,0.0,0.0,0.0,0.0,0.0,0.0,0.0,0.0,0.0,0.0,0.0,0.0,0.0,-3.0141,0.0,-3.0578,-3.123,-3.0466,-3.0313,-3.0641,-3.1228,-3.1921,-3.2674,-3.3137,-3.3796,-3.4703,-3.629,0.0,0.0,0.0,0.0,0.0,0.0,0.0,-3.8687,-3.9514,-3.9914,-4.0176,0.0,0.0,0.0,0.0,0.0,0.0,0.0,0.0,0.0,0.0,0.0,0.0,0.0,0.0,0.0,0.0,0.0,0.0,0.0,0.0,0.0,0.0,0.0,0.0,0.0,0.0,0.0,0.0,0.0,-3.6406,-3.6805,-3.6445,-3.6274,-3.6312,-3.5928,-3.5543,-3.5196,-3.5193,-3.5209,-3.5209,-3.5209,-3.5209,-3.5209,-3.5209,-3.5209,-3.5209,-3.5209,-3.5209,-3.5209,-3.5209,-3.5477,-3.5878,-3.5878,-3.6058,-3.6254,-3.5817,-3.5856,-3.5986,0.0,0.0,0.0,0.0,0.0,0.0,0.0,0.0,0.0,0.0,0.0,0.0,0.0,0.0,0.0,0.0,0.0,0.0,0.0,0.0,0.0,0.0,0.0,0.0,0.0,0.0,0.0,0.0,0.0,0.0,0.0,0.0,0.0,-3.0717,0.0,-3.1287,-3.2006,-3.1041,-3.0829,-3.1118,-3.1107,-3.1592,-3.2419,-3.3232,-3.4087,-3.5112,-3.7404,-3.8119,-3.8233,-3.9793,0.0,0.0,0.0,0.0,-3.7921,-3.8768,-3.9161,-3.9345,0.0,0.0,0.0,0.0,0.0,0.0,0.0,0.0,0.0,0.0,0.0,0.0,0.0,0.0,0.0,0.0,0.0,0.0,0.0,0.0,0.0,0.0,0.0,0.0,0.0,0.0,0.0,0.0,0.0,-3.6937,-3.7619,-3.688,-3.6483,-3.652,-3.6252,-3.5812,-3.5212,-3.5209,-3.5209,-3.5209,-3.5209,-3.5209,-3.5209,-3.5209,-3.5209,-3.5209,-3.5209,-3.5209,-3.5209,-3.5209,-3.5209,-3.5209,-3.5209,-3.5209,-3.5209,-3.5209,-3.5209,-3.5209,0.0,0.0,0.0,0.0,0.0,0.0,0.0,0.0,0.0,0.0,0.0,0.0,0.0,0.0,0.0,0.0,0.0,0.0,-3.0613,0.0,0.0,-3.0419,-3.0407,0.0,0.0,0.0,0.0,0.0,0.0,0.0,0.0,0.0,0.0,-3.1532,0.0,0.0,-3.3079,-3.1465,-3.1211,-3.1948,-3.193,-3.2453,-3.3317,-3.4172,-3.5027,-3.5955,-3.7661,-3.7812,-3.7392,-3.9007,-3.8472,0.0,0.0,0.0,-3.6942,-3.7685,-3.8005,-3.8298,0.0,0.0,0.0,0.0,0.0,0.0,0.0,0.0,0.0,0.0,0.0,0.0,0.0,0.0,0.0,0.0,0.0,0.0,0.0,0.0,0.0,0.0,0.0,0.0,0.0,0.0,0.0,0.0,-3.851,-3.8435,-3.861,-3.7851,-3.7414,-3.7433,-3.6058,-3.5291,-3.5217,-3.5212,-3.5209,-3.5209,-3.5209,-3.5209,-3.5209,-3.5209,-3.5209,-3.5209,-3.5209,-3.5209,-3.5209,-3.5209,-3.5209,-3.5209,-3.5209,-3.5209,-3.5209,-3.5209,-3.5209,-3.5209,0.0,0.0,0.0,0.0,0.0,0.0,0.0,0.0,0.0,0.0,0.0,0.0,0.0,0.0,0.0,-3.0587,-3.0595,-3.0607,-3.0606,-3.0607,-3.0559,-3.0513,-3.0364,-3.0208,-3.0073,0.0,0.0,0.0,0.0,0.0,0.0,-3.1954,-3.2095,0.0,0.0,0.0,0.0,0.0,-3.1493,-3.1434,-3.1434,-3.1938,-3.2765,-3.3633,-3.4467,-3.5398,-3.7036,-3.7336,-3.7121,-3.8273,-3.7835,-3.6928,-3.7674,0.0,0.0,0.0,-3.7149,0.0,0.0,0.0,0.0,0.0,0.0,0.0,0.0,0.0,0.0,0.0,0.0,0.0,0.0,0.0,0.0,0.0,0.0,0.0,0.0,0.0,0.0,0.0,0.0,0.0,0.0,0.0,0.0,0.0,-3.9537,-3.8969,-3.9445,-3.8708,-3.808,-3.768,-3.6973,-3.615,-3.5215,-3.5193,-3.5209,-3.5209,-3.5209,-3.5209,-3.5209,-3.5209,-3.5209,-3.5209,-3.5209,-3.5209,-3.5209,-3.5209,-3.5209,-3.5209,-3.5209,-3.5209,-3.5209,-3.5209,-3.5209,-3.5209,0.0,0.0,0.0,0.0,0.0,0.0,0.0,0.0,0.0,0.0,0.0,0.0,0.0,0.0,0.0,0.0,-3.055,-3.0569,-3.0578,-3.0588,-3.0597,-3.0598,-3.0294,-3.0124,-3.0113,0.0,0.0,0.0,0.0,0.0,-3.2014,-3.1862,-3.2271,0.0,-3.3219,0.0,0.0,0.0,0.0,-3.1209,-3.1209,-3.1694,-3.2528,-3.3399,-3.4223,-3.5107,-3.6569,-3.6861,-3.6701,-3.7488,-3.7186,-3.6573,-3.7079,-3.6347,0.0,0.0,0.0,-3.6716,0.0,0.0,0.0,0.0,0.0,0.0,0.0,0.0,0.0,0.0,0.0,0.0,0.0,0.0,0.0,0.0,0.0,0.0,0.0,0.0,0.0,0.0,0.0,0.0,0.0,0.0,0.0,0.0,-4.0395,-3.939,-4.0019,-3.907,-3.8271,-3.7735,-3.7296,-3.6474,-3.5209,-3.5209,-3.5209,-3.5209,-3.5209,-3.5209,-3.5209,-3.5209,-3.5209,-3.5209,-3.5209,-3.5209,-3.5209,-3.5209,-3.5209,-3.5209,-3.5209,-3.5209,-3.5209,-3.5209,-3.5209,-3.5209,0.0,0.0,0.0,0.0,0.0,0.0,0.0,0.0,0.0,0.0,0.0,0.0,0.0,-3.0471,-3.051,-3.0509,-3.0509,-3.0497,-3.0518,-3.056,-3.059,-3.059,-3.0161,0.0,-2.9917,-3.0035,0.0,0.0,0.0,0.0,-3.1821,-3.1802,-3.2309,-3.3197,-3.3204,-3.3213,-3.318,0.0,0.0,0.0,0.0,-3.2567,-3.3422,-3.4296,-3.5093,-3.585,-3.6759,-3.6484,-3.5794,-3.6588,-3.6286,-3.5551,-3.5445,-3.5362,-3.5296,0.0,0.0,0.0,0.0,0.0,0.0,0.0,0.0,0.0,0.0,0.0,0.0,0.0,0.0,0.0,0.0,0.0,0.0,0.0,0.0,0.0,0.0,0.0,0.0,0.0,0.0,0.0,0.0,0.0,0.0,0.0,-4.1011,-4.008,-4.0196,-3.8633,-3.7735,-3.7712,-3.6165,-3.5305,-3.5209,-3.5209,-3.5209,-3.5209,-3.5209,-3.5209,-3.5209,-3.5209,-3.5209,-3.5209,-3.5209,-3.5209,-3.5209,-3.5209,-3.5209,-3.5209,-3.5209,-3.5209,-3.5209,-3.5209,-3.5209,-3.5209,0.0,0.0,0.0,0.0,0.0,0.0,0.0,0.0,0.0,0.0,0.0,0.0,0.0,-3.0409,-3.0439,-3.0439,-3.0479,-3.0452,-3.0327,-3.0494,-3.0486,-3.0223,-2.9813,-2.9635,-2.9763,-2.9855,0.0,0.0,0.0,-3.0777,-3.1672,-3.175,-3.2248,-3.3102,-3.3746,-3.3439,-3.2486,-3.2805,0.0,0.0,0.0,0.0,0.0,0.0,0.0,0.0,0.0,0.0,0.0,-3.736,-3.7038,-3.6262,-3.617,-3.5745,-3.5296,-3.5231,-3.5226,-3.5358,-3.5724,0.0,0.0,0.0,0.0,0.0,0.0,0.0,0.0,0.0,0.0,0.0,0.0,0.0,0.0,0.0,0.0,0.0,0.0,0.0,0.0,0.0,0.0,0.0,0.0,0.0,0.0,0.0,0.0,-4.0176,-4.0196,-3.9146,-3.8286,-3.7712,-3.6623,-3.5783,-3.5209,-3.5209,-3.5209,-3.5209,-3.5209,-3.5209,-3.5209,-3.5209,-3.5209,-3.5209,-3.5209,-3.5209,-3.5209,-3.5209,-3.5209,-3.5209,-3.5209,-3.5209,-3.5209,-3.5209,-3.5209,-3.5209,0.0,0.0,0.0,0.0,0.0,0.0,0.0,0.0,0.0,0.0,0.0,0.0,0.0,0.0,-3.0375,-3.0309,-3.0343,-3.0276,-3.0045,-3.0254,-3.0219,-2.981,-2.9585,-2.9517,-2.9657,-2.9739,0.0,0.0,0.0,0.0,0.0,-3.1261,-3.1584,-3.2174,-3.3151,-3.2986,0.0,0.0,0.0,-3.1276,0.0,0.0,-3.3871,0.0,0.0,0.0,0.0,0.0,0.0,0.0,-3.7632,-3.7102,-3.7057,-3.6419,-3.5668,-3.5583,-3.5425,-3.5239,-3.5335,0.0,0.0,0.0,0.0,0.0,0.0,0.0,0.0,0.0,0.0,0.0,0.0,0.0,0.0,0.0,0.0,0.0,0.0,0.0,0.0,0.0,0.0,0.0,0.0,0.0,0.0,0.0,0.0,0.0,-4.0215,-3.9451,-3.8476,-3.733,-3.6489,-3.5802,-3.5209,-3.5209,-3.5209,-3.5209,-3.5209,-3.5209,-3.5209,-3.5209,-3.5057,-3.4808,-3.4808,-3.4961,-3.5209,-3.5209,-3.5209,-3.5209,-3.5209,-3.5209,-3.5209,-3.5209,-3.5209,-3.5209,0.0,0.0,0.0,0.0,0.0,0.0,0.0,0.0,0.0,0.0,0.0,0.0,0.0,0.0,0.0,-3.0089,-3.0076,-2.9967,-2.9696,-2.9866,-2.9811,-2.942,-2.9514,-2.9589,-2.9589,-2.9644,-2.977,0.0,0.0,0.0,0.0,0.0,-3.0336,-3.0417,-3.1339,-3.1797,-3.1854,0.0,-3.2,-3.2071,0.0,-3.3723,-3.4629,0.0,0.0,0.0,-3.6975,-3.7416,0.0,-3.807,0.0,0.0,0.0,-3.7211,-3.6422,-3.6331,-3.5827,-3.532,0.0,0.0,0.0,0.0,0.0,0.0,0.0,0.0,0.0,0.0,0.0,0.0,0.0,0.0,0.0,0.0,0.0,0.0,0.0,0.0,0.0,0.0,0.0,0.0,0.0,0.0,0.0,0.0,-4.075,-4.031,-4.031,-3.947,-3.8228,-3.6549,-3.5687,-3.5229,-3.5209,-3.5209,-3.5209,-3.5209,-3.5209,-3.5209,-3.5209,-3.5209,-3.477,-3.4044,-3.4044,-3.4483,-3.5209,-3.5171,-3.519,-3.5209,-3.5209,-3.5209,-3.5209,-3.5209,-3.5209,-3.5209,0.0,0.0,0.0,0.0,0.0,0.0,0.0,0.0,0.0,0.0,0.0,0.0,0.0,0.0,-2.9946,-2.9695,-2.9699,-2.9608,-2.9297,-2.9448,-2.9467,-2.9258,-2.9295,-2.9332,-2.937,-2.9453,-2.9513,0.0,0.0,0.0,0.0,0.0,0.0,0.0,-3.0578,-3.0752,-3.0863,-3.1601,0.0,0.0,-3.2807,-3.4029,0.0,0.0,0.0,0.0,0.0,-3.8768,-3.895,0.0,-3.933,-3.8659,0.0,0.0,-3.7202,-3.6556,-3.6313,-3.6113,-3.5537,0.0,0.0,0.0,0.0,0.0,0.0,0.0,0.0,0.0,0.0,0.0,0.0,0.0,0.0,0.0,0.0,0.0,0.0,0.0,0.0,0.0,0.0,0.0,0.0,0.0,0.0,0.0,-4.075,-4.031,-4.031,-3.947,-3.8228,-3.6549,-3.6279,-3.584,-3.5209,-3.5209,-3.5209,-3.5209,-3.5209,-3.5209,-3.5209,-3.5209,-3.5076,-3.4866,-3.4866,-3.4999,-3.5152,-3.456,-3.4674,-3.5209,-3.5209,-3.5209,-3.5209,-3.5209,-3.5209,-3.5209,0.0,0.0,0.0,0.0,0.0,0.0,0.0,0.0,0.0,0.0,0.0,0.0,0.0,0.0,0.0,-3.0524,-3.0232,-2.9938,-2.9658,-2.9828,-2.9721,-2.9203,-2.9185,-2.9225,-2.9302,-2.9347,-2.9392,-2.9492,0.0,0.0,0.0,0.0,0.0,0.0,0.0,0.0,0.0,0.0,0.0,0.0,-3.3654,0.0,0.0,-3.7135,-3.795,0.0,0.0,0.0,-3.9772,-4.0307,-4.0051,0.0,0.0,0.0,0.0,-3.7452,-3.7163,-3.6824,-3.6098,0.0,0.0,0.0,0.0,0.0,-3.6008,-3.6381,-3.6999,0.0,0.0,0.0,0.0,0.0,0.0,0.0,0.0,0.0,0.0,0.0,0.0,0.0,0.0,0.0,0.0,-4.1304,-4.0998,-4.0998,-4.0559,-4.031,-4.031,-3.947,-3.8553,-3.7578,-3.6871,-3.626,-3.5763,-3.5381,-3.5209,-3.5209,-3.5209,-3.5209,-3.5209,-3.5209,-3.5018,-3.4694,-3.4694,-3.4694,-3.4655,-3.4178,-3.4464,-3.5209,-3.5209,-3.5209,-3.5209,-3.5209,-3.5209,-3.5248,0.0,0.0,0.0,0.0,0.0,0.0,0.0,0.0,0.0,0.0,0.0,0.0,0.0,0.0,0.0,0.0,-3.1209,-3.0717,-3.0517,-3.0683,-3.0392,-2.9492,-2.9455,-2.944,-2.941,-2.9431,-2.9439,-2.9472,0.0,0.0,0.0,0.0,0.0,0.0,0.0,0.0,0.0,0.0,0.0,-3.3253,-3.4911,-3.6113,0.0,0.0,-3.8671,-3.9323,-3.9323,-3.9775,-4.0379,-4.0398,-4.0307,0.0,0.0,0.0,0.0,0.0,-3.8174,0.0,0.0,0.0,0.0,0.0,0.0,0.0,-3.545,-3.5917,-3.6613,-3.7474,0.0,0.0,0.0,0.0,0.0,0.0,0.0,0.0,0.0,0.0,0.0,0.0,0.0,0.0,-4.031,-4.031,-4.031,-4.031,-4.031,-4.031,-4.031,-3.9565,-3.9107,-3.9011,-3.7559,-3.67,-3.6491,-3.5744,-3.5305,-3.5209,-3.5209,-3.5209,-3.5209,-3.5209,-3.4808,-3.412,-3.412,-3.412,-3.412,-3.412,-3.4541,-3.5209,-3.5209,-3.5209,-3.5209,-3.5209,-3.5267,-3.5458,-3.3586,0.0,0.0,0.0,0.0,0.0,0.0,0.0,0.0,0.0,0.0,0.0,0.0,0.0,0.0,0.0,-3.1427,-3.1287,-3.1213,-3.1293,-3.1262,-3.1059,-3.1041,-3.0793,-3.0194,-3.0175,-2.9906,-2.9326,0.0,0.0,0.0,0.0,0.0,0.0,0.0,0.0,0.0,0.0,0.0,-3.3901,-3.4942,0.0,-3.7778,-3.8585,-3.9432,-4.0164,-4.0164,-4.0191,-4.0252,-4.0307,-4.0342,-4.0306,0.0,0.0,0.0,-3.9013,0.0,0.0,0.0,0.0,0.0,0.0,0.0,0.0,-3.6351,-3.5937,-3.5771,0.0,0.0,0.0,0.0,0.0,0.0,0.0,0.0,0.0,0.0,0.0,0.0,0.0,0.0,0.0,-4.031,-4.031,-4.031,-4.031,-4.031,-4.031,-4.031,-4.0138,-3.9718,-3.903,-3.8686,-3.7865,-3.6511,-3.6337,-3.5897,-3.5209,-3.5209,-3.5209,-3.5209,-3.5209,-3.5114,-3.498,-3.498,-3.498,-3.498,-3.498,-3.5057,-3.5209,-3.5209,-3.5209,-3.5209,-3.5209,-3.5649,-3.6279,-3.4426,0.0,0.0,0.0,0.0,0.0,0.0,0.0,0.0,0.0,0.0,0.0,0.0,0.0,0.0,0.0,0.0,0.0,0.0,0.0,-3.1875,-3.147,-3.1452,-3.1293,-3.0954,-3.0572,-3.0194,-2.9894,0.0,0.0,0.0,0.0,0.0,0.0,0.0,0.0,0.0,0.0,-3.3718,-3.468,-3.602,0.0,-3.8038,-3.9284,-3.9978,-4.0307,-4.0377,-4.0375,-4.0358,-4.036,-4.036,0.0,0.0,-4.0081,-4.01,0.0,-3.9584,-3.9536,0.0,0.0,0.0,-3.7961,0.0,0.0,0.0,-3.6214,-3.6007,-3.6427,0.0,0.0,0.0,0.0,0.0,0.0,0.0,0.0,0.0,0.0,0.0,0.0,0.0,0.0,-4.031,-4.031,-4.031,-4.031,-4.031,-4.031,-4.031,-4.031,-4.01,-3.9661,-3.924,-3.861,-3.7769,-3.6929,-3.6279,-3.584,-3.542,-3.5209,-3.5209,-3.5209,-3.5209,-3.5209,-3.5209,-3.5209,-3.5209,-3.5209,-3.5209,-3.5209,-3.5209,-3.5477,-3.5859,-3.5859,-3.6394,-3.7158,-3.5324,0.0,0.0,0.0,0.0,0.0,0.0,0.0,0.0,0.0,0.0,0.0,0.0,0.0,0.0,0.0,0.0,0.0,0.0,0.0,0.0,-3.188,-3.1843,-3.1813,-3.1716,-3.1096,-3.0761,-3.0728,0.0,0.0,0.0,0.0,0.0,0.0,0.0,0.0,0.0,0.0,0.0,-3.5491,0.0,-3.8032,-3.8238,-3.9787,-4.0307,-4.0233,-4.0356,-4.0457,-4.0508,-4.0444,-4.043,-4.0394,-4.012,-4.0081,0.0,0.0,0.0,0.0,0.0,0.0,0.0,0.0,0.0,-3.7842,0.0,0.0,0.0,0.0,0.0,0.0,0.0,0.0,0.0,0.0,0.0,0.0,0.0,0.0,0.0,0.0,0.0,0.0,0.0,-4.0291,-4.0291,-4.0291,-4.031,-4.031,-4.031,-4.031,-4.031,-4.031,-3.9641,-3.9182,-3.901,-3.7672,-3.6831,-3.6509,-3.5818,-3.5362,-3.5209,-3.5209,-3.5209,-3.5209,-3.5209,-3.5209,-3.5209,-3.5209,-3.5209,-3.5209,-3.5209,-3.5744,-3.6491,-3.6491,-3.712,-3.8056,-3.6337,-3.6279,0.0,0.0,0.0,0.0,0.0,0.0,0.0,0.0,0.0,0.0,0.0,0.0,0.0,0.0,0.0,0.0,-3.5844,0.0,0.0,0.0,-3.3532,-3.3209,-3.2587,-3.2477,-3.2121,-3.1561,0.0,0.0,0.0,0.0,0.0,0.0,-3.209,0.0,0.0,0.0,-3.5211,0.0,-3.8023,-3.869,0.0,-3.9907,-4.0307,-4.0288,-4.0372,-4.0473,-4.0573,0.0,-4.0523,-4.0543,0.0,-4.03,-4.0406,-4.0251,0.0,0.0,0.0,0.0,0.0,0.0,-3.9429,0.0,0.0,0.0,-3.7559,-3.7559,0.0,0.0,0.0,0.0,0.0,0.0,0.0,0.0,0.0,0.0,0.0,0.0,0.0,0.0,0.0,-4.0309,-4.0289,-4.0289,-4.0344,-4.0398,-4.0398,-4.0398,-4.0398,-4.0398,-4.0302,-3.9881,-3.9095,-3.8903,-3.8063,-3.6594,-3.6498,-3.6023,-3.5209,-3.5209,-3.5209,-3.5209,-3.5209,-3.5209,-3.5209,-3.5209,-3.5209,-3.5209,-3.5209,-3.5744,-3.6491,-3.6491,-3.7502,-3.8877,-3.7311,-3.7196,0.0,0.0,0.0,0.0,0.0,0.0,0.0,0.0,0.0,0.0,0.0,0.0,0.0,0.0,0.0,-3.7606,0.0,0.0,0.0,0.0,0.0,0.0,-3.4752,-3.3374,-3.2507,-3.2275,-3.1789,0.0,0.0,0.0,0.0,0.0,-3.2938,0.0,-3.5116,0.0,-3.6367,0.0,0.0,0.0,0.0,-4.0172,-4.0441,-4.0469,-4.0454,-4.0534,-4.0646,0.0,-4.0573,0.0,0.0,0.0,0.0,0.0,0.0,0.0,0.0,0.0,0.0,0.0,0.0,0.0,-3.9107,0.0,-3.8304,0.0,0.0,0.0,0.0,0.0,0.0,0.0,-3.9737,0.0,0.0,0.0,0.0,0.0,0.0,0.0,0.0,0.0,0.0,0.0,-4.0362,-4.0398,-4.0398,-4.0398,-4.0398,-4.0398,-4.0398,-4.0224,-3.9859,-3.9361,-3.8501,-3.7335,-3.684,-3.6135,-3.5261,-3.5209,-3.5209,-3.5209,-3.5209,-3.5209,-3.5209,-3.5209,-3.5209,-3.5248,-3.5763,-3.647,-3.7254,-3.7769,-3.8725,-3.9756,-3.8495,0.0,0.0,0.0,0.0,0.0,0.0,0.0,0.0,0.0,0.0,0.0,-4.0866,-4.0025,0.0,0.0,-4.0139,-3.9386,0.0,0.0,-3.6909,0.0,0.0,0.0,0.0,-3.4302,-3.3411,-3.3029,0.0,0.0,0.0,0.0,0.0,0.0,0.0,-3.4849,-3.6253,0.0,0.0,-3.8804,-3.9013,-3.9509,-4.012,-4.0389,-4.0549,-4.0621,-4.0564,-4.0612,-4.0673,-4.0636,-4.0588,0.0,-4.0523,0.0,0.0,0.0,0.0,0.0,-4.0346,0.0,0.0,0.0,0.0,0.0,0.0,0.0,0.0,0.0,0.0,0.0,0.0,0.0,0.0,0.0,0.0,-4.031,0.0,0.0,0.0,0.0,0.0,0.0,0.0,0.0,0.0,-4.0342,-4.0413,-4.043,-4.043,-4.043,-4.043,-4.043,-4.043,-4.043,-4.043,-3.9797,-3.9068,-3.8246,-3.737,-3.6511,-3.5656,-3.5356,-3.5209,-3.5209,-3.5209,-3.5343,-3.5572,-3.5572,-3.5687,-3.5974,-3.6852,-3.754,-3.8132,-3.8763,-3.9546,-4.031,-4.0062,-4.0234,0.0,0.0,0.0,0.0,0.0,0.0,0.0,0.0,0.0,0.0,0.0,0.0,0.0,0.0,0.0,-3.9863,-3.9827,0.0,-3.7569,0.0,0.0,-3.7074,0.0,0.0,0.0,0.0,0.0,0.0,0.0,0.0,0.0,0.0,0.0,-3.5572,-3.5926,-3.7615,-3.8571,-3.9061,-3.9848,-4.0312,-4.0574,0.0,-4.0583,-4.07,-4.0687,0.0,0.0,-4.0603,-4.0558,0.0,0.0,0.0,0.0,0.0,0.0,0.0,0.0,0.0,0.0,-4.0329,0.0,0.0,0.0,0.0,-4.0251,0.0,0.0,0.0,0.0,0.0,0.0,0.0,0.0,0.0,0.0,0.0,0.0,0.0,0.0,0.0,0.0,0.0,0.0,-4.0502,-4.0511,-4.0489,-4.0489,-4.0489,-4.0489,-4.0489,-4.0489,-4.0489,-4.0489,-4.0469,-4.0011,-3.9154,-3.8274,-3.7402,-3.6534,-3.5675,-3.5261,-3.5209,-3.5209,-3.5687,-3.647,-3.647,-3.6929,-3.7712,-3.8572,-3.8935,-3.8954,-3.8992,-3.9546,-4.031,0.0,0.0,0.0,0.0,0.0,0.0,0.0,-4.0373,0.0,0.0,0.0,0.0,0.0,-4.3299,-4.302,0.0,0.0,-4.2047,-4.1515,-4.0744,0.0,0.0,0.0,-3.8689,0.0,0.0,0.0,0.0,0.0,0.0,0.0,0.0,0.0,0.0,0.0,-3.6092,0.0,0.0,0.0,0.0,0.0,-4.0372,-4.0603,0.0,0.0,-4.0621,-4.0631,-4.0617,0.0,-4.0539,-4.0523,-4.0489,-4.0489,-4.0489,-4.0508,-4.0495,-4.0499,0.0,0.0,0.0,-4.0449,-4.0381,0.0,0.0,0.0,0.0,0.0,0.0,0.0,0.0,0.0,0.0,0.0,0.0,0.0,0.0,0.0,0.0,0.0,0.0,0.0,0.0,0.0,0.0,0.0,-4.0463,-4.0011,-3.9931,-4.0469,-4.0489,-4.0758,-4.1335,-4.0882,-4.0863,-4.1354,-4.0882,-4.0169,-3.9262,-3.9022,-3.8402,-3.7447,-3.7194,-3.6995,-3.6852,-3.6852,-3.7024,-3.7292,-3.7292,-3.7445,-3.7789,-3.8667,-3.9011,-3.9069,-3.9661,-4.0062,-4.031,-4.1896,0.0,0.0,0.0,0.0,0.0,0.0,0.0,0.0,0.0,-4.4606,0.0,-4.6299,0.0,-4.4623,0.0,-4.4232,-4.3461,-4.2378,-4.2084,0.0,-4.146,-4.0781,0.0,0.0,0.0,0.0,0.0,0.0,-3.5781,0.0,0.0,0.0,0.0,0.0,0.0,-3.7868,0.0,-3.9508,0.0,0.0,-4.0408,0.0,0.0,-4.0579,-4.0612,0.0,-4.0607,-4.0588,-4.0523,-4.0489,-4.0489,-4.0489,-4.0489,-4.0508,-4.0495,-4.0515,-4.0499,-4.0449,-4.0466,0.0,-4.0432,-4.0415,0.0,-4.0415,0.0,0.0,0.0,0.0,0.0,0.0,0.0,0.0,0.0,0.0,0.0,0.0,-4.0463,0.0,0.0,0.0,0.0,0.0,0.0,-3.9884,-4.0457,-4.0011,-3.995,0.0,0.0,-4.0924,-4.1851,-4.1409,-4.139,-4.187,-4.1422,-4.07,-3.9734,-3.9547,-3.9084,-3.8358,-3.8108,-3.7896,-3.7729,-3.771,-3.7884,-3.8151,-3.8151,-3.8343,-3.8686,-3.924,-3.947,-3.9527,-4.01,-4.031,-4.031,0.0,0.0,0.0,0.0,-4.0979,0.0,0.0,0.0,-4.4482,0.0,-4.6878,-4.6986,-4.6694,-4.6507,-4.5997,-4.489,-4.469,-4.3993,-4.247,-4.3075,0.0,0.0,-4.2268,-4.1699,-3.7893,0.0,0.0,0.0,0.0,0.0,0.0,0.0,0.0,0.0,-3.7349,0.0,-3.8558,-3.9435,-4.0082,-4.0489,-4.0489,-4.0489,-4.0489,-4.0489,-4.0539,-4.0607,-4.0607,-4.0607,-4.0592,-4.0523,-4.0489,-4.0489,-4.0489,-4.0489,-4.0489,-4.0489,-4.0489,-4.0508,-4.0499,-4.0495,-4.0473,-4.0413,0.0,0.0,0.0,0.0,-4.0466,0.0,0.0,0.0,0.0,0.0,0.0,0.0,0.0,0.0,0.0,0.0,0.0,0.0,0.0,0.0,0.0,-4.045,-4.045,-4.0489,-4.045,-4.045,0.0,0.0,-4.0983,-4.2041,-4.2034,-4.2015,-4.206,-4.2091,-4.1559,-4.0504,-3.9932,-3.9522,-3.9231,-3.8477,-3.8055,-3.7915,-3.7844,-3.8304,-3.9069,-3.9069,-3.9546,-4.031,-4.031,-4.031,-4.031,-4.031,-4.031,-4.031,-4.3385,-4.3903,-4.4076,0.0,-4.3042,-4.3232,0.0,0.0,0.0,0.0,-4.7214,-4.7476,-4.888,-4.693,-4.5658,-4.5949,-4.4644,0.0,0.0,0.0,0.0,-4.2598,-4.3167,-4.3002,-4.1974,-4.1387,0.0,-3.9882,0.0,0.0,-3.8065,0.0,0.0,0.0,0.0,0.0,-3.8558,-3.9391,-4.0043,-4.0489,-4.0489,-4.0489,0.0,0.0,-4.0504,-4.0523,-4.0523,-4.0523,-4.0523,-4.0523,-4.0489,-4.0489,-4.0489,-4.0489,-4.0489,-4.0489,-4.0489,-4.0489,-4.0508,-4.0508,-4.0508,-4.0492,-4.0479,-4.0502,0.0,0.0,0.0,0.0,0.0,0.0,0.0,0.0,0.0,0.0,0.0,0.0,0.0,0.0,0.0,-4.1393,0.0,0.0,-4.0489,-3.995,-3.9854,-4.045,-3.995,0.0,0.0,0.0,0.0,-4.2854,-4.2369,-4.233,-4.2892,-4.2382,-4.1559,-4.0504,-4.0436,-4.0333,-4.0172,-4.0014,-3.9841,-3.9656,-3.9639,-3.9774,-3.9966,-3.9966,-4.01,-4.031,-4.031,-4.031,-4.031,-4.031,-4.031,-4.031,-4.3652,0.0,0.0,-4.4457,0.0,0.0,-4.5126,0.0,0.0,-4.7811,-4.7918,0.0,-4.8751,-4.7429,-4.6346,-4.5913,-4.4715,0.0,-4.3516,0.0,0.0,-4.3497,-4.3497,-4.3183,-4.2518,-4.1934,0.0,-4.011,0.0,0.0,-3.8689,0.0,0.0,0.0,0.0,-3.8775,0.0,-3.9794,-4.023,-4.0489,-4.0489,0.0,0.0,-4.0489,-4.0489,-4.0489,-4.0489,-4.0489,-4.0489,-4.0489,-4.0489,-4.0489,-4.0489,-4.0489,-4.0489,-4.0489,-4.0489,-4.0489,-4.0489,-4.0489,-4.0489,-4.0489,-4.0492,-4.0495,-4.0508,-4.0781,-4.1072,0.0,0.0,0.0,0.0,0.0,0.0,0.0,0.0,0.0,0.0,0.0,0.0,0.0,-4.0796,0.0,-4.0489,-4.0085,-4.0008,-4.0469,-4.0065,0.0,0.0,0.0,0.0,-4.3131,-4.2811,-4.2966,-4.3763,-4.3031,-4.2141,-4.1066,-4.0848,-4.0649,-4.0495,-4.0554,-4.0511,-4.0325,-4.0307,-4.029,-4.031,-4.031,-4.031,-4.031,-4.031,-4.031,-4.031,-4.031,-4.031,-4.031,0.0,0.0,0.0,0.0,0.0,0.0,0.0,-4.6872,0.0,-4.8025,0.0,-4.8783,-4.7724,-4.7756,-4.7151,-4.5419,0.0,-4.425,-4.3534,-4.3497,-4.3497,-4.3497,-4.3497,-4.2815,-4.1406,-4.1972,-4.1254,0.0,0.0,0.0,0.0,0.0,0.0,0.0,0.0,0.0,0.0,-4.0389,-4.0489,-4.0489,-4.0489,-4.0489,-4.0489,-4.0489,-4.0489,-4.0489,-4.0489,-4.0489,-4.0489,-4.0489,-4.0489,-4.0489,-4.0489,-4.0489,-4.0489,-4.0489,-4.0489,-4.0508,-4.0642,-4.0662,-4.07,-4.0796,-4.0835,-4.0835,-4.0835,-4.1431,-4.197,-4.197,-4.2566,-4.3104,0.0,0.0,0.0,0.0,0.0,0.0,0.0,0.0,0.0,0.0,0.0,0.0,-4.0662,-4.0566,-4.0489,-4.0489,0.0,0.0,0.0,0.0,0.0,-4.315,-4.3318,-4.3744,-4.4498,0.0,-4.2969,-4.1797,-4.1202,-4.0776,-4.0504,-4.0554,-4.053,-4.0415,-4.0325,-4.0308,-4.0291,-4.031,-4.031,-4.031,-4.031,-4.031,-4.031,-4.031,-4.031,-4.031,0.0,0.0,0.0,0.0,0.0,-4.6853,-4.7623,-4.8252,-4.8709,-4.8903,-4.9037,-4.9034,-4.8815,-4.7219,-4.6008,-4.564,-4.4453,0.0,0.0,0.0,0.0,-4.3497,-4.3497,-4.3073,-4.2202,-4.1897,-4.1415,0.0,0.0,0.0,0.0,0.0,0.0,0.0,0.0,0.0,-4.012,-4.0389,0.0,-4.0489,-4.0489,-4.0489,-4.0489,-4.0489,-4.0489,-4.0489,-4.0489,-4.0489,-4.0489,-4.0489,-4.0489,-4.0489,-4.0489,-4.0489,-4.0489,-4.0489,-4.0489,-4.0662,-4.1373,-4.1566,-4.1739,-4.245,-4.2643,-4.2643,-4.2643,-4.2758,-4.2874,-4.2874,-4.2989,-4.3104,-4.3104,0.0,0.0,0.0,0.0,0.0,0.0,0.0,0.0,0.0,0.0,-4.1566,0.0,-4.0912,0.0,0.0,0.0,0.0,0.0,0.0,0.0,0.0,-4.3898,0.0,0.0,0.0,-4.3457,-4.1797,-4.1671,-4.1243,-4.0489,-4.0519,-4.0508,-4.0485,-4.0415,-4.0344,-4.0308,-4.031,-4.031,-4.031,-4.031,-4.031,-4.031,-4.031,-4.031,-4.031,0.0,0.0,0.0,0.0,0.0,0.0,0.0,-4.8658,0.0,-4.9196,-4.8811,-4.835,-4.7909,-4.6754,-4.5772,-4.5178,-4.4356,-4.3777,-4.3548,-4.3548,-4.3532,-4.3497,-4.3682,0.0,-4.2681,-4.2118,-4.1763,-4.1564,0.0,0.0,0.0,0.0,0.0,0.0,0.0,-4.012,0.0,0.0,0.0,-4.0489,-4.0489,-4.0489,-4.0489,-4.0489,-4.0489,-4.0489,-4.0489,-4.0489,-4.0489,-4.0489,-4.0489,-4.0489,-4.0489,-4.0489,-4.0489,-4.0489,-4.0489,-4.0585,-4.1008,-4.1123,-4.1335,-4.222,-4.2431,-4.2547,-4.3008,-4.3412,-4.372,-4.372,-4.4085,-4.4393,-4.4393,-4.4393,0.0,0.0,0.0,0.0,0.0,0.0,0.0,0.0,0.0,0.0,0.0,0.0,0.0,0.0,0.0,0.0,0.0,0.0,0.0,0.0,0.0,0.0,0.0,0.0,0.0,-4.247,-4.2027,-4.1335,-4.0489,-4.0489,-4.0476,-4.0449,-4.0415,-4.0363,-4.0309,-4.0291,-4.031,-4.031,-4.031,-4.031,-4.031,-4.031,-4.0559,-4.0864,0.0,-4.5721,0.0,0.0,-4.6624,0.0,-4.7894,-4.8718,-4.9257,-4.9277,-4.8661,-4.7854,-4.6819,-4.6457,-4.5846,-4.4777,-4.4457,-4.4143,-4.3823,-4.3791,-4.3809,-4.3744,-4.3999,-4.377,-4.3034,-4.2454,-4.2033,0.0,0.0,0.0,0.0,0.0,0.0,0.0,0.0,0.0,0.0,0.0,-4.0489,-4.0489,-4.0489,-4.0489,-4.0489,-4.0489,-4.0489,-4.0489,-4.0489,-4.0489,-4.0489,-4.0489,-4.0489,-4.0489,-4.0489,-4.0489,-4.0489,-4.0489,-4.0489,-4.0527,-4.0719,-4.0912,-4.1258,-4.2124,-4.247,-4.2797,-4.347,-4.4124,-4.4586,-4.4586,-4.5124,-4.5586,-4.5586,-4.5586,0.0,0.0,0.0,0.0,0.0,0.0,0.0,0.0,0.0,0.0,-4.0527,0.0,0.0,0.0,0.0,0.0,0.0,0.0,0.0,0.0,0.0,-4.4913,-4.5586,0.0,-4.3893,-4.3085,-4.222,-4.1335,-4.0489,-4.0489,-4.0476,-4.0413,-4.0432,-4.0363,-4.031,-4.031,-4.031,-4.031,-4.031,-4.031,-4.0329,-4.0501,-4.096,-4.1437,0.0,0.0,0.0,0.0,0.0,0.0,-4.7972,-4.8837,-4.9356,-4.9217,-4.9139,-4.8487,-4.6876,-4.6457,-4.5936,-4.5038,-4.4726,-4.4546,-4.4501,-4.4519,-4.4501,-4.4501,-4.4546,-4.4202,-4.3466,-4.2788,-4.2012,0.0,0.0,0.0,0.0,0.0,0.0,0.0,0.0,0.0,0.0,-4.0489,-4.0489,-4.0489,-4.0489,-4.0489,-4.0489,-4.0489,-4.0489,-4.0489,-4.0489,-4.0489,-4.0489,-4.0489,-4.0489,-4.0489,-4.0489,-4.0489,-4.0489,-4.0489,-4.0489,-4.0662,-4.147,-4.2258,-4.3047,-4.3855,-4.4662,-4.5259,-4.5336,-4.5413,-4.547,-4.547,-4.5528,-4.5586,-4.5586,-4.5586,-4.5586,0.0,0.0,0.0,0.0,0.0,-4.4759,-4.3162,0.0,0.0,0.0,-4.0489,0.0,0.0,-4.0489,0.0,0.0,0.0,0.0,-4.3104,0.0,-4.5509,-4.5586,-4.4739,-4.3893,-4.3085,-4.222,-4.1335,-4.0489,-4.0489,-4.0489,-4.0492,-4.0499,-4.0432,-4.0289,-4.031,-4.031,-4.031,-4.031,-4.031,-4.0387,-4.1113,-4.1437,-4.159,0.0,0.0,0.0,0.0,0.0,0.0,0.0,-4.7991,-4.8048,-4.8491,-4.8548,-4.8107,-4.6954,-4.6263,-4.5666,-4.5156,-4.5011,-4.4872,-4.4676,-4.465,-4.465,-4.4606,-4.4732,-4.4721,-4.4467,-4.3367,-4.2775,0.0,0.0,0.0,0.0,0.0,0.0,0.0,0.0,-4.0489,-4.0489,-4.0489,-4.0489,-4.0489,-4.0489,-4.0489,-4.0489,-4.0489,-4.0489,-4.0566,-4.1085,-4.0931,-4.0566,-4.1104,-4.1277,-4.1277,-4.1277,-4.1643,-4.2066,-4.2066,-4.2066,-4.2143,-4.2489,-4.2835,-4.3297,-4.4105,-4.4566,-4.4951,-4.547,-4.5586,-4.5586,-4.5586,-4.5586,-4.5586,-4.5586,-4.5586,-4.5586,0.0,0.0,0.0,0.0,0.0,0.0,-4.3893,0.0,-4.2835,0.0,0.0,0.0,0.0,0.0,0.0,0.0,0.0,0.0,-4.3104,0.0,-4.5336,-4.4816,-4.447,-4.3624,-4.2316,-4.197,-4.1335,-4.0489,-4.0489,-4.0492,-4.0515,-4.0466,-4.0379,-4.0307,-4.0308,-4.0291,-4.031,-4.031,-4.0597,-4.1055,-4.138,-4.2144,-4.3061,-4.7461,0.0,-4.6166,0.0,-4.6108,-4.6108,-4.7855,-4.7432,-4.7105,-4.7682,-4.7528,-4.7048,-4.624,-4.5586,-4.5052,-4.4614,-4.4595,-4.4475,-4.4262,-4.4448,-4.4558,-4.4516,-4.4941,0.0,-4.4879,-4.3655,-4.3116,-4.3274,-4.1282,0.0,0.0,0.0,0.0,0.0,-4.0489,-4.0489,-4.0489,-4.0489,-4.0489,-4.0489,-4.0489,-4.0489,-4.0489,-4.0489,-4.0662,-4.095,-4.1585,-4.1566,-4.1354,-4.197,-4.2335,-4.245,-4.197,-4.2412,-4.3104,-4.3104,-4.3104,-4.3104,-4.3104,-4.3278,-4.3585,-4.4162,-4.4489,-4.4836,-4.5451,-4.5586,-4.5586,-4.5586,-4.5586,-4.5586,-4.5586,-4.5586,-4.5586,-4.5586,0.0,0.0,0.0,0.0,0.0,0.0,-4.3797,-4.3355,-4.3124,-4.2547,0.0,0.0,0.0,0.0,0.0,0.0,0.0,0.0,0.0,0.0,0.0,-4.4066,-4.322,-4.1797,-4.1546,-4.1104,-4.0489,-4.0489,-4.0492,-4.0499,-4.0432,-4.0379,-4.0325,-4.0308,-4.0443,-4.0635,-4.0387,-4.096,-4.1877,-4.1877,-4.2775,-4.4055,-4.8309,-4.7584,-4.6978,-4.6892,-4.6182,-4.6163,-4.7836,-4.7432,-4.6913,-4.6913,-4.6163,-4.5297,-4.4432,-4.4316,-4.3989,-4.3201,-4.3124,-4.3124,-4.3124,-4.3874,-4.4297,0.0,0.0,-4.5182,-4.4335,-4.3508,-4.2681,-4.1819,0.0,0.0,-4.0508,0.0,-4.0489,-4.0489,-4.0489,-4.0489,-4.0489,-4.0489,-4.0489,-4.0489,-4.0489,-4.0489,-4.0489,-4.0489,-4.1027,-4.1797,-4.1797,-4.2354,-4.3066,-4.3085,-4.3605,-4.397,-4.2316,-4.2412,-4.3104,-4.3104,-4.3104,-4.3104,-4.3104,-4.3682,-4.4297,-4.4297,-4.4951,-4.5586,-4.5586,-4.5586,-4.5586,-4.5586,-4.5586,-4.5586,-4.5586,-4.5586,-4.5586,-4.5586,0.0,0.0,0.0,0.0,0.0,-4.4393,-4.4297,-4.397,-4.3181,-4.3085,0.0,0.0,0.0,0.0,0.0,0.0,0.0,-4.4259,-4.5143,0.0,-4.4316,-4.3508,-4.2662,-4.1797,-4.0931,-4.0508,-4.0489,-4.0489,-4.0489,-4.0508,-4.043,-4.0398,-4.0398,-4.0328,-4.0769,-4.1399,-4.0616,-4.1323,-4.2775,-4.2775,-4.331,-4.4131,-4.694,-4.6572,-4.6346,-4.6177,-4.592,-4.6101,-4.7123,-4.6567,-4.622,-4.6817,-4.5624,-4.4393,-4.3566,-4.347,-4.3374,0.0,-4.3104,-4.3104,0.0,-4.3335,-4.372,-4.4278,-4.4566,-4.4586,-4.4316,-4.3508,-4.2662,-4.1797,0.0,0.0,0.0,-4.0489,-4.0489,-4.0489,-4.0489,-4.0489,-4.0489,-4.0489,-4.0489,-4.0546,-4.1143,-4.1393,-4.145,-4.2047,-4.2431,-4.2758,-4.3316,-4.3335,-4.3181,-4.372,-4.4085,-4.4201,-4.3662,-4.4105,-4.4797,-4.4797,-4.4797,-4.4797,-4.4797,-4.4989,-4.5182,-4.5182,-4.5393,-4.5586,-4.5586,-4.5586,-4.5586,-4.5586,-4.5586,-4.5586,-4.5586,-4.5586,-4.5586,-4.5586,-4.5586,0.0,0.0,0.0,-4.549,-4.522,-4.5182,-4.5086,0.0,-4.4259,0.0,0.0,0.0,0.0,0.0,0.0,0.0,0.0,-4.5143,0.0,-4.4316,-4.3508,-4.2662,-4.1797,-4.0912,-4.0489,-4.0489,-4.0489,-4.0489,-4.0489,-4.0482,-4.0432,-4.0436,-4.0977,-4.1341,-4.159,-4.1896,-4.2699,-4.3694,-4.3752,-4.425,-4.4995,-4.6229,-4.6098,-4.6041,-4.5859,-4.5551,-4.5578,-4.6378,-4.5464,-4.4855,-4.5393,-4.4239,-4.3047,-4.22,-4.2124,0.0,-4.2124,-4.2124,-4.2124,-4.2124,-4.2431,-4.2989,-4.3816,-4.4143,-4.4297,-4.4297,0.0,0.0,-4.1797,-4.0931,-4.0489,-4.0489,-4.0489,-4.0489,-4.0489,-4.0489,-4.0489,-4.0508,-4.0854,-4.0989,-4.1066,-4.195,-4.2297,-4.2354,-4.2893,-4.3297,-4.3624,-4.4124,-4.4182,-4.4124,-4.4624,-4.4778,-4.4778,-4.4778,-4.5163,-4.5586,-4.5586,-4.5586,-4.5586,-4.5586,-4.5586,-4.5586,-4.5586,-4.5622,-4.564,-4.564,-4.5622,-4.5586,-4.5586,-4.5586,-4.5586,-4.5586,-4.5586,-4.5586,-4.5586,-4.5586,-4.562,-4.5668,0.0,0.0,0.0,0.0,0.0,0.0,-4.5105,-4.5009,0.0,0.0,0.0,0.0,0.0,0.0,-4.4778,-4.5316,0.0,-4.4316,-4.3797,-4.297,-4.1797,-4.0912,-4.0489,-4.0489,-4.0489,-4.0489,-4.0489,-4.0463,-4.0432,-4.0456,-4.1245,-4.1762,-4.2087,-4.2604,-4.3541,-4.4557,-4.4269,-4.4691,-4.54,-4.6138,-4.6105,0.0,0.0,-4.5103,0.0,-4.551,-4.4195,-4.3121,-4.3104,-4.2335,-4.1489,-4.0681,-4.0527,-4.0489,-4.0489,0.0,0.0,0.0,-4.1258,-4.2104,-4.297,-4.3778,-4.422,-4.422,-4.347,-4.2643,-4.172,-4.0893,-4.0489,-4.0489,-4.0489,-4.0489,-4.0489,-4.0546,-4.0585,-4.0642,-4.1527,-4.1893,-4.197,-4.2835,-4.3181,-4.3181,-4.3258,-4.3739,-4.4393,-4.4393,-4.4913,-4.5586,-4.5586,-4.5586,-4.5586,-4.5586,-4.5586,-4.5586,-4.5586,-4.5586,-4.5586,-4.5586,-4.5603,-4.5603,-4.5622,-4.5676,-4.5709,-4.5709,-4.5657,-4.562,-4.562,-4.562,-4.5618,-4.5618,-4.5618,-4.5618,-4.5618,-4.5618,-4.5668,-4.578,0.0,0.0,0.0,0.0,0.0,0.0,-4.5586,-4.5586,0.0,0.0,0.0,0.0,0.0,-4.4759,-4.5566,-4.5586,-4.5201,-4.4393,-4.4335,-4.3451,-4.1797,-4.1046,-4.0604,-4.0489,-4.0546,-4.0546,-4.0489,-4.043,-4.0417,-4.0551,-4.1284,-4.2107,-4.2891,-4.2967,-4.3963,-4.5304,-4.4499,-4.4729,-4.5419,0.0,0.0,-4.5997,-4.5207,-4.4884,-4.4521,-4.3912,-4.3457,-4.3153,-4.3102,-4.2335,-4.172,-4.1508,-4.0893,-4.0489,-4.0489,-4.0489,-4.0489,-4.0489,-4.0681,-4.12,-4.2066,-4.2931,-4.3374,-4.3374,-4.3201,-4.2354,-4.0796,-4.0585,-4.0489,-4.0489,-4.0489,-4.0489,-4.0527,-4.12,-4.1489,-4.1546,-4.2412,-4.2797,-4.2854,-4.3682,-4.4028,-4.4085,-4.4739,-4.5124,-4.5278,-4.5278,-4.5413,-4.5586,-4.5586,-4.5586,-4.5586,-4.5586,-4.5586,-4.5586,-4.5586,-4.5586,-4.5586,-4.5586,-4.5668,-4.5746,-4.5753,-4.5789,-4.5838,-4.5803,-4.5804,-4.5819,-4.5819,-4.5829,-4.584,-4.584,-4.584,-4.584,-4.584,-4.584,-4.5852,-4.5875,-4.5852,0.0,0.0,-4.5771,-4.5696,-4.5603,-4.5586,-4.5586,0.0,0.0,0.0,0.0,-4.5393,-4.5374,-4.5586,-4.5586,-4.549,-4.5278,-4.4624,-4.3451,-4.1816,-4.2277,-4.1777,-4.0508,-4.1181,-4.1123,-4.0489,-4.043,-4.078,-4.1451,-4.2183,-4.3044,-4.3924,-4.4557,-4.5055,-4.5475,-4.5302,-4.5409,-4.5642,-4.63,-4.5987,-4.5531,-4.4997,-4.4208,-4.3459,-4.2889,-4.2399,-4.2085,-4.1996,-4.1596,-4.1258,-4.1216,-4.0777,-4.0489,-4.0489,-4.0489,-4.0489,-4.0489,-4.0489,-4.0893,-4.1758,-4.2258,-4.2854,-4.3624,-4.2893,-4.1854,-4.0489,-4.0489,-4.0489,-4.0508,-4.0912,-4.1085,-4.1123,-4.2008,-4.2393,-4.245,-4.3297,-4.3643,-4.372,-4.4547,-4.4893,-4.4951,-4.5413,-4.5586,-4.5586,-4.5586,-4.5586,-4.5586,-4.5586,-4.5586,-4.5586,-4.5586,-4.5635,-4.57,-4.57,-4.57,-4.5696,-4.5733,-4.5783,-4.5861,-4.5868,-4.5896,-4.5906,-4.5891,-4.5902,-4.5891,-4.5891,-4.5886,-4.5899,-4.5899,-4.5899,-4.5899,-4.5899,-4.5899,-4.592,-4.5987,-4.593,0.0,-4.5847,-4.5822,-4.5742,-4.5603,-4.5586,-4.5586,-4.5586,-4.5586,0.0,-4.5586,-4.5586,-4.5586,-4.5586,-4.5586,-4.5586,-4.5586,-4.4739,-4.3835,-4.2951,-4.3047,-4.2604,-4.1681,-4.1777,-4.1758,-4.1662,-4.1212,-4.1485,-4.2349,-4.312,-4.3752,-4.4325,-4.5112,-4.5457,-4.555,-4.555,-4.5632,-4.5752,-4.63,-4.5597,-4.4953,-4.4836,-4.3422,-4.2272,-4.213,-4.1385,-4.0791,-4.0723,-4.073,-4.0662,-4.0559,-4.0545,-4.0545,-4.0534,-4.0534,-4.0519,-4.0504,-4.0489,-4.0835,-4.1566,-4.1739,-4.2527,-4.4085,-4.272,-4.1508,-4.0489,-4.0623,-4.07,-4.0719,-4.1585,-4.2008,-4.2027,-4.2893,-4.3278,-4.3335,-4.4143,-4.4489,-4.4566,-4.5297,-4.5586,-4.5586,-4.5586,-4.5586,-4.5586,-4.5586,-4.5603,-4.5637,-4.5603,-4.5637,-4.5632,-4.5618,-4.5712,-4.5822,-4.5848,-4.5848,-4.5854,-4.5878,-4.591,-4.5949,-4.6014,-4.5998,-4.5966,-4.6027,-4.599,-4.5969,-4.5969,-4.5969,-4.5969,-4.5969,-4.5969,-4.5969,-4.5969,-4.5969,-4.5996,-4.6105,0.0,-4.594,-4.593,-4.5859,-4.5786,-4.5635,-4.5603,-4.5586,-4.5586,-4.5586,-4.5586,-4.5586,-4.5586,-4.5586,-4.5586,-4.5586,-4.5586,-4.5586,-4.4874,-4.4432,-4.4297,-4.3739,-4.3335,-4.3085,-4.247,-4.2508,-4.3066,-4.2247,-4.2384,-4.3248,-4.3923,-4.4325,-4.4534,-4.517,-4.5494,-4.5637,-4.5566,-4.5677,-4.5848,-4.63,-4.5597,-4.4777,-4.4036,-4.3056,-4.2119,-4.1311,-4.1059,-4.0926,-4.0801,-4.0781,-4.0781,-4.0761,-4.0742,-4.0718,-4.0681,-4.0668,-4.0615,-4.0504,-4.0489,-4.0546,-4.07,-4.1412,-4.2277,-4.3258,-4.3028,-4.2104,-4.0489,-4.1239,-4.1604,-4.1623,-4.2489,-4.2893,-4.2931,-4.3758,-4.4105,-4.4162,-4.5028,-4.5393,-4.5413,-4.5547,-4.5586,-4.5586,-4.5586,-4.5586,-4.5586,-4.5586,-4.5668,-4.5742,-4.5637,-4.5703,-4.5852,-4.5794,-4.5809,-4.5919,-4.6024,-4.6041,-4.6033,-4.592,-4.5979,-4.6083,-4.6146,-4.6201,-4.6234,-4.6181,-4.6196,-4.624,-4.624,-4.624,-4.624,-4.624,-4.624,-4.624,-4.624,-4.624,-4.6245,-4.6269,0.0,-4.6206,-4.6072,-4.5959,-4.5852,-4.5786,-4.5668,-4.5586,-4.5586,-4.5586,-4.5586,-4.5586,-4.5586,-4.5586,-4.5586,-4.5586,-4.5586,-4.5586,-4.547,-4.5028,-4.4316,-4.4913,-4.447,-4.3124,-4.3662,-4.3605,-4.3085,-4.2898,-4.3286,-4.4093,-4.4173,-4.4652,-4.5322,-4.5437,-4.5599,-4.5771,-4.5757,-4.5871,-4.6041,-4.5597,-4.4894,-4.4172,-4.3762,-4.2591,-4.155,-4.112,-4.1042,-4.1022,-4.0914,-4.0898,-4.0882,-4.081,-4.081,-4.0791,-4.0759,-4.0759,-4.0738,-4.068,-4.0554,-4.0489,-4.0489,-4.0893,-4.1508,-4.2374,-4.2854,-4.2701,-4.1893,-4.2333,-4.2551,-4.257,-4.3523,-4.397,-4.4008,-4.4802,-4.5169,-4.5189,-4.5595,-4.5769,-4.5769,-4.5769,-4.5769,-4.5769,-4.5769,-4.5769,-4.5769,-4.5769,-4.5809,-4.5847,-4.5783,-4.5828,-4.5889,-4.5852,-4.5919,-4.6013,-4.6091,-4.6144,-4.6187,-4.6138,-4.6164,-4.622,-4.6245,-4.6273,-4.6284,-4.6259,-4.6279,-4.63,-4.63,-4.63,-4.63,-4.63,-4.63,-4.63,-4.63,-4.63,0.0,0.0,-4.63,-4.6245,-4.6131,-4.5987,-4.5875,-4.5814,-4.5684,-4.5586,-4.5586,-4.5586,-4.5586,-4.5586,-4.5586,-4.5586,-4.5586,-4.5586,-4.5586,-4.5586,-4.5586,-4.5393,-4.5009,-4.5413,-4.5182,-4.4432,-4.4335,-4.4355,-4.4412,-4.3915,-4.4203,-4.4993,-4.4975,-4.5186,-4.5568,-4.5568,-4.5648,-4.58,-4.58,-4.5936,-4.6098,-4.4992,-4.4309,-4.3645,-4.343,-4.2123,-4.1108,-4.1108,-4.1108,-4.1078,-4.1022,-4.1017,-4.0974,-4.0879,-4.0871,-4.0863,-4.0846,-4.0846,-4.0829,-4.0791,-4.0667,-4.0568,-4.0568,-4.0954,-4.1398,-4.1846,-4.2922,-4.3366,-4.3173,-4.3421,-4.3562,-4.3582,-4.4528,-4.4977,-4.5016,-4.5608,-4.5899,-4.5899,-4.5899,-4.5899,-4.5899,-4.5899,-4.5899,-4.5899,-4.5899,-4.5899,-4.5899,-4.5899,-4.592,-4.594,-4.591,-4.594,-4.5987,-4.5969,-4.6041,-4.6144,-4.6144,-4.6216,-4.63,-4.63,-4.63,-4.63,-4.63,-4.63,-4.63,-4.63,-4.63,-4.63,-4.63,-4.63,-4.63,-4.63,-4.63,-4.63,-4.63,0.0,0.0,0.0,-4.63,-4.6269,-4.617,-4.5996,-4.5886,-4.5829,-4.568,-4.5586,-4.5586,-4.5586,-4.5586,-4.5586,-4.5586,-4.5586,-4.5586,-4.5586,-4.5586,-4.5586,-4.5586,-4.5586,-4.5586,-4.5586,-4.5586,-4.5566,-4.4913,-4.497,-4.5547,-4.4893,-4.497,-4.5586,-4.5586,-4.5586,-4.5586,-4.5586,-4.568,-4.5815,-4.5815,-4.5959,-4.6144,-4.4992,-4.4309,-4.345,-4.265,-4.1713,-4.1108,-4.1108,-4.1108,-4.1108,-4.1085,-4.1085,-4.1085,-4.1081,-4.1081,-4.1046,-4.0987,-4.0981,-4.0933,-4.082,-4.0791,-4.0791,-4.0791,-4.2315,-4.2849,-4.2083,-4.3714,-4.4199,-4.3384,-4.419,-4.4598,-4.4617,-4.5433,-4.5802,-4.5802,-4.5861,-4.5899,-4.5899,-4.5899,-4.5899,-4.5899,-4.5899,-4.5899,-4.5899,-4.5899,-4.5899,-4.5899,-4.5899,-4.5987,-4.6064,-4.594,-4.6076,-4.6245,-4.6112,-4.6176,-4.6296,-4.6296,-4.63,-4.63,-4.63,-4.63,-4.63,-4.63,-4.63,-4.63,-4.63,-4.63,-4.63,-4.63,-4.63,-4.63,-4.63,-4.63,-4.63,-4.63,0.0,0.0,-4.63,-4.63,-4.63,-4.6296,-4.6057,-4.5899,-4.5889,-4.5723,-4.5586,-4.5586,-4.5586,-4.5586,-4.5586,-4.5586,-4.5586,-4.5586,-4.5586,-4.5586,-4.5586,-4.5586,-4.5586,-4.5586,-4.5586,-4.5586,-4.5586,-4.5528,-4.5528,-4.5586,-4.5528,-4.5528,-4.5586,-4.5586,-4.5586,-4.5586,-4.5586,-4.5718,-4.5889,-4.5889,-4.6057,-4.6296,-4.3391,-4.3118,-4.2786,-4.2454,-4.1674,-4.1108,-4.1108,-4.1108,-4.1108,-4.1108,-4.1108,-4.1108,-4.1108,-4.1108,-4.1085,-4.1066,-4.1066,-4.1037,-4.0998,-4.0998,-4.1175,-4.1577,-4.2238,-4.2937,-4.3695,-4.4356,-4.4783,-4.4958,-4.5365,-4.5574,-4.5574,-4.5969,-4.6144,-4.6144,-4.6144,-4.6144,-4.6144,-4.6144,-4.6144,-4.6144,-4.6144,-4.6144,-4.6144,-4.6144,-4.6144,-4.6144,-4.6144,-4.6181,-4.6216,-4.617,-4.6211,-4.6296,-4.624,-4.6269,-4.63,-4.63,-4.63,-4.63,-4.63,-4.63,-4.63,-4.63,-4.63,-4.63,-4.63,-4.63,-4.63,-4.63,-4.63,-4.63,-4.63,-4.63,-4.63,-4.63,0.0,-4.63,-4.63,-4.63,-4.63,-4.63,-4.6138,-4.5996,-4.591,-4.5783,-4.57,-4.5603,-4.5586,-4.5586,-4.5586,-4.5586,-4.5586,-4.5586,-4.5586,-4.5586,-4.5586,-4.5586,-4.5586,-4.5586,-4.5586,-4.5586,-4.5586,-4.5586,-4.5586,-4.5586,-4.5586,-4.5586,-4.5586,-4.5586,-4.5586,-4.5586,-4.5586,-4.5718,-4.5899,-4.5899,-4.6064,-4.63,-4.2747,-4.2806,-4.2728,-4.2454,-4.1908,-4.142,-4.1147,-4.1108,-4.1108,-4.1108,-4.1108,-4.1108,-4.1108,-4.1108,-4.1108,-4.1108,-4.1108,-4.1108,-4.1108,-4.1108,-4.1437,-4.2155,-4.2459,-4.3296,-4.4756,-4.5068,-4.5476,-4.6033,-4.6131,-4.615,-4.615,-4.6269,-4.63,-4.63,-4.63,-4.63,-4.63,-4.63,-4.63,-4.63,-4.63,-4.63,-4.63,-4.63,-4.63,-4.63,-4.63,-4.63,-4.63,-4.63,-4.63,-4.63,-4.63,-4.63,-4.63,-4.63,-4.63,-4.63,-4.63,-4.63,-4.63,-4.63,-4.63,-4.63,-4.63,-4.63,-4.63,-4.63,-4.63,-4.63,-4.63,-4.63,-4.63,-4.63,-4.63,-4.63,-4.63,-4.63,-4.63,-4.63,-4.6181,-4.6049,-4.591,-4.5854,-4.5742,-4.5603,-4.5586,-4.5586,-4.5586,-4.5586,-4.5586,-4.5586,-4.5586,-4.5586,-4.5586,-4.5586,-4.5586,-4.5586,-4.5586,-4.5586,-4.5586,-4.5586,-4.5586,-4.5586,-4.5586,-4.5586,-4.5586,-4.5586,-4.5586,-4.5586,-4.5586,-4.5718,-4.5899,-4.5899,-4.6064,-4.63,-4.3509,-4.3684,-4.3411,-4.2533,-4.2396,-4.2103,-4.1225,-4.1108,-4.1108,-4.1108,-4.1108,-4.1108,-4.1108,-4.1108,-4.1108,-4.1108,-4.1108,-4.1108,-4.1108,-4.1108,-4.1498,-4.2376,-4.3235,-4.4114,-4.4992,-4.5851,-4.63,-4.63,-4.63,-4.63,-4.63,-4.63,-4.63,-4.63,-4.63,-4.63,-4.63,-4.63,-4.63,-4.63,-4.63,-4.63,-4.63,-4.63,-4.63,-4.63,-4.63,-4.63,-4.63,-4.63,-4.63,-4.63,-4.63,-4.63,-4.63,-4.63,-4.63,-4.63,-4.63,-4.63,-4.63,-4.63,-4.63,-4.63,-4.63,-4.63,-4.63,-4.63,-4.63,-4.63,-4.63,-4.63,-4.63,-4.63,-4.63,-4.63,-4.63,-4.63,-4.63,-4.63,-4.6181,-4.6049,-4.591,-4.5835,-4.5742,-4.5603,-4.5586,-4.5586,-4.5586,-4.5586,-4.5586,-4.5586,-4.5586,-4.5586,-4.5586,-4.5586,-4.5586,-4.5586,-4.5586,-4.5586,-4.5586,-4.5586,-4.5586,-4.5586,-4.5586,-4.5586,-4.5586,-4.5586,-4.5586,-4.5586,-4.5586,-4.5718,-4.5899,-4.5899,-4.6064,-4.63,-4.181,-4.1888,-4.1791,-4.1537,-4.1498,-4.14,-4.1147,-4.1108,-4.1108,-4.1108,-4.1108,-4.1108,-4.1108,-4.1108,-4.1108,-4.1108,-4.1108,-4.1108,-4.1108,-4.1674,-4.2396,-4.3274,-4.3567,-4.4387,-4.587,-4.6163,-4.63,-4.63,-4.63,-4.63,-4.63,-4.63,-4.63,-4.63,-4.63,-4.63,-4.63,-4.63,-4.63,-4.63,-4.63,-4.63,-4.63,-4.63,-4.63,-4.63,-4.63,-4.63,-4.63,-4.63,-4.63,-4.63,-4.63,-4.63,-4.63,-4.63,-4.63,-4.63,-4.63,-4.63,-4.63,-4.63,-4.63,-4.63,-4.63,-4.63,-4.63,-4.63,-4.63,-4.63,-4.63,-4.63,-4.63,-4.63,-4.63,-4.63,-4.63,-4.63,-4.63,-4.63,-4.6249,-4.6181,-4.6057,-4.5939,-4.5835,-4.5742,-4.5651,-4.5586,-4.5586,-4.5586,-4.5586,-4.5586,-4.5586,-4.5586,-4.5586,-4.5586,-4.5586,-4.5586,-4.5586,-4.5586,-4.5586,-4.5586,-4.5586,-4.5586,-4.5586,-4.5586,-4.5586,-4.5586,-4.5586,-4.5603,-4.5696,-4.5815,-4.591,-4.6005,-4.6144,-4.63,-4.1557,-4.1615,-4.1615,-4.1615,-4.1615,-4.1498,-4.1147,-4.1108,-4.1108,-4.1108,-4.1108,-4.1108,-4.1108,-4.1108,-4.1108,-4.1108,-4.1108,-4.1244,-4.1596,-4.2103,-4.2942,-4.4153,-4.4211,-4.4875,-4.6261,-4.63,-4.63,-4.63,-4.63,-4.63,-4.63,-4.63,-4.63,-4.63,-4.63,-4.63,-4.63,-4.63,-4.63,-4.63,-4.63,-4.63,-4.63,-4.63,-4.63,-4.63,-4.63,-4.63,-4.63,-4.63,-4.63,-4.63,-4.63,-4.63,-4.63,-4.63,-4.63,-4.63,-4.63,-4.63,-4.63,-4.63,-4.63,-4.63,-4.63,-4.63,-4.63,-4.63,-4.63,-4.63,-4.63,-4.63,-4.63,-4.63,-4.63,-4.63,-4.63,-4.63,-4.63,-4.63,-4.63,-4.6245,-4.6105,-4.6033,-4.5919,-4.5794,-4.5712,-4.5671,-4.5603,-4.5586,-4.5586,-4.5586,-4.5586,-4.5586,-4.5586,-4.5586,-4.5586,-4.5586,-4.5586,-4.5586,-4.5586,-4.5586,-4.5586,-4.5586,-4.5586,-4.5586,-4.5586,-4.5586,-4.5586,-4.5603,-4.5742,-4.5835,-4.592,-4.6049,-4.6181,-4.63,-4.2123,-4.2279,-4.2279,-4.2279,-4.2279,-4.2025,-4.1225,-4.1108,-4.1108,-4.1108,-4.1108,-4.1108,-4.1108,-4.1108,-4.1108,-4.1108,-4.1108,-4.1479,-4.2337,-4.2474,-4.3255,-4.4933,-4.507,-4.55,-4.628,-4.63,-4.63,-4.63,-4.63,-4.63,-4.63,-4.63,-4.63,-4.63,-4.63,-4.63,-4.63,-4.63,-4.63,-4.63,-4.63,-4.63,-4.63,-4.63,-4.63,-4.63,-4.63,-4.63,-4.63,-4.63,-4.63,-4.63,-4.63,-4.63,-4.63,-4.63,-4.63,-4.63,-4.63,-4.63,-4.63,-4.63,-4.63,-4.63,-4.63,-4.63,-4.63,-4.63,-4.63,-4.63,-4.63,-4.63,-4.63,-4.63,-4.63,-4.63,-4.63,-4.63,-4.63,-4.63,-4.63,-4.6245,-4.6138,-4.6105,-4.6016,-4.5822,-4.5794,-4.5742,-4.562,-4.5603,-4.5586,-4.5586,-4.5586,-4.5586,-4.5586,-4.5586,-4.5586,-4.5586,-4.5586,-4.5586,-4.5586,-4.5586,-4.5586,-4.5586,-4.5586,-4.5586,-4.5586,-4.5586,-4.5603,-4.5637,-4.5771,-4.5847,-4.593,-4.6064,-4.6206,-4.63,-4.1342,-4.1381,-4.1381,-4.1381,-4.1381,-4.1322,-4.1127,-4.1108,-4.1108,-4.1108,-4.1108,-4.1108,-4.1108,-4.1108,-4.1108,-4.1108,-4.1108,-4.1479,-4.2337,-4.304,-4.3899,-4.4953,-4.5656,-4.6105,-4.63,-4.63,-4.63,-4.63,-4.63,-4.63,-4.63,-4.63,-4.63,-4.63,-4.63,-4.63,-4.63,-4.63,-4.63,-4.63,-4.63,-4.63,-4.63,-4.63,-4.63,-4.63,-4.63,-4.63,-4.63,-4.63,-4.63,-4.63,-4.63,-4.63,-4.63,-4.63,-4.63,-4.63,-4.63,-4.63,-4.63,-4.63,-4.63,-4.63,-4.63,-4.63,-4.63,-4.63,-4.63,-4.63,-4.63,-4.63,-4.63,-4.63,-4.63,-4.63,-4.63,-4.63,-4.63,-4.63,-4.63,-4.6296,-4.6269,-4.615,-4.6041,-4.5897,-4.5829,-4.5786,-4.5757,-4.5651,-4.5586,-4.5586,-4.5586,-4.5586,-4.5586,-4.5586,-4.5586,-4.5586,-4.5586,-4.5586,-4.5586,-4.5586,-4.5586,-4.5586,-4.5586,-4.5586,-4.5586,-4.5586,-4.5651,-4.5752,-4.5859,-4.5949,-4.6064,-4.6211,-4.6273,-4.63,-4.1108,-4.1108,-4.1108,-4.1108,-4.1108,-4.1108,-4.1108,-4.1108,-4.1244,-4.1674,-4.1361,-4.1264,-4.1674,-4.1342,-4.1264,-4.1674,-4.2103,-4.2708,-4.3587,-4.4075,-4.4719,-4.5578,-4.6066,-4.63,-4.63,-4.63,-4.63,-4.63,-4.63,-4.63,-4.63,-4.63,-4.63,-4.63,-4.63,-4.63,-4.63,-4.63,-4.63,-4.63,-4.63,-4.63,-4.63,-4.63,-4.63,-4.63,-4.63,-4.63,-4.63,-4.63,-4.63,-4.63,-4.63,-4.63,-4.63,-4.63,-4.63,-4.63,-4.63,-4.63,-4.63,-4.63,-4.63,-4.63,-4.63,-4.63,-4.63,-4.63,-4.63,-4.63,-4.63,-4.63,-4.63,-4.63,-4.63,-4.6456,-4.6866,-4.6924,-4.7061,-4.7451,-4.749,-4.749,-4.749,-4.7079,-4.6762,-4.6627,-4.6591,-4.6538,-4.6467,-4.5984,-4.5893,-4.6298,-4.5849,-4.5586,-4.5586,-4.5586,-4.5586,-4.5586,-4.5586,-4.5586,-4.5586,-4.5586,-4.5586,-4.5586,-4.5586,-4.5586,-4.5603,-4.5668,-4.5727,-4.5808,-4.5939,-4.6041,-4.6131,-4.6245,-4.63,-4.63,-4.1283,-4.1322,-4.1361,-4.1518,-4.1537,-4.1537,-4.1537,-4.142,-4.1635,-4.2513,-4.1732,-4.142,-4.2298,-4.1752,-4.1674,-4.2552,-4.3274,-4.4075,-4.4933,-4.4992,-4.5382,-4.6261,-4.63,-4.63,-4.63,-4.63,-4.63,-4.63,-4.63,-4.63,-4.63,-4.63,-4.63,-4.63,-4.63,-4.63,-4.63,-4.63,-4.63,-4.63,-4.63,-4.63,-4.63,-4.63,-4.63,-4.63,-4.63,-4.63,-4.63,-4.63,-4.63,-4.63,-4.63,-4.63,-4.63,-4.63,-4.63,-4.63,-4.63,-4.63,-4.63,-4.63,-4.63,-4.63,-4.63,-4.63,-4.63,-4.63,-4.63,-4.63,-4.63,-4.63,-4.6358,-4.6495,-4.6515,-4.6827,-4.7686,-4.7803,-4.8057,-4.872,-4.8798,-4.8798,-4.8798,-4.8193,-4.7767,-4.7645,-4.7625,-4.7576,-4.7456,-4.6693,-4.6577,-4.7284,-4.6491,-4.5967,-4.5817,-4.5951,-4.5874,-4.5586,-4.5893,-4.5874,-4.5586,-4.5586,-4.5586,-4.5586,-4.5586,-4.5586,-4.5603,-4.5742,-4.5794,-4.5848,-4.6024,-4.6105,-4.6144,-4.6269,-4.63,-4.63,-4.2084,-4.222,-4.2454,-4.3216,-4.3352,-4.3352,-4.3352,-4.2708,-4.2533,-4.3411,-4.2103,-4.142,-4.2298,-4.2298,-4.2572,-4.345,-4.3626,-4.4075,-4.4933,-4.4992,-4.5382,-4.6261,-4.63,-4.63,-4.63,-4.63,-4.63,-4.63,-4.63,-4.63,-4.63,-4.63,-4.63,-4.63,-4.63,-4.63,-4.63,-4.63,-4.63,-4.63,-4.63,-4.63,-4.63,-4.63,-4.63,-4.63,-4.63,-4.63,-4.63,-4.63,-4.63,-4.63,-4.63,-4.63,-4.63,-4.63,-4.63,-4.63,-4.63,-4.63,-4.63,-4.63,-4.63,-4.63,-4.63,-4.63,-4.63,-4.63,-4.63,-4.63,-4.63,-4.63,-4.6554,-4.7295,-4.7412,-4.7705,-4.8525,-4.8642,-4.8681,-4.8798,-4.8798,-4.8798,-4.8798,-4.8701,-4.8619,-4.8615,-4.8554,-4.8514,-4.8507,-4.8263,-4.8133,-4.8135,-4.8009,-4.7545,-4.674,-4.7413,-4.7028,-4.5605,-4.7067,-4.699,-4.5586,-4.5586,-4.5586,-4.5586,-4.5586,-4.5586,-4.5603,-4.5742,-4.5841,-4.5889,-4.6041,-4.6176,-4.6273,-4.63,-4.63,-4.63,-4.224,-4.2006,-4.2103,-4.345,-4.3294,-4.3138,-4.3626,-4.3372,-4.343,-4.4309,-4.3333,-4.2884,-4.3762,-4.386,-4.4016,-4.4387,-4.4875,-4.5324,-4.5695,-4.5734,-4.5909,-4.628,-4.63,-4.63,-4.63,-4.63,-4.63,-4.63,-4.63,-4.63,-4.63,-4.63,-4.63,-4.63,-4.63,-4.63,-4.63,-4.63,-4.63,-4.63,-4.63,-4.63,-4.63,-4.63,-4.63,-4.63,-4.63,-4.63,-4.63,-4.63,-4.63,-4.63,-4.63,-4.63,-4.63,-4.63,-4.63,-4.63,-4.63,-4.63,-4.63,-4.63,-4.63,-4.63,-4.63,-4.63,-4.63,-4.63,-4.63,-4.63,-4.63,-4.669,-4.7159,-4.7549,-4.7978,-4.8564,-4.9403,-4.954,-4.9716,-5.0184,-4.9813,-4.9716,-5.0204,-4.9813,-4.954,-4.954,-4.9504,-4.9488,-4.9488,-4.8923,-4.8769,-4.913,-4.8664,-4.8172,-4.7684,-4.8031,-4.7882,-4.7215,-4.7902,-4.7287,-4.5605,-4.6105,-4.6067,-4.5586,-4.5586,-4.5635,-4.5712,-4.5829,-4.5919,-4.6033,-4.617,-4.6245,-4.63,-4.63,-4.63,-4.63]}]]